Time,TemperatureF,DewpointF,PressureIn,WindDirection,WindDirectionDegrees,WindSpeedMPH,WindSpeedGustMPH,Humidity,HourlyPrecipIn,Conditions,Clouds,dailyrainin,SoftwareType,DateUTC
2013-10-04 00:00:00,58.9,0.0,30.02,West,274,0.0,0.0,0,0.00,,---,0.00,VWS V14.00,2013-10-04 04:00:00,
2013-10-04 00:01:00,58.8,0.0,30.02,NNW,332,0.0,0.0,0,0.00,,---,0.00,VWS V14.00,2013-10-04 04:01:00,
2013-10-04 00:02:00,58.8,0.0,30.02,NNW,332,2.4,0.0,0,0.00,,---,0.00,VWS V14.00,2013-10-04 04:02:00,
2013-10-04 00:03:00,58.8,0.0,30.02,NNW,332,0.0,0.0,0,0.00,,---,0.00,VWS V14.00,2013-10-04 04:03:00,
2013-10-04 00:04:00,58.7,0.0,30.02,NNW,332,0.0,0.0,0,0.00,,---,0.00,VWS V14.00,2013-10-04 04:04:00,
2013-10-04 00:05:00,58.6,0.0,30.02,NNW,332,0.0,5.3,0,0.00,,---,0.00,VWS V14.00,2013-10-04 04:05:00,
2013-10-04 00:06:00,58.7,0.0,30.02,NNW,332,0.0,5.3,0,0.00,,---,0.00,VWS V14.00,2013-10-04 04:06:00,
2013-10-04 00:07:00,58.7,0.0,30.02,NNW,332,0.0,5.3,0,0.00,,---,0.00,VWS V14.00,2013-10-04 04:07:00,
2013-10-04 00:08:00,58.7,0.0,30.02,West,267,0.0,5.3,0,0.00,,---,0.00,VWS V14.00,2013-10-04 04:08:00,
2013-10-04 00:09:00,58.7,0.0,30.02,West,267,0.0,5.3,0,0.00,,---,0.00,VWS V14.00,2013-10-04 04:09:00,
2013-10-04 00:10:00,58.7,0.0,30.02,West,267,0.0,2.7,0,0.00,,---,0.00,VWS V14.00,2013-10-04 04:10:00,
2013-10-04 00:11:00,58.6,0.0,30.02,WNW,295,0.0,2.7,0,0.00,,---,0.00,VWS V14.00,2013-10-04 04:11:00,
2013-10-04 00:12:00,58.7,0.0,30.02,WNW,295,0.0,2.7,0,0.00,,---,0.00,VWS V14.00,2013-10-04 04:12:00,
2013-10-04 00:13:00,58.6,0.0,30.02,WNW,295,0.0,2.7,0,0.00,,---,0.00,VWS V14.00,2013-10-04 04:13:00,
2013-10-04 00:14:00,58.5,0.0,30.02,SW,235,0.0,2.7,0,0.00,,---,0.00,VWS V14.00,2013-10-04 04:14:00,
2013-10-04 00:15:00,58.5,0.0,30.02,SW,235,0.0,3.0,0,0.00,,---,0.00,VWS V14.00,2013-10-04 04:15:00,
2013-10-04 00:16:00,58.4,0.0,30.02,SW,235,0.0,3.0,0,0.00,,---,0.00,VWS V14.00,2013-10-04 04:16:00,
2013-10-04 00:17:00,58.4,0.0,30.02,SW,235,0.0,3.0,0,0.00,,---,0.00,VWS V14.00,2013-10-04 04:17:00,
2013-10-04 00:18:00,58.4,0.0,30.02,SW,235,0.0,3.0,0,0.00,,---,0.00,VWS V14.00,2013-10-04 04:18:00,
2013-10-04 00:19:00,58.5,0.0,30.02,SW,235,0.0,3.0,0,0.00,,---,0.00,VWS V14.00,2013-10-04 04:19:00,
2013-10-04 00:20:00,58.5,0.0,30.02,SW,235,0.0,0.0,0,0.00,,---,0.00,VWS V14.00,2013-10-04 04:20:00,
2013-10-04 00:21:00,58.5,0.0,30.02,SW,235,0.0,0.0,0,0.00,,---,0.00,VWS V14.00,2013-10-04 04:21:00,
2013-10-04 00:22:00,58.5,0.0,30.02,SW,235,0.0,0.0,0,0.00,,---,0.00,VWS V14.00,2013-10-04 04:22:00,
2013-10-04 00:23:00,58.5,0.0,30.02,SW,235,0.0,0.0,0,0.00,,---,0.00,VWS V14.00,2013-10-04 04:23:00,
2013-10-04 00:24:00,58.5,0.0,30.02,SW,235,0.0,0.0,0,0.00,,---,0.00,VWS V14.00,2013-10-04 04:24:00,
2013-10-04 00:25:00,58.5,0.0,30.02,SW,235,0.0,0.0,0,0.00,,---,0.00,VWS V14.00,2013-10-04 04:25:00,
2013-10-04 00:26:00,58.5,0.0,30.02,SW,235,0.0,0.0,0,0.00,,---,0.00,VWS V14.00,2013-10-04 04:26:00,
2013-10-04 00:27:00,58.4,0.0,30.02,SW,235,0.0,0.0,0,0.00,,---,0.00,VWS V14.00,2013-10-04 04:27:00,
2013-10-04 00:28:00,58.4,0.0,30.02,SW,235,0.0,0.0,0,0.00,,---,0.00,VWS V14.00,2013-10-04 04:28:00,
2013-10-04 00:29:00,58.3,0.0,30.02,SW,235,0.0,0.0,0,0.00,,---,0.00,VWS V14.00,2013-10-04 04:29:00,
2013-10-04 00:30:00,58.3,0.0,30.02,WNW,290,0.0,2.9,0,0.00,,---,0.00,VWS V14.00,2013-10-04 04:30:00,
2013-10-04 00:31:00,59.1,0.0,30.02,West,274,0.0,0.0,0,0.00,,---,0.00,VWS V14.00,2013-10-04 04:31:00,
2013-10-04 00:32:00,58.2,0.0,30.02,WNW,290,0.0,2.9,0,0.00,,---,0.00,VWS V14.00,2013-10-04 04:32:00,
2013-10-04 00:33:00,58.2,0.0,30.02,WNW,290,0.0,2.9,0,0.00,,---,0.00,VWS V14.00,2013-10-04 04:33:00,
2013-10-04 00:34:00,58.2,0.0,30.02,North,353,0.0,2.9,0,0.00,,---,0.00,VWS V14.00,2013-10-04 04:34:00,
2013-10-04 00:35:00,59.0,0.0,30.02,West,274,0.0,0.0,0,0.00,,---,0.00,VWS V14.00,2013-10-04 04:35:00,
2013-10-04 00:36:00,58.3,0.0,30.02,North,353,0.0,3.0,0,0.00,,---,0.00,VWS V14.00,2013-10-04 04:36:00,
2013-10-04 00:37:00,58.2,0.0,30.02,North,353,0.0,3.0,0,0.00,,---,0.00,VWS V14.00,2013-10-04 04:37:00,
2013-10-04 00:38:00,58.2,0.0,30.02,North,353,0.0,3.0,0,0.00,,---,0.00,VWS V14.00,2013-10-04 04:38:00,
2013-10-04 00:39:00,58.2,0.0,30.02,North,353,0.0,3.0,0,0.00,,---,0.00,VWS V14.00,2013-10-04 04:39:00,
2013-10-04 00:40:00,58.3,0.0,30.02,North,353,0.0,3.2,0,0.00,,---,0.00,VWS V14.00,2013-10-04 04:40:00,
2013-10-04 00:41:00,58.3,0.0,30.02,North,353,0.0,3.2,0,0.00,,---,0.00,VWS V14.00,2013-10-04 04:41:00,
2013-10-04 00:42:00,58.9,0.0,30.02,West,274,0.0,2.7,0,0.00,,---,0.00,VWS V14.00,2013-10-04 04:42:00,
2013-10-04 00:43:00,58.9,0.0,30.02,West,274,0.0,0.0,0,0.00,,---,0.00,VWS V14.00,2013-10-04 04:43:00,
2013-10-04 00:44:00,58.3,0.0,30.02,WSW,249,0.0,3.2,0,0.00,,---,0.00,VWS V14.00,2013-10-04 04:44:00,
2013-10-04 00:45:00,59.0,0.0,30.02,West,274,0.0,0.0,0,0.00,,---,0.00,VWS V14.00,2013-10-04 04:45:00,
2013-10-04 00:46:00,58.9,0.0,30.02,West,274,0.0,0.0,0,0.00,,---,0.00,VWS V14.00,2013-10-04 04:46:00,
2013-10-04 00:47:00,58.9,0.0,30.02,West,274,0.0,0.0,0,0.00,,---,0.00,VWS V14.00,2013-10-04 04:47:00,
2013-10-04 00:48:00,58.2,0.0,30.02,WNW,287,0.0,4.3,0,0.00,,---,0.00,VWS V14.00,2013-10-04 04:48:00,
2013-10-04 00:49:00,58.2,0.0,30.02,WNW,287,0.0,4.3,0,0.00,,---,0.00,VWS V14.00,2013-10-04 04:49:00,
2013-10-04 00:50:00,58.2,0.0,30.02,WNW,287,0.0,4.3,0,0.00,,---,0.00,VWS V14.00,2013-10-04 04:50:00,
2013-10-04 00:51:00,58.2,0.0,30.02,WNW,287,0.0,3.3,0,0.00,,---,0.00,VWS V14.00,2013-10-04 04:51:00,
2013-10-04 00:52:00,58.1,0.0,30.02,WNW,287,0.0,3.3,0,0.00,,---,0.00,VWS V14.00,2013-10-04 04:52:00,
2013-10-04 00:53:00,58.1,0.0,30.02,WNW,287,0.0,3.3,0,0.00,,---,0.00,VWS V14.00,2013-10-04 04:53:00,
2013-10-04 00:54:00,58.1,0.0,30.02,WNW,287,0.0,3.3,0,0.00,,---,0.00,VWS V14.00,2013-10-04 04:54:00,
2013-10-04 00:55:00,58.1,0.0,30.02,WNW,287,0.0,0.0,0,0.00,,---,0.00,VWS V14.00,2013-10-04 04:55:00,
2013-10-04 00:56:00,58.1,0.0,30.02,WNW,287,0.0,0.0,0,0.00,,---,0.00,VWS V14.00,2013-10-04 04:56:00,
2013-10-04 00:57:00,58.1,0.0,30.02,WNW,287,0.0,0.0,0,0.00,,---,0.00,VWS V14.00,2013-10-04 04:57:00,
2013-10-04 00:58:00,58.1,0.0,30.02,WNW,287,0.0,0.0,0,0.00,,---,0.00,VWS V14.00,2013-10-04 04:58:00,
2013-10-04 00:59:00,58.1,0.0,30.02,WNW,287,0.0,0.0,0,0.00,,---,0.00,VWS V14.00,2013-10-04 04:59:00,
2013-10-04 01:00:00,58.0,0.0,30.02,WNW,287,0.0,3.2,0,0.00,,---,0.00,VWS V14.00,2013-10-04 05:00:00,
2013-10-04 01:01:00,58.0,0.0,30.02,West,262,0.0,3.2,0,0.00,,---,0.00,VWS V14.00,2013-10-04 05:01:00,
2013-10-04 01:02:00,58.0,0.0,30.02,WNW,290,0.0,3.2,0,0.00,,---,0.00,VWS V14.00,2013-10-04 05:02:00,
2013-10-04 01:03:00,58.0,0.0,30.02,NW,307,0.0,3.2,0,0.00,,---,0.00,VWS V14.00,2013-10-04 05:03:00,
2013-10-04 01:04:00,58.0,0.0,30.02,NW,307,0.0,3.2,0,0.00,,---,0.00,VWS V14.00,2013-10-04 05:04:00,
2013-10-04 01:05:00,58.0,0.0,30.02,WNW,290,0.0,3.4,0,0.00,,---,0.00,VWS V14.00,2013-10-04 05:05:00,
2013-10-04 01:06:00,57.9,0.0,30.02,WNW,290,0.0,3.4,0,0.00,,---,0.00,VWS V14.00,2013-10-04 05:06:00,
2013-10-04 01:07:00,57.9,0.0,30.02,WNW,290,0.0,3.4,0,0.00,,---,0.00,VWS V14.00,2013-10-04 05:07:00,
2013-10-04 01:08:00,57.9,0.0,30.02,West,277,0.0,3.4,0,0.00,,---,0.00,VWS V14.00,2013-10-04 05:08:00,
2013-10-04 01:09:00,57.9,0.0,30.02,West,277,0.0,3.4,0,0.00,,---,0.00,VWS V14.00,2013-10-04 05:09:00,
2013-10-04 01:10:00,57.9,0.0,30.03,West,277,0.0,2.5,0,0.00,,---,0.00,VWS V14.00,2013-10-04 05:10:00,
2013-10-04 01:11:00,57.8,0.0,30.03,West,277,0.0,2.5,0,0.00,,---,0.00,VWS V14.00,2013-10-04 05:11:00,
2013-10-04 01:12:00,57.8,0.0,30.03,West,277,0.0,2.5,0,0.00,,---,0.00,VWS V14.00,2013-10-04 05:12:00,
2013-10-04 01:13:00,57.9,0.0,30.03,West,277,2.8,2.8,0,0.00,,---,0.00,VWS V14.00,2013-10-04 05:13:00,
2013-10-04 01:14:00,57.9,0.0,30.03,South,180,0.0,2.5,0,0.00,,---,0.00,VWS V14.00,2013-10-04 05:14:00,
2013-10-04 01:15:00,57.9,0.0,30.03,South,180,0.0,3.0,0,0.00,,---,0.00,VWS V14.00,2013-10-04 05:15:00,
2013-10-04 01:16:00,57.9,0.0,30.03,South,180,0.0,3.0,0,0.00,,---,0.00,VWS V14.00,2013-10-04 05:16:00,
2013-10-04 01:17:00,58.0,0.0,30.03,South,180,0.0,3.0,0,0.00,,---,0.00,VWS V14.00,2013-10-04 05:17:00,
2013-10-04 01:18:00,58.0,0.0,30.02,South,180,0.0,3.0,0,0.00,,---,0.00,VWS V14.00,2013-10-04 05:18:00,
2013-10-04 01:19:00,57.9,0.0,30.02,South,180,0.0,3.0,0,0.00,,---,0.00,VWS V14.00,2013-10-04 05:19:00,
2013-10-04 01:20:00,57.8,0.0,30.02,South,180,0.0,3.2,0,0.00,,---,0.00,VWS V14.00,2013-10-04 05:20:00,
2013-10-04 01:21:00,57.8,0.0,30.02,South,180,0.0,3.2,0,0.00,,---,0.00,VWS V14.00,2013-10-04 05:21:00,
2013-10-04 01:22:00,57.8,0.0,30.02,WNW,283,0.0,3.2,0,0.00,,---,0.00,VWS V14.00,2013-10-04 05:22:00,
2013-10-04 01:23:00,57.8,0.0,30.02,WNW,283,0.0,3.2,0,0.00,,---,0.00,VWS V14.00,2013-10-04 05:23:00,
2013-10-04 01:24:00,57.8,0.0,30.02,West,281,5.5,5.5,0,0.00,,---,0.00,VWS V14.00,2013-10-04 05:24:00,
2013-10-04 01:25:00,57.8,0.0,30.02,West,278,0.0,6.2,0,0.00,,---,0.00,VWS V14.00,2013-10-04 05:25:00,
2013-10-04 01:26:00,57.8,0.0,30.02,West,278,0.0,6.2,0,0.00,,---,0.00,VWS V14.00,2013-10-04 05:26:00,
2013-10-04 01:27:00,57.8,0.0,30.02,West,278,0.0,6.2,0,0.00,,---,0.00,VWS V14.00,2013-10-04 05:27:00,
2013-10-04 01:28:00,57.8,0.0,30.02,NW,309,0.0,6.2,0,0.00,,---,0.00,VWS V14.00,2013-10-04 05:28:00,
2013-10-04 01:29:00,57.8,0.0,30.02,NNW,339,2.8,6.2,0,0.00,,---,0.00,VWS V14.00,2013-10-04 05:29:00,
2013-10-04 01:30:00,57.9,0.0,30.02,NNW,339,0.0,4.5,0,0.00,,---,0.00,VWS V14.00,2013-10-04 05:30:00,
2013-10-04 01:31:00,57.9,0.0,30.02,NNW,339,3.5,4.5,0,0.00,,---,0.00,VWS V14.00,2013-10-04 05:31:00,
2013-10-04 01:32:00,57.9,0.0,30.02,NNW,339,0.0,4.5,0,0.00,,---,0.00,VWS V14.00,2013-10-04 05:32:00,
2013-10-04 01:33:00,57.8,0.0,30.02,West,267,2.2,4.5,0,0.00,,---,0.00,VWS V14.00,2013-10-04 05:33:00,
2013-10-04 01:34:00,57.9,0.0,30.02,West,267,0.0,4.5,0,0.00,,---,0.00,VWS V14.00,2013-10-04 05:34:00,
2013-10-04 01:35:00,57.8,0.0,30.02,NW,321,0.0,4.4,0,0.00,,---,0.00,VWS V14.00,2013-10-04 05:35:00,
2013-10-04 01:36:00,57.9,0.0,30.02,SW,226,0.0,4.4,0,0.00,,---,0.00,VWS V14.00,2013-10-04 05:36:00,
2013-10-04 01:37:00,57.8,0.0,30.02,SW,226,0.0,4.4,0,0.00,,---,0.00,VWS V14.00,2013-10-04 05:37:00,
2013-10-04 01:38:00,57.8,0.0,30.02,WNW,287,3.0,4.4,0,0.00,,---,0.00,VWS V14.00,2013-10-04 05:38:00,
2013-10-04 01:39:00,57.8,0.0,30.02,NW,315,3.5,4.4,0,0.00,,---,0.00,VWS V14.00,2013-10-04 05:39:00,
2013-10-04 01:40:00,57.8,0.0,30.02,NNW,335,0.0,4.2,0,0.00,,---,0.00,VWS V14.00,2013-10-04 05:40:00,
2013-10-04 01:41:00,57.8,0.0,30.02,NW,308,0.0,4.2,0,0.00,,---,0.00,VWS V14.00,2013-10-04 05:41:00,
2013-10-04 01:42:00,57.8,0.0,30.02,NW,305,0.0,4.2,0,0.00,,---,0.00,VWS V14.00,2013-10-04 05:42:00,
2013-10-04 01:43:00,57.8,0.0,30.02,NNW,346,0.0,4.2,0,0.00,,---,0.00,VWS V14.00,2013-10-04 05:43:00,
2013-10-04 01:44:00,57.8,0.0,30.02,West,273,3.0,4.2,0,0.00,,---,0.00,VWS V14.00,2013-10-04 05:44:00,
2013-10-04 01:45:00,57.8,0.0,30.02,West,273,0.0,5.0,0,0.00,,---,0.00,VWS V14.00,2013-10-04 05:45:00,
2013-10-04 01:46:00,57.8,0.0,30.02,NNW,332,2.9,5.0,0,0.00,,---,0.00,VWS V14.00,2013-10-04 05:46:00,
2013-10-04 01:47:00,57.8,0.0,30.02,NNW,332,3.2,5.0,0,0.00,,---,0.00,VWS V14.00,2013-10-04 05:47:00,
2013-10-04 01:48:00,57.8,0.0,30.02,NNW,332,0.0,5.0,0,0.00,,---,0.00,VWS V14.00,2013-10-04 05:48:00,
2013-10-04 01:49:00,57.8,0.0,30.02,NNW,339,0.0,5.0,0,0.00,,---,0.00,VWS V14.00,2013-10-04 05:49:00,
2013-10-04 01:50:00,57.8,0.0,30.02,NNW,339,0.0,5.0,0,0.00,,---,0.00,VWS V14.00,2013-10-04 05:50:00,
2013-10-04 01:51:00,57.8,0.0,30.02,NNW,339,0.0,3.4,0,0.00,,---,0.00,VWS V14.00,2013-10-04 05:51:00,
2013-10-04 01:52:00,57.8,0.0,30.02,NW,319,0.0,3.4,0,0.00,,---,0.00,VWS V14.00,2013-10-04 05:52:00,
2013-10-04 01:53:00,57.8,0.0,30.02,NW,305,0.0,3.4,0,0.00,,---,0.00,VWS V14.00,2013-10-04 05:53:00,
2013-10-04 01:54:00,57.8,0.0,30.02,NW,305,0.0,3.4,0,0.00,,---,0.00,VWS V14.00,2013-10-04 05:54:00,
2013-10-04 01:55:00,57.8,0.0,30.02,NW,305,0.0,3.4,0,0.00,,---,0.00,VWS V14.00,2013-10-04 05:55:00,
2013-10-04 01:56:00,57.8,0.0,30.02,NW,305,0.0,4.5,0,0.00,,---,0.00,VWS V14.00,2013-10-04 05:56:00,
2013-10-04 01:57:00,57.8,0.0,30.02,NW,314,0.0,4.5,0,0.00,,---,0.00,VWS V14.00,2013-10-04 05:57:00,
2013-10-04 01:58:00,57.8,0.0,30.02,NW,314,0.0,4.5,0,0.00,,---,0.00,VWS V14.00,2013-10-04 05:58:00,
2013-10-04 01:59:00,57.8,0.0,30.02,NW,314,0.0,4.5,0,0.00,,---,0.00,VWS V14.00,2013-10-04 05:59:00,
2013-10-04 02:00:00,57.8,0.0,30.01,NW,314,0.0,4.2,0,0.00,,---,0.00,VWS V14.00,2013-10-04 06:00:00,
2013-10-04 02:01:00,57.8,0.0,30.01,NW,314,0.0,4.2,0,0.00,,---,0.00,VWS V14.00,2013-10-04 06:01:00,
2013-10-04 02:02:00,57.8,0.0,30.01,NNW,335,3.2,4.2,0,0.00,,---,0.00,VWS V14.00,2013-10-04 06:02:00,
2013-10-04 02:03:00,57.7,0.0,30.01,NNW,329,2.9,4.2,0,0.00,,---,0.00,VWS V14.00,2013-10-04 06:03:00,
2013-10-04 02:04:00,57.7,0.0,30.01,NNW,329,0.0,4.2,0,0.00,,---,0.00,VWS V14.00,2013-10-04 06:04:00,
2013-10-04 02:05:00,57.7,0.0,30.01,North,4,0.0,3.5,0,0.00,,---,0.00,VWS V14.00,2013-10-04 06:05:00,
2013-10-04 02:06:00,57.7,0.0,30.01,North,4,0.0,3.5,0,0.00,,---,0.00,VWS V14.00,2013-10-04 06:06:00,
2013-10-04 02:07:00,57.6,0.0,30.01,NNW,333,0.0,3.5,0,0.00,,---,0.00,VWS V14.00,2013-10-04 06:07:00,
2013-10-04 02:08:00,57.5,0.0,30.01,NW,325,3.4,3.5,0,0.00,,---,0.00,VWS V14.00,2013-10-04 06:08:00,
2013-10-04 02:09:00,57.4,0.0,30.01,NW,311,5.0,5.0,0,0.00,,---,0.00,VWS V14.00,2013-10-04 06:09:00,
2013-10-04 02:10:00,57.3,0.0,30.01,WSW,248,0.0,5.7,0,0.00,,---,0.00,VWS V14.00,2013-10-04 06:10:00,
2013-10-04 02:11:00,57.3,0.0,30.01,West,273,0.0,5.7,0,0.00,,---,0.00,VWS V14.00,2013-10-04 06:11:00,
2013-10-04 02:12:00,57.3,0.0,30.01,West,273,0.0,5.7,0,0.00,,---,0.00,VWS V14.00,2013-10-04 06:12:00,
2013-10-04 02:13:00,57.3,0.0,30.01,NW,319,0.0,5.7,0,0.00,,---,0.00,VWS V14.00,2013-10-04 06:13:00,
2013-10-04 02:14:00,57.2,0.0,30.01,NW,326,3.4,5.7,0,0.00,,---,0.00,VWS V14.00,2013-10-04 06:14:00,
2013-10-04 02:15:00,57.3,0.0,30.01,NNW,336,1.5,7.2,0,0.00,,---,0.00,VWS V14.00,2013-10-04 06:15:00,
2013-10-04 02:16:00,57.3,0.0,30.01,NW,316,0.0,7.2,0,0.00,,---,0.00,VWS V14.00,2013-10-04 06:16:00,
2013-10-04 02:17:00,57.2,0.0,30.01,WNW,301,0.0,7.2,0,0.00,,---,0.00,VWS V14.00,2013-10-04 06:17:00,
2013-10-04 02:18:00,57.2,0.0,30.01,WNW,301,2.6,7.2,0,0.00,,---,0.00,VWS V14.00,2013-10-04 06:18:00,
2013-10-04 02:19:00,57.2,0.0,30.01,WNW,301,0.0,7.2,0,0.00,,---,0.00,VWS V14.00,2013-10-04 06:19:00,
2013-10-04 02:20:00,57.1,0.0,30.01,WNW,301,3.4,5.0,0,0.00,,---,0.00,VWS V14.00,2013-10-04 06:20:00,
2013-10-04 02:21:00,57.2,0.0,30.01,West,259,0.0,5.0,0,0.00,,---,0.00,VWS V14.00,2013-10-04 06:21:00,
2013-10-04 02:22:00,57.2,0.0,30.01,West,259,0.0,5.0,0,0.00,,---,0.00,VWS V14.00,2013-10-04 06:22:00,
2013-10-04 02:23:00,57.1,0.0,30.01,WNW,302,3.0,5.0,0,0.00,,---,0.00,VWS V14.00,2013-10-04 06:23:00,
2013-10-04 02:24:00,57.2,0.0,30.01,NW,319,5.1,5.1,0,0.00,,---,0.00,VWS V14.00,2013-10-04 06:24:00,
2013-10-04 02:25:00,57.1,0.0,30.01,NNW,342,0.0,7.0,0,0.00,,---,0.00,VWS V14.00,2013-10-04 06:25:00,
2013-10-04 02:26:00,57.1,0.0,30.01,NNW,342,0.0,7.0,0,0.00,,---,0.00,VWS V14.00,2013-10-04 06:26:00,
2013-10-04 02:27:00,57.1,0.0,30.01,NNW,338,4.3,7.0,0,0.00,,---,0.00,VWS V14.00,2013-10-04 06:27:00,
2013-10-04 02:28:00,57.0,0.0,30.01,WNW,283,0.0,7.0,0,0.00,,---,0.00,VWS V14.00,2013-10-04 06:28:00,
2013-10-04 02:29:00,56.9,0.0,30.01,NNE,25,0.0,7.0,0,0.00,,---,0.00,VWS V14.00,2013-10-04 06:29:00,
2013-10-04 02:30:00,56.9,0.0,30.01,NNW,328,2.5,7.0,0,0.00,,---,0.00,VWS V14.00,2013-10-04 06:30:00,
2013-10-04 02:31:00,56.8,0.0,30.01,NNW,335,4.7,7.0,0,0.00,,---,0.00,VWS V14.00,2013-10-04 06:31:00,
2013-10-04 02:32:00,56.8,0.0,30.01,NW,316,0.0,7.0,0,0.00,,---,0.00,VWS V14.00,2013-10-04 06:32:00,
2013-10-04 02:33:00,56.8,0.0,30.01,NW,304,0.0,7.0,0,0.00,,---,0.00,VWS V14.00,2013-10-04 06:33:00,
2013-10-04 02:34:00,56.7,0.0,30.01,NNW,336,0.0,7.0,0,0.00,,---,0.00,VWS V14.00,2013-10-04 06:34:00,
2013-10-04 02:35:00,56.7,0.0,30.01,NNW,336,0.0,6.2,0,0.00,,---,0.00,VWS V14.00,2013-10-04 06:35:00,
2013-10-04 02:36:00,56.6,0.0,30.01,NNW,332,0.0,6.2,0,0.00,,---,0.00,VWS V14.00,2013-10-04 06:36:00,
2013-10-04 02:37:00,56.6,0.0,30.01,NNW,335,5.7,6.2,0,0.00,,---,0.00,VWS V14.00,2013-10-04 06:37:00,
2013-10-04 02:38:00,56.5,0.0,30.01,NNW,345,4.7,6.2,0,0.00,,---,0.00,VWS V14.00,2013-10-04 06:38:00,
2013-10-04 02:39:00,56.5,0.0,30.01,NNW,345,0.0,6.2,0,0.00,,---,0.00,VWS V14.00,2013-10-04 06:39:00,
2013-10-04 02:40:00,56.6,0.0,30.01,NNW,345,0.0,6.3,0,0.00,,---,0.00,VWS V14.00,2013-10-04 06:40:00,
2013-10-04 02:41:00,56.5,0.0,30.01,NNW,345,0.0,6.3,0,0.00,,---,0.00,VWS V14.00,2013-10-04 06:41:00,
2013-10-04 02:42:00,56.5,0.0,30.01,NNW,345,0.0,6.3,0,0.00,,---,0.00,VWS V14.00,2013-10-04 06:42:00,
2013-10-04 02:43:00,56.5,0.0,30.01,NNW,345,0.0,6.3,0,0.00,,---,0.00,VWS V14.00,2013-10-04 06:43:00,
2013-10-04 02:44:00,56.5,0.0,30.01,NNW,345,0.0,6.3,0,0.00,,---,0.00,VWS V14.00,2013-10-04 06:44:00,
2013-10-04 02:45:00,56.5,0.0,30.01,NNW,345,0.0,1.7,0,0.00,,---,0.00,VWS V14.00,2013-10-04 06:45:00,
2013-10-04 02:46:00,56.5,0.0,30.01,NNW,345,0.0,1.7,0,0.00,,---,0.00,VWS V14.00,2013-10-04 06:46:00,
2013-10-04 02:47:00,56.5,0.0,30.01,NNW,345,0.0,1.7,0,0.00,,---,0.00,VWS V14.00,2013-10-04 06:47:00,
2013-10-04 02:48:00,56.5,0.0,30.01,NW,316,0.0,1.7,0,0.00,,---,0.00,VWS V14.00,2013-10-04 06:48:00,
2013-10-04 02:49:00,56.5,0.0,30.01,NW,316,4.7,4.7,0,0.00,,---,0.00,VWS V14.00,2013-10-04 06:49:00,
2013-10-04 02:50:00,56.5,0.0,30.01,NNW,335,2.5,6.7,0,0.00,,---,0.00,VWS V14.00,2013-10-04 06:50:00,
2013-10-04 02:51:00,56.4,0.0,30.01,NNW,335,0.0,6.7,0,0.00,,---,0.00,VWS V14.00,2013-10-04 06:51:00,
2013-10-04 02:52:00,56.5,0.0,30.01,NNW,335,0.0,6.7,0,0.00,,---,0.00,VWS V14.00,2013-10-04 06:52:00,
2013-10-04 02:53:00,56.5,0.0,30.01,NNW,335,0.0,6.7,0,0.00,,---,0.00,VWS V14.00,2013-10-04 06:53:00,
2013-10-04 02:54:00,56.6,0.0,30.01,NNW,335,0.0,6.7,0,0.00,,---,0.00,VWS V14.00,2013-10-04 06:54:00,
2013-10-04 02:55:00,56.6,0.0,30.01,WNW,291,0.0,6.7,0,0.00,,---,0.00,VWS V14.00,2013-10-04 06:55:00,
2013-10-04 02:56:00,56.5,0.0,30.01,WNW,291,0.0,4.6,0,0.00,,---,0.00,VWS V14.00,2013-10-04 06:56:00,
2013-10-04 02:57:00,56.6,0.0,30.01,WNW,291,0.0,4.6,0,0.00,,---,0.00,VWS V14.00,2013-10-04 06:57:00,
2013-10-04 02:58:00,56.5,0.0,30.01,WNW,291,0.0,4.6,0,0.00,,---,0.00,VWS V14.00,2013-10-04 06:58:00,
2013-10-04 02:59:00,56.5,0.0,30.01,WNW,291,0.0,4.6,0,0.00,,---,0.00,VWS V14.00,2013-10-04 06:59:00,
2013-10-04 03:00:00,56.6,0.0,30.01,WNW,291,0.0,4.6,0,0.00,,---,0.00,VWS V14.00,2013-10-04 07:00:00,
2013-10-04 03:01:00,56.6,0.0,30.01,WNW,290,0.0,0.0,0,0.00,,---,0.00,VWS V14.00,2013-10-04 07:01:00,
2013-10-04 03:02:00,56.6,0.0,30.02,WNW,290,0.0,0.0,0,0.00,,---,0.00,VWS V14.00,2013-10-04 07:02:00,
2013-10-04 03:03:00,56.6,0.0,30.02,WNW,290,0.0,0.0,0,0.00,,---,0.00,VWS V14.00,2013-10-04 07:03:00,
2013-10-04 03:04:00,56.6,0.0,30.02,WNW,290,0.0,0.0,0,0.00,,---,0.00,VWS V14.00,2013-10-04 07:04:00,
2013-10-04 03:05:00,56.6,0.0,30.02,WNW,290,0.0,4.3,0,0.00,,---,0.00,VWS V14.00,2013-10-04 07:05:00,
2013-10-04 03:06:00,56.6,0.0,30.02,WNW,290,0.0,4.3,0,0.00,,---,0.00,VWS V14.00,2013-10-04 07:06:00,
2013-10-04 03:07:00,56.5,0.0,30.02,WNW,290,0.0,4.3,0,0.00,,---,0.00,VWS V14.00,2013-10-04 07:07:00,
2013-10-04 03:08:00,56.5,0.0,30.02,NW,316,3.5,4.3,0,0.00,,---,0.00,VWS V14.00,2013-10-04 07:08:00,
2013-10-04 03:09:00,56.4,0.0,30.02,NW,321,4.3,4.3,0,0.00,,---,0.00,VWS V14.00,2013-10-04 07:09:00,
2013-10-04 03:10:00,56.4,0.0,30.01,WNW,292,0.0,4.9,0,0.00,,---,0.00,VWS V14.00,2013-10-04 07:10:00,
2013-10-04 03:11:00,56.3,0.0,30.02,WNW,292,0.0,4.9,0,0.00,,---,0.00,VWS V14.00,2013-10-04 07:11:00,
2013-10-04 03:12:00,56.4,0.0,30.01,WNW,292,0.0,4.9,0,0.00,,---,0.00,VWS V14.00,2013-10-04 07:12:00,
2013-10-04 03:13:00,56.3,0.0,30.01,WNW,292,0.0,4.9,0,0.00,,---,0.00,VWS V14.00,2013-10-04 07:13:00,
2013-10-04 03:14:00,56.4,0.0,30.01,WNW,292,0.0,4.9,0,0.00,,---,0.00,VWS V14.00,2013-10-04 07:14:00,
2013-10-04 03:15:00,56.4,0.0,30.01,WNW,292,0.0,0.0,0,0.00,,---,0.00,VWS V14.00,2013-10-04 07:15:00,
2013-10-04 03:16:00,56.4,0.0,30.01,WNW,292,0.0,0.0,0,0.00,,---,0.00,VWS V14.00,2013-10-04 07:16:00,
2013-10-04 03:17:00,56.4,0.0,30.01,WNW,292,0.0,0.0,0,0.00,,---,0.00,VWS V14.00,2013-10-04 07:17:00,
2013-10-04 03:18:00,56.4,0.0,30.01,WNW,292,0.0,0.0,0,0.00,,---,0.00,VWS V14.00,2013-10-04 07:18:00,
2013-10-04 03:19:00,56.4,0.0,30.01,WNW,284,3.3,0.0,0,0.00,,---,0.00,VWS V14.00,2013-10-04 07:19:00,
2013-10-04 03:20:00,56.4,0.0,30.01,NW,319,0.0,3.5,0,0.00,,---,0.00,VWS V14.00,2013-10-04 07:20:00,
2013-10-04 03:21:00,56.3,0.0,30.01,NW,319,0.0,3.5,0,0.00,,---,0.00,VWS V14.00,2013-10-04 07:21:00,
2013-10-04 03:22:00,56.3,0.0,30.01,NW,319,0.0,3.5,0,0.00,,---,0.00,VWS V14.00,2013-10-04 07:22:00,
2013-10-04 03:23:00,56.2,0.0,30.01,NNW,339,0.0,3.5,0,0.00,,---,0.00,VWS V14.00,2013-10-04 07:23:00,
2013-10-04 03:24:00,56.2,0.0,30.01,NNW,339,0.0,3.5,0,0.00,,---,0.00,VWS V14.00,2013-10-04 07:24:00,
2013-10-04 03:25:00,56.2,0.0,30.01,NNW,339,0.0,4.3,0,0.00,,---,0.00,VWS V14.00,2013-10-04 07:25:00,
2013-10-04 03:26:00,56.2,0.0,30.01,NNW,339,0.0,4.3,0,0.00,,---,0.00,VWS V14.00,2013-10-04 07:26:00,
2013-10-04 03:27:00,56.2,0.0,30.01,NNW,339,0.0,4.3,0,0.00,,---,0.00,VWS V14.00,2013-10-04 07:27:00,
2013-10-04 03:28:00,56.2,0.0,30.01,NNW,339,0.0,4.3,0,0.00,,---,0.00,VWS V14.00,2013-10-04 07:28:00,
2013-10-04 03:29:00,56.2,0.0,30.01,NNW,339,0.0,4.3,0,0.00,,---,0.00,VWS V14.00,2013-10-04 07:29:00,
2013-10-04 03:30:00,56.1,0.0,30.01,NNW,339,0.0,5.2,0,0.00,,---,0.00,VWS V14.00,2013-10-04 07:30:00,
2013-10-04 03:31:00,56.1,0.0,30.01,NNW,339,0.0,5.2,0,0.00,,---,0.00,VWS V14.00,2013-10-04 07:31:00,
2013-10-04 03:32:00,56.1,0.0,30.01,NNW,339,0.0,5.2,0,0.00,,---,0.00,VWS V14.00,2013-10-04 07:32:00,
2013-10-04 03:33:00,56.0,0.0,30.01,NNW,339,0.0,5.2,0,0.00,,---,0.00,VWS V14.00,2013-10-04 07:33:00,
2013-10-04 03:34:00,55.9,0.0,30.01,NNW,339,0.0,5.2,0,0.00,,---,0.00,VWS V14.00,2013-10-04 07:34:00,
2013-10-04 03:35:00,55.9,0.0,30.01,NNW,343,0.0,3.1,0,0.00,,---,0.00,VWS V14.00,2013-10-04 07:35:00,
2013-10-04 03:36:00,55.8,0.0,30.01,NNW,338,2.5,3.1,0,0.00,,---,0.00,VWS V14.00,2013-10-04 07:36:00,
2013-10-04 03:37:00,55.7,0.0,30.01,NNW,338,0.0,3.1,0,0.00,,---,0.00,VWS V14.00,2013-10-04 07:37:00,
2013-10-04 03:38:00,55.7,0.0,30.01,NNW,338,0.0,3.1,0,0.00,,---,0.00,VWS V14.00,2013-10-04 07:38:00,
2013-10-04 03:39:00,55.7,0.0,30.01,NNW,338,0.0,3.1,0,0.00,,---,0.00,VWS V14.00,2013-10-04 07:39:00,
2013-10-04 03:40:00,55.7,0.0,30.01,NW,326,3.2,3.2,0,0.00,,---,0.00,VWS V14.00,2013-10-04 07:40:00,
2013-10-04 03:41:00,55.8,0.0,30.02,North,354,0.0,2.5,0,0.00,,---,0.00,VWS V14.00,2013-10-04 07:41:00,
2013-10-04 03:42:00,55.8,0.0,30.02,North,354,0.0,2.5,0,0.00,,---,0.00,VWS V14.00,2013-10-04 07:42:00,
2013-10-04 03:43:00,55.6,0.0,30.02,North,354,0.0,2.5,0,0.00,,---,0.00,VWS V14.00,2013-10-04 07:43:00,
2013-10-04 03:44:00,55.5,0.0,30.02,North,354,0.0,2.5,0,0.00,,---,0.00,VWS V14.00,2013-10-04 07:44:00,
2013-10-04 03:45:00,55.4,0.0,30.02,WNW,291,0.0,4.3,0,0.00,,---,0.00,VWS V14.00,2013-10-04 07:45:00,
2013-10-04 03:46:00,55.4,0.0,30.02,WNW,291,0.0,4.3,0,0.00,,---,0.00,VWS V14.00,2013-10-04 07:46:00,
2013-10-04 03:47:00,55.4,0.0,30.02,West,264,3.5,4.3,0,0.00,,---,0.00,VWS V14.00,2013-10-04 07:47:00,
2013-10-04 03:48:00,55.4,0.0,30.02,WNW,295,0.0,4.3,0,0.00,,---,0.00,VWS V14.00,2013-10-04 07:48:00,
2013-10-04 03:49:00,55.4,0.0,30.02,NW,325,2.9,4.3,0,0.00,,---,0.00,VWS V14.00,2013-10-04 07:49:00,
2013-10-04 03:50:00,55.4,0.0,30.02,NNW,342,3.0,5.9,0,0.00,,---,0.00,VWS V14.00,2013-10-04 07:50:00,
2013-10-04 03:51:00,55.4,0.0,30.02,NNW,342,0.0,5.9,0,0.00,,---,0.00,VWS V14.00,2013-10-04 07:51:00,
2013-10-04 03:52:00,55.3,0.0,30.02,NNW,342,0.0,5.9,0,0.00,,---,0.00,VWS V14.00,2013-10-04 07:52:00,
2013-10-04 03:53:00,55.3,0.0,30.02,NNW,329,6.4,6.4,0,0.00,,---,0.00,VWS V14.00,2013-10-04 07:53:00,
2013-10-04 03:54:00,55.3,0.0,30.02,NNW,339,3.4,5.9,0,0.00,,---,0.00,VWS V14.00,2013-10-04 07:54:00,
2013-10-04 03:55:00,55.3,0.0,30.01,NW,326,0.0,6.5,0,0.00,,---,0.00,VWS V14.00,2013-10-04 07:55:00,
2013-10-04 03:56:00,55.2,0.0,30.02,NNE,15,0.0,6.5,0,0.00,,---,0.00,VWS V14.00,2013-10-04 07:56:00,
2013-10-04 03:57:00,55.2,0.0,30.02,NNW,335,0.0,6.5,0,0.00,,---,0.00,VWS V14.00,2013-10-04 07:57:00,
2013-10-04 03:58:00,55.2,0.0,30.02,NW,316,0.0,6.5,0,0.00,,---,0.00,VWS V14.00,2013-10-04 07:58:00,
2013-10-04 03:59:00,55.2,0.0,30.02,West,277,2.9,6.5,0,0.00,,---,0.00,VWS V14.00,2013-10-04 07:59:00,
2013-10-04 04:00:00,55.2,0.0,30.02,WNW,294,0.0,6.5,0,0.00,,---,0.00,VWS V14.00,2013-10-04 08:00:00,
2013-10-04 04:01:00,55.2,0.0,30.02,WNW,294,0.0,6.6,0,0.00,,---,0.00,VWS V14.00,2013-10-04 08:01:00,
2013-10-04 04:02:00,55.2,0.0,30.02,WNW,294,3.5,6.6,0,0.00,,---,0.00,VWS V14.00,2013-10-04 08:02:00,
2013-10-04 04:03:00,55.2,0.0,30.02,NW,308,0.0,6.6,0,0.00,,---,0.00,VWS V14.00,2013-10-04 08:03:00,
2013-10-04 04:04:00,55.1,0.0,30.02,NNW,342,2.4,6.6,0,0.00,,---,0.00,VWS V14.00,2013-10-04 08:04:00,
2013-10-04 04:05:00,55.1,0.0,30.02,NW,321,0.0,4.6,0,0.00,,---,0.00,VWS V14.00,2013-10-04 08:05:00,
2013-10-04 04:06:00,55.1,0.0,30.02,NW,325,0.0,4.6,0,0.00,,---,0.00,VWS V14.00,2013-10-04 08:06:00,
2013-10-04 04:07:00,55.0,0.0,30.02,NW,308,3.5,4.6,0,0.00,,---,0.00,VWS V14.00,2013-10-04 08:07:00,
2013-10-04 04:08:00,54.9,0.0,30.02,North,359,4.8,4.8,0,0.00,,---,0.00,VWS V14.00,2013-10-04 08:08:00,
2013-10-04 04:09:00,54.9,0.0,30.02,NW,309,3.1,4.6,0,0.00,,---,0.00,VWS V14.00,2013-10-04 08:09:00,
2013-10-04 04:10:00,54.8,0.0,30.02,NW,309,0.0,6.5,0,0.00,,---,0.00,VWS V14.00,2013-10-04 08:10:00,
2013-10-04 04:11:00,54.7,0.0,30.02,NW,318,3.5,6.5,0,0.00,,---,0.00,VWS V14.00,2013-10-04 08:11:00,
2013-10-04 04:12:00,54.7,0.0,30.02,NW,318,0.0,6.5,0,0.00,,---,0.00,VWS V14.00,2013-10-04 08:12:00,
2013-10-04 04:13:00,54.6,0.0,30.02,NNW,340,0.0,6.5,0,0.00,,---,0.00,VWS V14.00,2013-10-04 08:13:00,
2013-10-04 04:14:00,54.6,0.0,30.02,NNW,329,0.0,6.5,0,0.00,,---,0.00,VWS V14.00,2013-10-04 08:14:00,
2013-10-04 04:15:00,54.6,0.0,30.02,West,276,2.6,7.3,0,0.00,,---,0.00,VWS V14.00,2013-10-04 08:15:00,
2013-10-04 04:16:00,54.5,0.0,30.02,NNW,332,0.0,7.3,0,0.00,,---,0.00,VWS V14.00,2013-10-04 08:16:00,
2013-10-04 04:17:00,54.5,0.0,30.02,NNW,332,0.0,7.3,0,0.00,,---,0.00,VWS V14.00,2013-10-04 08:17:00,
2013-10-04 04:18:00,54.5,0.0,30.02,NNW,332,0.0,7.3,0,0.00,,---,0.00,VWS V14.00,2013-10-04 08:18:00,
2013-10-04 04:19:00,54.4,0.0,30.02,NNW,332,0.0,7.3,0,0.00,,---,0.00,VWS V14.00,2013-10-04 08:19:00,
2013-10-04 04:20:00,54.4,0.0,30.02,NNW,332,0.0,4.4,0,0.00,,---,0.00,VWS V14.00,2013-10-04 08:20:00,
2013-10-04 04:21:00,54.4,0.0,30.02,NNW,332,0.0,4.4,0,0.00,,---,0.00,VWS V14.00,2013-10-04 08:21:00,
2013-10-04 04:22:00,54.4,0.0,30.02,NNW,336,0.0,4.4,0,0.00,,---,0.00,VWS V14.00,2013-10-04 08:22:00,
2013-10-04 04:23:00,54.4,0.0,30.02,North,352,0.0,4.4,0,0.00,,---,0.00,VWS V14.00,2013-10-04 08:23:00,
2013-10-04 04:24:00,54.4,0.0,30.02,North,352,0.0,4.4,0,0.00,,---,0.00,VWS V14.00,2013-10-04 08:24:00,
2013-10-04 04:25:00,54.3,0.0,30.02,NW,307,0.0,5.5,0,0.00,,---,0.00,VWS V14.00,2013-10-04 08:25:00,
2013-10-04 04:26:00,54.3,0.0,30.02,NW,307,0.0,5.5,0,0.00,,---,0.00,VWS V14.00,2013-10-04 08:26:00,
2013-10-04 04:27:00,54.3,0.0,30.02,NW,307,0.0,5.5,0,0.00,,---,0.00,VWS V14.00,2013-10-04 08:27:00,
2013-10-04 04:28:00,54.3,0.0,30.02,NW,307,0.0,5.5,0,0.00,,---,0.00,VWS V14.00,2013-10-04 08:28:00,
2013-10-04 04:29:00,54.4,0.0,30.01,NW,307,0.0,5.5,0,0.00,,---,0.00,VWS V14.00,2013-10-04 08:29:00,
2013-10-04 04:30:00,54.4,0.0,30.02,NW,307,0.0,0.0,0,0.00,,---,0.00,VWS V14.00,2013-10-04 08:30:00,
2013-10-04 04:31:00,54.4,0.0,30.02,NW,307,0.0,0.0,0,0.00,,---,0.00,VWS V14.00,2013-10-04 08:31:00,
2013-10-04 04:32:00,54.5,0.0,30.01,NW,307,0.0,0.0,0,0.00,,---,0.00,VWS V14.00,2013-10-04 08:32:00,
2013-10-04 04:33:00,54.5,0.0,30.02,NW,307,0.0,0.0,0,0.00,,---,0.00,VWS V14.00,2013-10-04 08:33:00,
2013-10-04 04:34:00,54.5,0.0,30.02,NW,307,0.0,0.0,0,0.00,,---,0.00,VWS V14.00,2013-10-04 08:34:00,
2013-10-04 04:35:00,54.5,0.0,30.02,NW,307,0.0,0.0,0,0.00,,---,0.00,VWS V14.00,2013-10-04 08:35:00,
2013-10-04 04:36:00,54.5,0.0,30.02,NW,307,0.0,0.0,0,0.00,,---,0.00,VWS V14.00,2013-10-04 08:36:00,
2013-10-04 04:37:00,54.6,0.0,30.02,NW,307,0.0,0.0,0,0.00,,---,0.00,VWS V14.00,2013-10-04 08:37:00,
2013-10-04 04:38:00,54.6,0.0,30.02,NW,307,0.0,0.0,0,0.00,,---,0.00,VWS V14.00,2013-10-04 08:38:00,
2013-10-04 04:39:00,54.5,0.0,30.02,NW,307,0.0,0.0,0,0.00,,---,0.00,VWS V14.00,2013-10-04 08:39:00,
2013-10-04 04:40:00,54.6,0.0,30.02,NW,307,0.0,0.0,0,0.00,,---,0.00,VWS V14.00,2013-10-04 08:40:00,
2013-10-04 04:41:00,54.6,0.0,30.02,NW,307,0.0,0.0,0,0.00,,---,0.00,VWS V14.00,2013-10-04 08:41:00,
2013-10-04 04:42:00,54.5,0.0,30.02,NW,307,0.0,0.0,0,0.00,,---,0.00,VWS V14.00,2013-10-04 08:42:00,
2013-10-04 04:43:00,54.4,0.0,30.02,NW,307,0.0,0.0,0,0.00,,---,0.00,VWS V14.00,2013-10-04 08:43:00,
2013-10-04 04:44:00,54.4,0.0,30.02,NW,307,0.0,0.0,0,0.00,,---,0.00,VWS V14.00,2013-10-04 08:44:00,
2013-10-04 04:45:00,54.3,0.0,30.02,NW,307,0.0,1.7,0,0.00,,---,0.00,VWS V14.00,2013-10-04 08:45:00,
2013-10-04 04:46:00,54.3,0.0,30.02,NW,325,4.2,4.2,0,0.00,,---,0.00,VWS V14.00,2013-10-04 08:46:00,
2013-10-04 04:47:00,54.3,0.0,30.02,NW,319,0.0,1.7,0,0.00,,---,0.00,VWS V14.00,2013-10-04 08:47:00,
2013-10-04 04:48:00,54.2,0.0,30.02,NW,319,0.0,1.7,0,0.00,,---,0.00,VWS V14.00,2013-10-04 08:48:00,
2013-10-04 04:49:00,54.2,0.0,30.02,NW,319,0.0,1.7,0,0.00,,---,0.00,VWS V14.00,2013-10-04 08:49:00,
2013-10-04 04:50:00,54.2,0.0,30.02,NW,319,0.0,4.3,0,0.00,,---,0.00,VWS V14.00,2013-10-04 08:50:00,
2013-10-04 04:51:00,54.2,0.0,30.02,NW,319,0.0,4.3,0,0.00,,---,0.00,VWS V14.00,2013-10-04 08:51:00,
2013-10-04 04:52:00,54.2,0.0,30.02,NW,319,0.0,4.3,0,0.00,,---,0.00,VWS V14.00,2013-10-04 08:52:00,
2013-10-04 04:53:00,54.1,0.0,30.02,NW,321,0.0,4.3,0,0.00,,---,0.00,VWS V14.00,2013-10-04 08:53:00,
2013-10-04 04:54:00,54.1,0.0,30.02,NNW,330,0.0,4.3,0,0.00,,---,0.00,VWS V14.00,2013-10-04 08:54:00,
2013-10-04 04:55:00,54.0,0.0,30.02,NNW,330,0.0,2.9,0,0.00,,---,0.00,VWS V14.00,2013-10-04 08:55:00,
2013-10-04 04:56:00,54.0,0.0,30.02,NNW,330,0.0,2.9,0,0.00,,---,0.00,VWS V14.00,2013-10-04 08:56:00,
2013-10-04 04:57:00,54.1,0.0,30.02,NNW,330,0.0,2.9,0,0.00,,---,0.00,VWS V14.00,2013-10-04 08:57:00,
2013-10-04 04:58:00,54.0,0.0,30.03,NNW,347,3.3,3.3,0,0.00,,---,0.00,VWS V14.00,2013-10-04 08:58:00,
2013-10-04 04:59:00,54.0,0.0,30.03,NW,307,0.0,2.9,0,0.00,,---,0.00,VWS V14.00,2013-10-04 08:59:00,
2013-10-04 05:00:00,54.0,0.0,30.02,NW,307,0.0,2.9,0,0.00,,---,0.00,VWS V14.00,2013-10-04 09:00:00,
2013-10-04 05:01:00,54.0,0.0,30.02,NW,307,0.0,4.7,0,0.00,,---,0.00,VWS V14.00,2013-10-04 09:01:00,
2013-10-04 05:02:00,53.9,0.0,30.02,NW,307,0.0,4.7,0,0.00,,---,0.00,VWS V14.00,2013-10-04 09:02:00,
2013-10-04 05:03:00,53.9,0.0,30.02,NW,307,0.0,4.7,0,0.00,,---,0.00,VWS V14.00,2013-10-04 09:03:00,
2013-10-04 05:04:00,53.9,0.0,30.02,NW,307,0.0,4.7,0,0.00,,---,0.00,VWS V14.00,2013-10-04 09:04:00,
2013-10-04 05:05:00,53.9,0.0,30.02,NW,307,0.0,4.7,0,0.00,,---,0.00,VWS V14.00,2013-10-04 09:05:00,
2013-10-04 05:06:00,53.8,0.0,30.03,NW,307,0.0,0.0,0,0.00,,---,0.00,VWS V14.00,2013-10-04 09:06:00,
2013-10-04 05:07:00,53.8,0.0,30.03,NW,307,0.0,0.0,0,0.00,,---,0.00,VWS V14.00,2013-10-04 09:07:00,
2013-10-04 05:08:00,53.8,0.0,30.03,NW,307,0.0,0.0,0,0.00,,---,0.00,VWS V14.00,2013-10-04 09:08:00,
2013-10-04 05:09:00,53.8,0.0,30.03,NW,308,0.0,0.0,0,0.00,,---,0.00,VWS V14.00,2013-10-04 09:09:00,
2013-10-04 05:10:00,53.8,0.0,30.03,NW,308,0.0,4.7,0,0.00,,---,0.00,VWS V14.00,2013-10-04 09:10:00,
2013-10-04 05:11:00,53.8,0.0,30.03,NW,308,0.0,4.7,0,0.00,,---,0.00,VWS V14.00,2013-10-04 09:11:00,
2013-10-04 05:12:00,53.8,0.0,30.03,NW,308,0.0,4.7,0,0.00,,---,0.00,VWS V14.00,2013-10-04 09:12:00,
2013-10-04 05:13:00,53.8,0.0,30.03,NW,308,0.0,4.7,0,0.00,,---,0.00,VWS V14.00,2013-10-04 09:13:00,
2013-10-04 05:14:00,53.8,0.0,30.03,WSW,257,0.0,4.7,0,0.00,,---,0.00,VWS V14.00,2013-10-04 09:14:00,
2013-10-04 05:15:00,53.7,0.0,30.03,WSW,257,0.0,3.5,0,0.00,,---,0.00,VWS V14.00,2013-10-04 09:15:00,
2013-10-04 05:16:00,53.6,0.0,30.03,WSW,257,0.0,3.5,0,0.00,,---,0.00,VWS V14.00,2013-10-04 09:16:00,
2013-10-04 05:17:00,53.6,0.0,30.03,WSW,257,0.0,3.5,0,0.00,,---,0.00,VWS V14.00,2013-10-04 09:17:00,
2013-10-04 05:18:00,53.5,0.0,30.03,WSW,257,0.0,3.5,0,0.00,,---,0.00,VWS V14.00,2013-10-04 09:18:00,
2013-10-04 05:19:00,53.6,0.0,30.03,WSW,257,0.0,3.5,0,0.00,,---,0.00,VWS V14.00,2013-10-04 09:19:00,
2013-10-04 05:20:00,53.6,0.0,30.03,WSW,257,0.0,0.0,0,0.00,,---,0.00,VWS V14.00,2013-10-04 09:20:00,
2013-10-04 05:21:00,53.6,0.0,30.03,WSW,257,0.0,0.0,0,0.00,,---,0.00,VWS V14.00,2013-10-04 09:21:00,
2013-10-04 05:22:00,53.7,0.0,30.03,WSW,257,0.0,0.0,0,0.00,,---,0.00,VWS V14.00,2013-10-04 09:22:00,
2013-10-04 05:23:00,53.7,0.0,30.03,WSW,257,0.0,0.0,0,0.00,,---,0.00,VWS V14.00,2013-10-04 09:23:00,
2013-10-04 05:24:00,53.6,0.0,30.03,WSW,257,0.0,0.0,0,0.00,,---,0.00,VWS V14.00,2013-10-04 09:24:00,
2013-10-04 05:25:00,53.6,0.0,30.03,WSW,257,0.0,0.0,0,0.00,,---,0.00,VWS V14.00,2013-10-04 09:25:00,
2013-10-04 05:26:00,53.7,0.0,30.03,WSW,257,0.0,0.0,0,0.00,,---,0.00,VWS V14.00,2013-10-04 09:26:00,
2013-10-04 05:27:00,53.7,0.0,30.03,WSW,257,0.0,0.0,0,0.00,,---,0.00,VWS V14.00,2013-10-04 09:27:00,
2013-10-04 05:28:00,53.8,0.0,30.03,WSW,257,0.0,0.0,0,0.00,,---,0.00,VWS V14.00,2013-10-04 09:28:00,
2013-10-04 05:29:00,53.8,0.0,30.03,WSW,257,0.0,0.0,0,0.00,,---,0.00,VWS V14.00,2013-10-04 09:29:00,
2013-10-04 05:30:00,53.8,0.0,30.03,WSW,257,0.0,1.9,0,0.00,,---,0.00,VWS V14.00,2013-10-04 09:30:00,
2013-10-04 05:31:00,53.8,0.0,30.03,WSW,257,0.0,1.9,0,0.00,,---,0.00,VWS V14.00,2013-10-04 09:31:00,
2013-10-04 05:32:00,53.9,0.0,30.03,WSW,257,0.0,1.9,0,0.00,,---,0.00,VWS V14.00,2013-10-04 09:32:00,
2013-10-04 05:33:00,53.8,0.0,30.03,WSW,257,0.0,1.9,0,0.00,,---,0.00,VWS V14.00,2013-10-04 09:33:00,
2013-10-04 05:34:00,53.7,0.0,30.03,WSW,257,0.0,1.9,0,0.00,,---,0.00,VWS V14.00,2013-10-04 09:34:00,
2013-10-04 05:35:00,53.7,0.0,30.03,WSW,257,0.0,0.0,0,0.00,,---,0.00,VWS V14.00,2013-10-04 09:35:00,
2013-10-04 05:36:00,53.7,0.0,30.03,WSW,257,0.0,0.0,0,0.00,,---,0.00,VWS V14.00,2013-10-04 09:36:00,
2013-10-04 05:37:00,53.7,0.0,30.03,WSW,257,0.0,0.0,0,0.00,,---,0.00,VWS V14.00,2013-10-04 09:37:00,
2013-10-04 05:38:00,53.7,0.0,30.03,WSW,257,0.0,0.0,0,0.00,,---,0.00,VWS V14.00,2013-10-04 09:38:00,
2013-10-04 05:39:00,53.6,0.0,30.03,WSW,257,0.0,0.0,0,0.00,,---,0.00,VWS V14.00,2013-10-04 09:39:00,
2013-10-04 05:40:00,53.6,0.0,30.03,WSW,257,0.0,0.0,0,0.00,,---,0.00,VWS V14.00,2013-10-04 09:40:00,
2013-10-04 05:41:00,53.6,0.0,30.03,WSW,257,0.0,0.0,0,0.00,,---,0.00,VWS V14.00,2013-10-04 09:41:00,
2013-10-04 05:42:00,53.5,0.0,30.03,NW,319,4.3,0.0,0,0.00,,---,0.00,VWS V14.00,2013-10-04 09:42:00,
2013-10-04 05:43:00,53.4,0.0,30.03,WNW,285,0.0,0.0,0,0.00,,---,0.00,VWS V14.00,2013-10-04 09:43:00,
2013-10-04 05:44:00,53.3,0.0,30.03,WNW,285,0.0,0.0,0,0.00,,---,0.00,VWS V14.00,2013-10-04 09:44:00,
2013-10-04 05:45:00,53.2,0.0,30.03,WNW,285,0.0,5.7,0,0.00,,---,0.00,VWS V14.00,2013-10-04 09:45:00,
2013-10-04 05:46:00,53.2,0.0,30.03,WNW,285,0.0,5.7,0,0.00,,---,0.00,VWS V14.00,2013-10-04 09:46:00,
2013-10-04 05:47:00,53.1,0.0,30.03,WNW,285,0.0,5.7,0,0.00,,---,0.00,VWS V14.00,2013-10-04 09:47:00,
2013-10-04 05:48:00,53.0,0.0,30.03,WNW,285,0.0,5.7,0,0.00,,---,0.00,VWS V14.00,2013-10-04 09:48:00,
2013-10-04 05:49:00,53.0,0.0,30.03,NNW,345,0.0,5.7,0,0.00,,---,0.00,VWS V14.00,2013-10-04 09:49:00,
2013-10-04 05:50:00,52.9,0.0,30.03,NNW,345,0.0,4.2,0,0.00,,---,0.00,VWS V14.00,2013-10-04 09:50:00,
2013-10-04 05:51:00,52.9,0.0,30.03,NNW,345,0.0,4.2,0,0.00,,---,0.00,VWS V14.00,2013-10-04 09:51:00,
2013-10-04 05:52:00,52.9,0.0,30.03,NNW,345,0.0,4.2,0,0.00,,---,0.00,VWS V14.00,2013-10-04 09:52:00,
2013-10-04 05:53:00,53.0,0.0,30.03,NNW,345,0.0,4.2,0,0.00,,---,0.00,VWS V14.00,2013-10-04 09:53:00,
2013-10-04 05:54:00,52.9,0.0,30.03,NNW,345,0.0,4.2,0,0.00,,---,0.00,VWS V14.00,2013-10-04 09:54:00,
2013-10-04 05:55:00,53.0,0.0,30.03,NNW,345,0.0,2.9,0,0.00,,---,0.00,VWS V14.00,2013-10-04 09:55:00,
2013-10-04 05:56:00,52.9,0.0,30.03,NNW,345,0.0,2.9,0,0.00,,---,0.00,VWS V14.00,2013-10-04 09:56:00,
2013-10-04 05:57:00,52.9,0.0,30.03,NNW,345,0.0,2.9,0,0.00,,---,0.00,VWS V14.00,2013-10-04 09:57:00,
2013-10-04 05:58:00,52.9,0.0,30.03,NNW,345,0.0,2.9,0,0.00,,---,0.00,VWS V14.00,2013-10-04 09:58:00,
2013-10-04 05:59:00,52.9,0.0,30.03,NNW,345,0.0,2.9,0,0.00,,---,0.00,VWS V14.00,2013-10-04 09:59:00,
2013-10-04 06:00:00,52.9,0.0,30.03,NNW,345,0.0,2.0,0,0.00,,---,0.00,VWS V14.00,2013-10-04 10:00:00,
2013-10-04 06:01:00,52.9,0.0,30.03,NNW,345,0.0,2.0,0,0.00,,---,0.00,VWS V14.00,2013-10-04 10:01:00,
2013-10-04 06:02:00,52.8,0.0,30.03,NNW,330,4.4,4.4,0,0.00,,---,0.00,VWS V14.00,2013-10-04 10:02:00,
2013-10-04 06:03:00,52.8,0.0,30.03,North,359,0.0,2.0,0,0.00,,---,0.00,VWS V14.00,2013-10-04 10:03:00,
2013-10-04 06:04:00,52.8,0.0,30.03,North,353,0.0,2.0,0,0.00,,---,0.00,VWS V14.00,2013-10-04 10:04:00,
2013-10-04 06:05:00,52.7,0.0,30.03,NNW,346,0.0,2.0,0,0.00,,---,0.00,VWS V14.00,2013-10-04 10:05:00,
2013-10-04 06:06:00,52.6,0.0,30.03,NNW,346,0.0,6.1,0,0.00,,---,0.00,VWS V14.00,2013-10-04 10:06:00,
2013-10-04 06:07:00,52.7,0.0,30.03,North,353,5.5,6.1,0,0.00,,---,0.00,VWS V14.00,2013-10-04 10:07:00,
2013-10-04 06:08:00,52.7,0.0,30.03,West,260,0.0,6.1,0,0.00,,---,0.00,VWS V14.00,2013-10-04 10:08:00,
2013-10-04 06:09:00,52.7,0.0,30.03,West,260,0.0,6.1,0,0.00,,---,0.00,VWS V14.00,2013-10-04 10:09:00,
2013-10-04 06:10:00,52.7,0.0,30.03,West,260,0.0,6.1,0,0.00,,---,0.00,VWS V14.00,2013-10-04 10:10:00,
2013-10-04 06:11:00,52.8,0.0,30.03,WNW,285,0.0,6.4,0,0.00,,---,0.00,VWS V14.00,2013-10-04 10:11:00,
2013-10-04 06:12:00,52.7,0.0,30.03,WNW,285,0.0,6.4,0,0.00,,---,0.00,VWS V14.00,2013-10-04 10:12:00,
2013-10-04 06:13:00,52.8,0.0,30.03,WNW,285,0.0,6.4,0,0.00,,---,0.00,VWS V14.00,2013-10-04 10:13:00,
2013-10-04 06:14:00,52.8,0.0,30.03,WNW,285,0.0,6.4,0,0.00,,---,0.00,VWS V14.00,2013-10-04 10:14:00,
2013-10-04 06:15:00,52.8,0.0,30.03,WNW,285,0.0,3.3,0,0.00,,---,0.00,VWS V14.00,2013-10-04 10:15:00,
2013-10-04 06:16:00,52.9,0.0,30.03,WNW,285,0.0,3.3,0,0.00,,---,0.00,VWS V14.00,2013-10-04 10:16:00,
2013-10-04 06:17:00,52.9,0.0,30.03,NW,304,0.0,3.3,0,0.00,,---,0.00,VWS V14.00,2013-10-04 10:17:00,
2013-10-04 06:18:00,52.9,0.0,30.03,NW,304,0.0,3.3,0,0.00,,---,0.00,VWS V14.00,2013-10-04 10:18:00,
2013-10-04 06:19:00,52.9,0.0,30.03,NW,304,0.0,3.3,0,0.00,,---,0.00,VWS V14.00,2013-10-04 10:19:00,
2013-10-04 06:20:00,53.0,0.0,30.03,NW,304,0.0,3.2,0,0.00,,---,0.00,VWS V14.00,2013-10-04 10:20:00,
2013-10-04 06:21:00,53.0,0.0,30.04,NW,304,0.0,3.2,0,0.00,,---,0.00,VWS V14.00,2013-10-04 10:21:00,
2013-10-04 06:22:00,53.0,0.0,30.04,NW,304,0.0,3.2,0,0.00,,---,0.00,VWS V14.00,2013-10-04 10:22:00,
2013-10-04 06:23:00,53.0,0.0,30.04,NW,304,0.0,3.2,0,0.00,,---,0.00,VWS V14.00,2013-10-04 10:23:00,
2013-10-04 06:24:00,53.0,0.0,30.04,NW,319,0.0,3.2,0,0.00,,---,0.00,VWS V14.00,2013-10-04 10:24:00,
2013-10-04 06:25:00,53.0,0.0,30.04,NW,315,0.0,6.2,0,0.00,,---,0.00,VWS V14.00,2013-10-04 10:25:00,
2013-10-04 06:26:00,53.0,0.0,30.04,NW,315,0.0,6.2,0,0.00,,---,0.00,VWS V14.00,2013-10-04 10:26:00,
2013-10-04 06:27:00,53.1,0.0,30.04,NW,315,0.0,6.2,0,0.00,,---,0.00,VWS V14.00,2013-10-04 10:27:00,
2013-10-04 06:28:00,53.2,0.0,30.04,North,3,3.1,6.2,0,0.00,,---,0.00,VWS V14.00,2013-10-04 10:28:00,
2013-10-04 06:29:00,53.4,0.0,30.04,NNW,332,0.0,6.2,0,0.00,,---,0.00,VWS V14.00,2013-10-04 10:29:00,
2013-10-04 06:30:00,53.4,0.0,30.04,NW,326,0.0,3.4,0,0.00,,---,0.00,VWS V14.00,2013-10-04 10:30:00,
2013-10-04 06:31:00,53.4,0.0,30.04,NW,326,0.0,3.4,0,0.00,,---,0.00,VWS V14.00,2013-10-04 10:31:00,
2013-10-04 06:32:00,53.4,0.0,30.04,NW,326,0.0,3.4,0,0.00,,---,0.00,VWS V14.00,2013-10-04 10:32:00,
2013-10-04 06:33:00,53.4,0.0,30.04,NNW,339,4.3,4.3,0,0.00,,---,0.00,VWS V14.00,2013-10-04 10:33:00,
2013-10-04 06:34:00,53.4,0.0,30.04,NW,318,4.5,4.5,0,0.00,,---,0.00,VWS V14.00,2013-10-04 10:34:00,
2013-10-04 06:35:00,53.4,0.0,30.04,NW,326,5.0,7.0,0,0.00,,---,0.00,VWS V14.00,2013-10-04 10:35:00,
2013-10-04 06:36:00,53.5,0.0,30.04,WNW,290,6.7,7.0,0,0.00,,---,0.00,VWS V14.00,2013-10-04 10:36:00,
2013-10-04 06:37:00,53.5,0.0,30.04,North,350,5.7,7.0,0,0.00,,---,0.00,VWS V14.00,2013-10-04 10:37:00,
2013-10-04 06:38:00,53.5,0.0,30.04,NNW,330,0.0,7.0,0,0.00,,---,0.00,VWS V14.00,2013-10-04 10:38:00,
2013-10-04 06:39:00,53.7,0.0,30.04,North,1,0.0,7.0,0,0.00,,---,0.00,VWS V14.00,2013-10-04 10:39:00,
2013-10-04 06:40:00,53.7,0.0,30.04,WNW,302,5.0,8.1,0,0.00,,---,0.00,VWS V14.00,2013-10-04 10:40:00,
2013-10-04 06:41:00,53.8,0.0,30.04,NW,315,5.1,8.1,0,0.00,,---,0.00,VWS V14.00,2013-10-04 10:41:00,
2013-10-04 06:42:00,53.9,0.0,30.04,NNW,328,3.5,8.1,0,0.00,,---,0.00,VWS V14.00,2013-10-04 10:42:00,
2013-10-04 06:43:00,54.0,0.0,30.04,NNW,338,3.5,8.1,0,0.00,,---,0.00,VWS V14.00,2013-10-04 10:43:00,
2013-10-04 06:44:00,54.1,0.0,30.04,NW,315,0.0,8.1,0,0.00,,---,0.00,VWS V14.00,2013-10-04 10:44:00,
2013-10-04 06:45:00,54.1,0.0,30.04,North,359,0.0,6.8,0,0.00,,---,0.00,VWS V14.00,2013-10-04 10:45:00,
2013-10-04 06:46:00,54.0,0.0,30.04,North,349,6.2,6.8,0,0.00,,---,0.00,VWS V14.00,2013-10-04 10:46:00,
2013-10-04 06:47:00,54.1,0.0,30.05,NNE,28,2.8,6.8,0,0.00,,---,0.00,VWS V14.00,2013-10-04 10:47:00,
2013-10-04 06:48:00,54.1,0.0,30.04,NNW,332,1.9,6.8,0,0.00,,---,0.00,VWS V14.00,2013-10-04 10:48:00,
2013-10-04 06:49:00,54.1,0.0,30.05,NNW,345,0.0,6.8,0,0.00,,---,0.00,VWS V14.00,2013-10-04 10:49:00,
2013-10-04 06:50:00,54.2,0.0,30.05,NW,325,2.6,8.3,0,0.00,,---,0.00,VWS V14.00,2013-10-04 10:50:00,
2013-10-04 06:51:00,54.3,0.0,30.05,NW,311,1.7,8.3,0,0.00,,---,0.00,VWS V14.00,2013-10-04 10:51:00,
2013-10-04 06:52:00,54.4,0.0,30.05,North,359,5.5,8.3,0,0.00,,---,0.00,VWS V14.00,2013-10-04 10:52:00,
2013-10-04 06:53:00,54.4,0.0,30.05,NNE,25,0.0,8.3,0,0.00,,---,0.00,VWS V14.00,2013-10-04 10:53:00,
2013-10-04 06:54:00,54.6,0.0,30.05,NNE,25,0.0,8.3,0,0.00,,---,0.00,VWS V14.00,2013-10-04 10:54:00,
2013-10-04 06:55:00,54.8,0.0,30.05,NNE,25,0.0,6.6,0,0.00,,---,0.00,VWS V14.00,2013-10-04 10:55:00,
2013-10-04 06:56:00,54.9,0.0,30.05,WSW,239,0.0,6.6,0,0.00,,---,0.00,VWS V14.00,2013-10-04 10:56:00,
2013-10-04 06:57:00,55.0,0.0,30.05,WSW,239,0.0,6.6,0,0.00,,---,0.00,VWS V14.00,2013-10-04 10:57:00,
2013-10-04 06:58:00,55.0,0.0,30.05,NW,323,2.5,6.6,0,0.00,,---,0.00,VWS V14.00,2013-10-04 10:58:00,
2013-10-04 06:59:00,55.1,0.0,30.05,NNW,342,0.0,6.6,0,0.00,,---,0.00,VWS V14.00,2013-10-04 10:59:00,
2013-10-04 07:00:00,55.3,0.0,30.05,NNW,342,0.0,4.5,0,0.00,,---,0.00,VWS V14.00,2013-10-04 11:00:00,
2013-10-04 07:01:00,55.4,0.0,30.05,WNW,291,0.0,4.5,0,0.00,,---,0.00,VWS V14.00,2013-10-04 11:01:00,
2013-10-04 07:02:00,55.5,0.0,30.05,WNW,291,0.0,4.5,0,0.00,,---,0.00,VWS V14.00,2013-10-04 11:02:00,
2013-10-04 07:03:00,55.7,0.0,30.05,NNW,336,0.0,4.5,0,0.00,,---,0.00,VWS V14.00,2013-10-04 11:03:00,
2013-10-04 07:04:00,56.0,0.0,30.05,NNW,336,0.0,4.5,0,0.00,,---,0.00,VWS V14.00,2013-10-04 11:04:00,
2013-10-04 07:05:00,56.2,0.0,30.05,NW,319,4.1,5.6,0,0.00,,---,0.00,VWS V14.00,2013-10-04 11:05:00,
2013-10-04 07:06:00,56.2,0.0,30.05,NW,318,0.0,5.6,0,0.00,,---,0.00,VWS V14.00,2013-10-04 11:06:00,
2013-10-04 07:07:00,56.4,0.0,30.05,NNW,335,0.0,5.6,0,0.00,,---,0.00,VWS V14.00,2013-10-04 11:07:00,
2013-10-04 07:08:00,56.8,0.0,30.05,NNW,335,0.0,5.6,0,0.00,,---,0.00,VWS V14.00,2013-10-04 11:08:00,
2013-10-04 07:09:00,56.9,0.0,30.05,NNW,335,0.0,5.6,0,0.00,,---,0.00,VWS V14.00,2013-10-04 11:09:00,
2013-10-04 07:10:00,56.9,0.0,30.05,NNW,338,3.4,5.6,0,0.00,,---,0.00,VWS V14.00,2013-10-04 11:10:00,
2013-10-04 07:11:00,57.0,0.0,30.05,WSW,239,0.0,6.6,0,0.00,,---,0.00,VWS V14.00,2013-10-04 11:11:00,
2013-10-04 07:12:00,57.1,0.0,30.05,WNW,301,4.3,6.6,0,0.00,,---,0.00,VWS V14.00,2013-10-04 11:12:00,
2013-10-04 07:13:00,57.2,0.0,30.05,NW,316,0.0,6.6,0,0.00,,---,0.00,VWS V14.00,2013-10-04 11:13:00,
2013-10-04 07:14:00,57.2,0.0,30.05,NW,316,0.0,6.6,0,0.00,,---,0.00,VWS V14.00,2013-10-04 11:14:00,
2013-10-04 07:15:00,57.2,0.0,30.05,NW,316,0.0,6.9,0,0.00,,---,0.00,VWS V14.00,2013-10-04 11:15:00,
2013-10-04 07:16:00,57.0,0.0,30.05,NNE,13,3.2,6.9,0,0.00,,---,0.00,VWS V14.00,2013-10-04 11:16:00,
2013-10-04 07:17:00,56.8,0.0,30.05,NNE,13,2.5,6.9,0,0.00,,---,0.00,VWS V14.00,2013-10-04 11:17:00,
2013-10-04 07:18:00,56.9,0.0,30.05,WNW,301,0.0,6.9,0,0.00,,---,0.00,VWS V14.00,2013-10-04 11:18:00,
2013-10-04 07:19:00,57.1,0.0,30.05,WNW,295,0.0,6.9,0,0.00,,---,0.00,VWS V14.00,2013-10-04 11:19:00,
2013-10-04 07:20:00,57.2,0.0,30.05,NW,308,2.9,6.2,0,0.00,,---,0.00,VWS V14.00,2013-10-04 11:20:00,
2013-10-04 07:21:00,57.6,0.0,30.05,NNW,333,0.0,6.2,0,0.00,,---,0.00,VWS V14.00,2013-10-04 11:21:00,
2013-10-04 07:22:00,57.9,0.0,30.05,NNW,333,0.0,6.2,0,0.00,,---,0.00,VWS V14.00,2013-10-04 11:22:00,
2013-10-04 07:23:00,58.1,0.0,30.05,NNW,333,0.0,6.2,0,0.00,,---,0.00,VWS V14.00,2013-10-04 11:23:00,
2013-10-04 07:24:00,58.1,0.0,30.05,NNW,333,0.0,6.2,0,0.00,,---,0.00,VWS V14.00,2013-10-04 11:24:00,
2013-10-04 07:25:00,58.1,0.0,30.05,NNW,333,0.0,3.4,0,0.00,,---,0.00,VWS V14.00,2013-10-04 11:25:00,
2013-10-04 07:26:00,58.2,0.0,30.05,NNW,333,0.0,3.4,0,0.00,,---,0.00,VWS V14.00,2013-10-04 11:26:00,
2013-10-04 07:27:00,58.1,0.0,30.06,NNW,333,0.0,3.4,0,0.00,,---,0.00,VWS V14.00,2013-10-04 11:27:00,
2013-10-04 07:28:00,58.0,0.0,30.06,NW,305,0.0,3.4,0,0.00,,---,0.00,VWS V14.00,2013-10-04 11:28:00,
2013-10-04 07:29:00,57.9,0.0,30.06,NW,305,0.0,3.4,0,0.00,,---,0.00,VWS V14.00,2013-10-04 11:29:00,
2013-10-04 07:30:00,57.8,0.0,30.06,NW,305,0.0,2.5,0,0.00,,---,0.00,VWS V14.00,2013-10-04 11:30:00,
2013-10-04 07:31:00,57.9,0.0,30.06,NW,305,0.0,2.5,0,0.00,,---,0.00,VWS V14.00,2013-10-04 11:31:00,
2013-10-04 07:32:00,58.1,0.0,30.06,NW,305,0.0,2.5,0,0.00,,---,0.00,VWS V14.00,2013-10-04 11:32:00,
2013-10-04 07:33:00,58.7,0.0,30.06,NNW,338,5.7,5.7,0,0.00,,---,0.00,VWS V14.00,2013-10-04 11:33:00,
2013-10-04 07:34:00,59.1,0.0,30.06,North,4,0.0,2.5,0,0.00,,---,0.00,VWS V14.00,2013-10-04 11:34:00,
2013-10-04 07:35:00,59.4,0.0,30.06,NW,325,4.8,7.3,0,0.00,,---,0.00,VWS V14.00,2013-10-04 11:35:00,
2013-10-04 07:36:00,59.3,0.0,30.06,North,359,3.2,7.3,0,0.00,,---,0.00,VWS V14.00,2013-10-04 11:36:00,
2013-10-04 07:37:00,59.3,0.0,30.06,NW,315,5.3,7.3,0,0.00,,---,0.00,VWS V14.00,2013-10-04 11:37:00,
2013-10-04 07:38:00,59.1,0.0,30.06,NNW,329,4.7,7.3,0,0.00,,---,0.00,VWS V14.00,2013-10-04 11:38:00,
2013-10-04 07:39:00,59.3,0.0,30.06,NNW,347,0.0,7.3,0,0.00,,---,0.00,VWS V14.00,2013-10-04 11:39:00,
2013-10-04 07:40:00,59.4,0.0,30.06,NW,308,5.5,6.8,0,0.00,,---,0.00,VWS V14.00,2013-10-04 11:40:00,
2013-10-04 07:41:00,59.3,0.0,30.06,North,359,0.0,6.8,0,0.00,,---,0.00,VWS V14.00,2013-10-04 11:41:00,
2013-10-04 07:42:00,59.1,0.0,30.06,North,8,0.0,6.8,0,0.00,,---,0.00,VWS V14.00,2013-10-04 11:42:00,
2013-10-04 07:43:00,59.1,0.0,30.06,North,8,0.0,6.8,0,0.00,,---,0.00,VWS V14.00,2013-10-04 11:43:00,
2013-10-04 07:44:00,59.0,0.0,30.06,North,8,0.0,6.8,0,0.00,,---,0.00,VWS V14.00,2013-10-04 11:44:00,
2013-10-04 07:45:00,59.0,0.0,30.06,North,8,0.0,6.2,0,0.00,,---,0.00,VWS V14.00,2013-10-04 11:45:00,
2013-10-04 07:46:00,59.1,0.0,30.06,North,8,0.0,6.2,0,0.00,,---,0.00,VWS V14.00,2013-10-04 11:46:00,
2013-10-04 07:47:00,59.1,0.0,30.06,North,8,0.0,6.2,0,0.00,,---,0.00,VWS V14.00,2013-10-04 11:47:00,
2013-10-04 07:48:00,59.0,0.0,30.06,North,8,0.0,6.2,0,0.00,,---,0.00,VWS V14.00,2013-10-04 11:48:00,
2013-10-04 07:49:00,59.1,0.0,30.05,North,8,0.0,6.2,0,0.00,,---,0.00,VWS V14.00,2013-10-04 11:49:00,
2013-10-04 07:50:00,59.2,0.0,30.05,North,8,0.0,0.0,0,0.00,,---,0.00,VWS V14.00,2013-10-04 11:50:00,
2013-10-04 07:51:00,59.4,0.0,30.05,North,8,0.0,0.0,0,0.00,,---,0.00,VWS V14.00,2013-10-04 11:51:00,
2013-10-04 07:52:00,59.4,0.0,30.06,North,8,0.0,0.0,0,0.00,,---,0.00,VWS V14.00,2013-10-04 11:52:00,
2013-10-04 07:53:00,59.4,0.0,30.05,North,8,0.0,0.0,0,0.00,,---,0.00,VWS V14.00,2013-10-04 11:53:00,
2013-10-04 07:54:00,59.4,0.0,30.05,North,354,2.2,0.0,0,0.00,,---,0.00,VWS V14.00,2013-10-04 11:54:00,
2013-10-04 07:55:00,59.5,0.0,30.06,North,354,0.0,2.2,0,0.00,,---,0.00,VWS V14.00,2013-10-04 11:55:00,
2013-10-04 07:56:00,59.5,0.0,30.06,NNW,340,0.0,2.2,0,0.00,,---,0.00,VWS V14.00,2013-10-04 11:56:00,
2013-10-04 07:57:00,59.4,0.0,30.06,NNW,340,0.0,2.2,0,0.00,,---,0.00,VWS V14.00,2013-10-04 11:57:00,
2013-10-04 07:58:00,59.4,0.0,30.06,NNW,340,0.0,2.2,0,0.00,,---,0.00,VWS V14.00,2013-10-04 11:58:00,
2013-10-04 07:59:00,59.6,0.0,30.05,NNW,340,0.0,2.2,0,0.00,,---,0.00,VWS V14.00,2013-10-04 11:59:00,
2013-10-04 08:00:00,59.7,0.0,30.06,NNW,340,0.0,2.7,0,0.00,,---,0.00,VWS V14.00,2013-10-04 12:00:00,
2013-10-04 08:01:00,59.7,0.0,30.06,NNW,340,0.0,2.7,0,0.00,,---,0.00,VWS V14.00,2013-10-04 12:01:00,
2013-10-04 08:02:00,59.8,0.0,30.06,NNW,340,0.0,2.7,0,0.00,,---,0.00,VWS V14.00,2013-10-04 12:02:00,
2013-10-04 08:03:00,60.0,0.0,30.06,NNW,340,0.0,2.7,0,0.00,,---,0.00,VWS V14.00,2013-10-04 12:03:00,
2013-10-04 08:04:00,60.1,0.0,30.06,NNW,340,0.0,2.7,0,0.00,,---,0.00,VWS V14.00,2013-10-04 12:04:00,
2013-10-04 08:05:00,60.2,0.0,30.06,NNW,340,0.0,0.0,0,0.00,,---,0.00,VWS V14.00,2013-10-04 12:05:00,
2013-10-04 08:06:00,60.2,0.0,30.06,NNW,340,0.0,0.0,0,0.00,,---,0.00,VWS V14.00,2013-10-04 12:06:00,
2013-10-04 08:07:00,60.2,0.0,30.06,NNW,340,0.0,0.0,0,0.00,,---,0.00,VWS V14.00,2013-10-04 12:07:00,
2013-10-04 08:08:00,60.3,0.0,30.06,NNW,340,0.0,0.0,0,0.00,,---,0.00,VWS V14.00,2013-10-04 12:08:00,
2013-10-04 08:09:00,60.4,0.0,30.06,NNW,340,0.0,0.0,0,0.00,,---,0.00,VWS V14.00,2013-10-04 12:09:00,
2013-10-04 08:10:00,60.4,0.0,30.06,NNW,340,0.0,0.0,0,0.00,,---,0.00,VWS V14.00,2013-10-04 12:10:00,
2013-10-04 08:11:00,60.5,0.0,30.06,NNW,340,0.0,0.0,0,0.00,,---,0.00,VWS V14.00,2013-10-04 12:11:00,
2013-10-04 08:12:00,60.7,0.0,30.06,NNW,340,0.0,0.0,0,0.00,,---,0.00,VWS V14.00,2013-10-04 12:12:00,
2013-10-04 08:13:00,60.9,0.0,30.06,NNW,340,0.0,0.0,0,0.00,,---,0.00,VWS V14.00,2013-10-04 12:13:00,
2013-10-04 08:14:00,61.2,0.0,30.06,NNW,340,0.0,0.0,0,0.00,,---,0.00,VWS V14.00,2013-10-04 12:14:00,
2013-10-04 08:15:00,61.2,0.0,30.06,NNW,340,0.0,0.0,0,0.00,,---,0.00,VWS V14.00,2013-10-04 12:15:00,
2013-10-04 08:16:00,61.8,0.0,30.06,NNW,340,0.0,0.0,0,0.00,,---,0.00,VWS V14.00,2013-10-04 12:16:00,
2013-10-04 08:17:00,61.8,0.0,30.06,NNW,340,0.0,0.0,0,0.00,,---,0.00,VWS V14.00,2013-10-04 12:17:00,
2013-10-04 08:18:00,62.0,0.0,30.06,North,1,0.0,0.0,0,0.00,,---,0.00,VWS V14.00,2013-10-04 12:18:00,
2013-10-04 08:19:00,62.0,0.0,30.06,North,1,0.0,0.0,0,0.00,,---,0.00,VWS V14.00,2013-10-04 12:19:00,
2013-10-04 08:20:00,62.0,0.0,30.06,North,1,0.0,2.6,0,0.00,,---,0.00,VWS V14.00,2013-10-04 12:20:00,
2013-10-04 08:21:00,62.0,0.0,30.06,North,1,0.0,2.6,0,0.00,,---,0.00,VWS V14.00,2013-10-04 12:21:00,
2013-10-04 08:22:00,62.0,0.0,30.06,North,1,0.0,2.6,0,0.00,,---,0.00,VWS V14.00,2013-10-04 12:22:00,
2013-10-04 08:23:00,62.2,0.0,30.06,North,1,0.0,2.6,0,0.00,,---,0.00,VWS V14.00,2013-10-04 12:23:00,
2013-10-04 08:24:00,62.4,0.0,30.06,North,1,0.0,2.6,0,0.00,,---,0.00,VWS V14.00,2013-10-04 12:24:00,
2013-10-04 08:25:00,62.4,0.0,30.06,North,1,0.0,0.0,0,0.00,,---,0.00,VWS V14.00,2013-10-04 12:25:00,
2013-10-04 08:26:00,62.6,0.0,30.06,North,1,0.0,0.0,0,0.00,,---,0.00,VWS V14.00,2013-10-04 12:26:00,
2013-10-04 08:27:00,62.5,0.0,30.06,North,1,0.0,0.0,0,0.00,,---,0.00,VWS V14.00,2013-10-04 12:27:00,
2013-10-04 08:28:00,62.6,0.0,30.06,North,1,0.0,0.0,0,0.00,,---,0.00,VWS V14.00,2013-10-04 12:28:00,
2013-10-04 08:29:00,62.6,0.0,30.06,North,1,0.0,0.0,0,0.00,,---,0.00,VWS V14.00,2013-10-04 12:29:00,
2013-10-04 08:30:00,62.7,0.0,30.06,North,1,0.0,0.0,0,0.00,,---,0.00,VWS V14.00,2013-10-04 12:30:00,
2013-10-04 08:31:00,62.7,0.0,30.05,ENE,66,4.7,0.0,0,0.00,,---,0.00,VWS V14.00,2013-10-04 12:31:00,
2013-10-04 08:32:00,62.8,0.0,30.05,NE,49,0.0,0.0,0,0.00,,---,0.00,VWS V14.00,2013-10-04 12:32:00,
2013-10-04 08:33:00,62.8,0.0,30.05,NE,49,0.0,0.0,0,0.00,,---,0.00,VWS V14.00,2013-10-04 12:33:00,
2013-10-04 08:34:00,63.0,0.0,30.05,NE,49,0.0,0.0,0,0.00,,---,0.00,VWS V14.00,2013-10-04 12:34:00,
2013-10-04 08:35:00,63.2,0.0,30.05,NE,49,0.0,5.7,0,0.00,,---,0.00,VWS V14.00,2013-10-04 12:35:00,
2013-10-04 08:36:00,63.3,0.0,30.05,NE,37,6.1,6.1,0,0.00,,---,0.00,VWS V14.00,2013-10-04 12:36:00,
2013-10-04 08:37:00,63.4,0.0,30.05,NNE,28,4.2,5.7,0,0.00,,---,0.00,VWS V14.00,2013-10-04 12:37:00,
2013-10-04 08:38:00,63.5,0.0,30.05,NNE,24,3.5,5.7,0,0.00,,---,0.00,VWS V14.00,2013-10-04 12:38:00,
2013-10-04 08:39:00,63.5,0.0,30.05,NE,37,0.0,5.7,0,0.00,,---,0.00,VWS V14.00,2013-10-04 12:39:00,
2013-10-04 08:40:00,63.4,0.0,30.05,NE,37,0.0,6.5,0,0.00,,---,0.00,VWS V14.00,2013-10-04 12:40:00,
2013-10-04 08:41:00,63.3,0.0,30.05,NE,42,0.0,6.5,0,0.00,,---,0.00,VWS V14.00,2013-10-04 12:41:00,
2013-10-04 08:42:00,63.4,0.0,30.05,NE,42,0.0,6.5,0,0.00,,---,0.00,VWS V14.00,2013-10-04 12:42:00,
2013-10-04 08:43:00,63.5,0.0,30.05,NE,42,0.0,6.5,0,0.00,,---,0.00,VWS V14.00,2013-10-04 12:43:00,
2013-10-04 08:44:00,63.7,0.0,30.05,NE,42,0.0,6.5,0,0.00,,---,0.00,VWS V14.00,2013-10-04 12:44:00,
2013-10-04 08:45:00,63.8,0.0,30.05,NE,42,0.0,3.4,0,0.00,,---,0.00,VWS V14.00,2013-10-04 12:45:00,
2013-10-04 08:46:00,63.7,0.0,30.06,NE,42,0.0,3.4,0,0.00,,---,0.00,VWS V14.00,2013-10-04 12:46:00,
2013-10-04 08:47:00,63.8,0.0,30.06,NE,42,0.0,3.4,0,0.00,,---,0.00,VWS V14.00,2013-10-04 12:47:00,
2013-10-04 08:48:00,64.0,0.0,30.06,NE,42,0.0,3.4,0,0.00,,---,0.00,VWS V14.00,2013-10-04 12:48:00,
2013-10-04 08:49:00,64.0,0.0,30.05,NE,42,0.0,3.4,0,0.00,,---,0.00,VWS V14.00,2013-10-04 12:49:00,
2013-10-04 08:50:00,64.1,0.0,30.06,NE,42,0.0,0.0,0,0.00,,---,0.00,VWS V14.00,2013-10-04 12:50:00,
2013-10-04 08:51:00,64.0,0.0,30.06,NE,42,0.0,0.0,0,0.00,,---,0.00,VWS V14.00,2013-10-04 12:51:00,
2013-10-04 08:52:00,63.9,0.0,30.06,NE,42,0.0,0.0,0,0.00,,---,0.00,VWS V14.00,2013-10-04 12:52:00,
2013-10-04 08:53:00,63.9,0.0,30.06,North,7,1.9,0.0,0,0.00,,---,0.00,VWS V14.00,2013-10-04 12:53:00,
2013-10-04 08:54:00,63.6,0.0,30.06,North,4,3.0,0.0,0,0.00,,---,0.00,VWS V14.00,2013-10-04 12:54:00,
2013-10-04 08:55:00,63.5,0.0,30.06,ENE,69,5.2,8.1,0,0.00,,---,0.00,VWS V14.00,2013-10-04 12:55:00,
2013-10-04 08:56:00,63.3,0.0,30.06,NNE,21,2.9,8.1,0,0.00,,---,0.00,VWS V14.00,2013-10-04 12:56:00,
2013-10-04 08:57:00,63.3,0.0,30.06,North,359,5.1,8.1,0,0.00,,---,0.00,VWS V14.00,2013-10-04 12:57:00,
2013-10-04 08:58:00,63.2,0.0,30.06,North,1,3.4,8.1,0,0.00,,---,0.00,VWS V14.00,2013-10-04 12:58:00,
2013-10-04 08:59:00,63.2,0.0,30.06,North,10,3.4,8.1,0,0.00,,---,0.00,VWS V14.00,2013-10-04 12:59:00,
2013-10-04 09:00:00,63.2,0.0,30.06,North,359,0.0,7.6,0,0.00,,---,0.00,VWS V14.00,2013-10-04 13:00:00,
2013-10-04 09:01:00,63.3,0.0,30.06,NE,51,3.3,7.6,0,0.00,,---,0.00,VWS V14.00,2013-10-04 13:01:00,
2013-10-04 09:02:00,63.4,0.0,30.06,NE,48,4.2,7.6,0,0.00,,---,0.00,VWS V14.00,2013-10-04 13:02:00,
2013-10-04 09:03:00,63.4,0.0,30.06,NE,46,4.8,7.6,0,0.00,,---,0.00,VWS V14.00,2013-10-04 13:03:00,
2013-10-04 09:04:00,63.3,0.0,30.06,NNE,32,3.3,7.6,0,0.00,,---,0.00,VWS V14.00,2013-10-04 13:04:00,
2013-10-04 09:05:00,63.2,0.0,30.05,ENE,75,3.4,6.2,0,0.00,,---,0.00,VWS V14.00,2013-10-04 13:05:00,
2013-10-04 09:06:00,63.3,0.0,30.05,NE,44,5.8,6.2,0,0.00,,---,0.00,VWS V14.00,2013-10-04 13:06:00,
2013-10-04 09:07:00,63.2,0.0,30.05,NNE,14,3.1,6.2,0,0.00,,---,0.00,VWS V14.00,2013-10-04 13:07:00,
2013-10-04 09:08:00,63.3,0.0,30.05,NE,45,2.9,6.2,0,0.00,,---,0.00,VWS V14.00,2013-10-04 13:08:00,
2013-10-04 09:09:00,63.1,0.0,30.05,NNE,20,0.0,6.2,0,0.00,,---,0.00,VWS V14.00,2013-10-04 13:09:00,
2013-10-04 09:10:00,63.0,0.0,30.05,NNE,20,0.0,6.5,0,0.00,,---,0.00,VWS V14.00,2013-10-04 13:10:00,
2013-10-04 09:11:00,63.0,0.0,30.05,NNE,20,0.0,6.5,0,0.00,,---,0.00,VWS V14.00,2013-10-04 13:11:00,
2013-10-04 09:12:00,63.0,0.0,30.05,NE,41,3.5,6.5,0,0.00,,---,0.00,VWS V14.00,2013-10-04 13:12:00,
2013-10-04 09:13:00,63.0,0.0,30.05,NE,41,0.0,6.5,0,0.00,,---,0.00,VWS V14.00,2013-10-04 13:13:00,
2013-10-04 09:14:00,62.9,0.0,30.05,NE,52,0.0,6.5,0,0.00,,---,0.00,VWS V14.00,2013-10-04 13:14:00,
2013-10-04 09:15:00,63.0,0.0,30.05,NE,41,3.5,6.5,0,0.00,,---,0.00,VWS V14.00,2013-10-04 13:15:00,
2013-10-04 09:16:00,63.0,0.0,30.05,NNE,27,3.4,4.6,0,0.00,,---,0.00,VWS V14.00,2013-10-04 13:16:00,
2013-10-04 09:17:00,62.9,0.0,30.05,NNE,20,5.4,5.4,0,0.00,,---,0.00,VWS V14.00,2013-10-04 13:17:00,
2013-10-04 09:18:00,62.9,0.0,30.05,NNE,15,5.2,5.2,0,0.00,,---,0.00,VWS V14.00,2013-10-04 13:18:00,
2013-10-04 09:19:00,62.9,0.0,30.05,North,353,0.0,4.6,0,0.00,,---,0.00,VWS V14.00,2013-10-04 13:19:00,
2013-10-04 09:20:00,62.8,0.0,30.05,NNE,31,4.4,4.6,0,0.00,,---,0.00,VWS V14.00,2013-10-04 13:20:00,
2013-10-04 09:21:00,62.8,0.0,30.05,NE,41,6.2,6.7,0,0.00,,---,0.00,VWS V14.00,2013-10-04 13:21:00,
2013-10-04 09:22:00,62.9,0.0,30.05,North,359,3.3,6.7,0,0.00,,---,0.00,VWS V14.00,2013-10-04 13:22:00,
2013-10-04 09:23:00,62.9,0.0,30.05,North,7,4.3,6.7,0,0.00,,---,0.00,VWS V14.00,2013-10-04 13:23:00,
2013-10-04 09:24:00,62.9,0.0,30.05,North,6,4.8,6.7,0,0.00,,---,0.00,VWS V14.00,2013-10-04 13:24:00,
2013-10-04 09:25:00,63.0,0.0,30.05,North,359,4.8,7.8,0,0.00,,---,0.00,VWS V14.00,2013-10-04 13:25:00,
2013-10-04 09:26:00,62.9,0.0,30.05,NE,35,5.5,7.8,0,0.00,,---,0.00,VWS V14.00,2013-10-04 13:26:00,
2013-10-04 09:27:00,63.0,0.0,30.05,NE,37,7.5,7.8,0,0.00,,---,0.00,VWS V14.00,2013-10-04 13:27:00,
2013-10-04 09:28:00,63.0,0.0,30.05,NNE,22,3.4,7.8,0,0.00,,---,0.00,VWS V14.00,2013-10-04 13:28:00,
2013-10-04 09:29:00,62.8,0.0,30.05,NNE,32,6.2,7.8,0,0.00,,---,0.00,VWS V14.00,2013-10-04 13:29:00,
2013-10-04 09:30:00,62.8,0.0,30.06,ENE,59,4.3,8.9,0,0.00,,---,0.00,VWS V14.00,2013-10-04 13:30:00,
2013-10-04 09:31:00,62.7,0.0,30.06,NNE,25,3.3,8.9,0,0.00,,---,0.00,VWS V14.00,2013-10-04 13:31:00,
2013-10-04 09:32:00,62.8,0.0,30.06,NE,34,0.0,8.9,0,0.00,,---,0.00,VWS V14.00,2013-10-04 13:32:00,
2013-10-04 09:33:00,62.9,0.0,30.06,ENE,59,2.4,8.9,0,0.00,,---,0.00,VWS V14.00,2013-10-04 13:33:00,
2013-10-04 09:34:00,62.9,0.0,30.06,NNE,31,4.3,8.9,0,0.00,,---,0.00,VWS V14.00,2013-10-04 13:34:00,
2013-10-04 09:35:00,63.0,0.0,30.06,North,8,5.2,6.7,0,0.00,,---,0.00,VWS V14.00,2013-10-04 13:35:00,
2013-10-04 09:36:00,62.8,0.0,30.06,North,359,5.1,6.7,0,0.00,,---,0.00,VWS V14.00,2013-10-04 13:36:00,
2013-10-04 09:37:00,62.8,0.0,30.06,NE,52,4.3,6.7,0,0.00,,---,0.00,VWS V14.00,2013-10-04 13:37:00,
2013-10-04 09:38:00,62.9,0.0,30.06,NE,45,2.5,6.7,0,0.00,,---,0.00,VWS V14.00,2013-10-04 13:38:00,
2013-10-04 09:39:00,63.1,0.0,30.06,North,354,4.9,6.7,0,0.00,,---,0.00,VWS V14.00,2013-10-04 13:39:00,
2013-10-04 09:40:00,63.2,0.0,30.05,NNE,20,4.2,7.5,0,0.00,,---,0.00,VWS V14.00,2013-10-04 13:40:00,
2013-10-04 09:41:00,63.3,0.0,30.05,NE,34,8.2,8.2,0,0.00,,---,0.00,VWS V14.00,2013-10-04 13:41:00,
2013-10-04 09:42:00,63.3,0.0,30.05,NNE,25,5.0,7.5,0,0.00,,---,0.00,VWS V14.00,2013-10-04 13:42:00,
2013-10-04 09:43:00,63.4,0.0,30.05,NE,42,3.2,7.5,0,0.00,,---,0.00,VWS V14.00,2013-10-04 13:43:00,
2013-10-04 09:44:00,63.5,0.0,30.05,NE,41,5.9,7.5,0,0.00,,---,0.00,VWS V14.00,2013-10-04 13:44:00,
2013-10-04 09:45:00,63.6,0.0,30.05,North,10,3.3,9.3,0,0.00,,---,0.00,VWS V14.00,2013-10-04 13:45:00,
2013-10-04 09:46:00,63.5,0.0,30.05,North,11,4.3,9.3,0,0.00,,---,0.00,VWS V14.00,2013-10-04 13:46:00,
2013-10-04 09:47:00,63.6,0.0,30.05,NNE,25,7.8,9.3,0,0.00,,---,0.00,VWS V14.00,2013-10-04 13:47:00,
2013-10-04 09:48:00,63.6,0.0,30.05,North,4,4.3,9.3,0,0.00,,---,0.00,VWS V14.00,2013-10-04 13:48:00,
2013-10-04 09:49:00,63.6,0.0,30.05,NE,49,4.7,9.3,0,0.00,,---,0.00,VWS V14.00,2013-10-04 13:49:00,
2013-10-04 09:50:00,63.5,0.0,30.05,NE,38,9.3,9.3,0,0.00,,---,0.00,VWS V14.00,2013-10-04 13:50:00,
2013-10-04 09:51:00,63.6,0.0,30.05,NNE,20,5.0,9.1,0,0.00,,---,0.00,VWS V14.00,2013-10-04 13:51:00,
2013-10-04 09:52:00,63.5,0.0,30.05,ENE,69,5.0,9.1,0,0.00,,---,0.00,VWS V14.00,2013-10-04 13:52:00,
2013-10-04 09:53:00,63.6,0.0,30.05,North,8,5.9,9.1,0,0.00,,---,0.00,VWS V14.00,2013-10-04 13:53:00,
2013-10-04 09:54:00,63.5,0.0,30.05,NE,37,5.5,9.1,0,0.00,,---,0.00,VWS V14.00,2013-10-04 13:54:00,
2013-10-04 09:55:00,63.5,0.0,30.05,NNE,20,7.0,9.6,0,0.00,,---,0.00,VWS V14.00,2013-10-04 13:55:00,
2013-10-04 09:56:00,63.4,0.0,30.05,NE,38,7.8,9.6,0,0.00,,---,0.00,VWS V14.00,2013-10-04 13:56:00,
2013-10-04 09:57:00,63.5,0.0,30.05,NNE,31,0.0,9.6,0,0.00,,---,0.00,VWS V14.00,2013-10-04 13:57:00,
2013-10-04 09:58:00,63.4,0.0,30.05,NNE,24,8.0,9.6,0,0.00,,---,0.00,VWS V14.00,2013-10-04 13:58:00,
2013-10-04 09:59:00,63.4,0.0,30.05,NNE,30,6.2,9.6,0,0.00,,---,0.00,VWS V14.00,2013-10-04 13:59:00,
2013-10-04 10:00:00,63.5,0.0,30.05,NNE,21,5.5,9.6,0,0.00,,---,0.00,VWS V14.00,2013-10-04 14:00:00,
2013-10-04 10:01:00,63.3,0.0,30.05,NNW,347,4.5,9.6,0,0.00,,---,0.00,VWS V14.00,2013-10-04 14:01:00,
2013-10-04 10:02:00,63.2,0.0,30.05,NE,46,3.4,9.6,0,0.00,,---,0.00,VWS V14.00,2013-10-04 14:02:00,
2013-10-04 10:03:00,63.3,0.0,30.05,NE,48,6.6,9.6,0,0.00,,---,0.00,VWS V14.00,2013-10-04 14:03:00,
2013-10-04 10:04:00,63.3,0.0,30.05,NE,41,5.8,9.6,0,0.00,,---,0.00,VWS V14.00,2013-10-04 14:04:00,
2013-10-04 10:05:00,63.2,0.0,30.05,NE,45,0.0,7.6,0,0.00,,---,0.00,VWS V14.00,2013-10-04 14:05:00,
2013-10-04 10:06:00,63.3,0.0,30.05,NNE,21,3.4,7.6,0,0.00,,---,0.00,VWS V14.00,2013-10-04 14:06:00,
2013-10-04 10:07:00,63.2,0.0,30.05,NE,48,2.4,7.6,0,0.00,,---,0.00,VWS V14.00,2013-10-04 14:07:00,
2013-10-04 10:08:00,62.9,0.0,30.05,North,359,5.8,7.6,0,0.00,,---,0.00,VWS V14.00,2013-10-04 14:08:00,
2013-10-04 10:09:00,62.9,0.0,30.05,NNW,342,3.5,7.6,0,0.00,,---,0.00,VWS V14.00,2013-10-04 14:09:00,
2013-10-04 10:10:00,62.8,0.0,30.05,North,4,4.4,8.2,0,0.00,,---,0.00,VWS V14.00,2013-10-04 14:10:00,
2013-10-04 10:11:00,62.8,0.0,30.06,NE,42,3.4,8.2,0,0.00,,---,0.00,VWS V14.00,2013-10-04 14:11:00,
2013-10-04 10:12:00,62.8,0.0,30.06,North,359,3.3,8.2,0,0.00,,---,0.00,VWS V14.00,2013-10-04 14:12:00,
2013-10-04 10:13:00,62.8,0.0,30.05,NNE,30,2.2,8.2,0,0.00,,---,0.00,VWS V14.00,2013-10-04 14:13:00,
2013-10-04 10:14:00,62.8,0.0,30.05,NE,35,5.9,8.2,0,0.00,,---,0.00,VWS V14.00,2013-10-04 14:14:00,
2013-10-04 10:15:00,62.9,0.0,30.05,NE,34,4.5,8.3,0,0.00,,---,0.00,VWS V14.00,2013-10-04 14:15:00,
2013-10-04 10:16:00,63.0,0.0,30.05,NNE,18,1.3,8.3,0,0.00,,---,0.00,VWS V14.00,2013-10-04 14:16:00,
2013-10-04 10:17:00,62.9,0.0,30.05,NE,42,5.8,8.3,0,0.00,,---,0.00,VWS V14.00,2013-10-04 14:17:00,
2013-10-04 10:18:00,63.0,0.0,30.06,ENE,62,4.5,8.3,0,0.00,,---,0.00,VWS V14.00,2013-10-04 14:18:00,
2013-10-04 10:19:00,63.0,0.0,30.05,NNE,25,6.4,8.3,0,0.00,,---,0.00,VWS V14.00,2013-10-04 14:19:00,
2013-10-04 10:20:00,63.0,0.0,30.05,North,10,5.8,8.3,0,0.00,,---,0.00,VWS V14.00,2013-10-04 14:20:00,
2013-10-04 10:21:00,63.0,0.0,30.06,NNW,338,3.3,8.4,0,0.00,,---,0.00,VWS V14.00,2013-10-04 14:21:00,
2013-10-04 10:22:00,63.1,0.0,30.06,NNE,30,3.4,8.4,0,0.00,,---,0.00,VWS V14.00,2013-10-04 14:22:00,
2013-10-04 10:23:00,63.2,0.0,30.06,NNE,25,3.4,8.4,0,0.00,,---,0.00,VWS V14.00,2013-10-04 14:23:00,
2013-10-04 10:24:00,63.2,0.0,30.06,NE,41,3.2,8.4,0,0.00,,---,0.00,VWS V14.00,2013-10-04 14:24:00,
2013-10-04 10:25:00,63.2,0.0,30.06,North,359,5.8,8.4,0,0.00,,---,0.00,VWS V14.00,2013-10-04 14:25:00,
2013-10-04 10:26:00,63.2,0.0,30.06,WNW,290,5.3,8.9,0,0.00,,---,0.00,VWS V14.00,2013-10-04 14:26:00,
2013-10-04 10:27:00,63.1,0.0,30.06,NNE,13,3.4,8.9,0,0.00,,---,0.00,VWS V14.00,2013-10-04 14:27:00,
2013-10-04 10:28:00,63.0,0.0,30.06,NNE,14,0.0,8.9,0,0.00,,---,0.00,VWS V14.00,2013-10-04 14:28:00,
2013-10-04 10:29:00,63.0,0.0,30.06,NNE,17,3.1,8.9,0,0.00,,---,0.00,VWS V14.00,2013-10-04 14:29:00,
2013-10-04 10:30:00,62.9,0.0,30.06,NNE,13,0.0,8.8,0,0.00,,---,0.00,VWS V14.00,2013-10-04 14:30:00,
2013-10-04 10:31:00,62.9,0.0,30.06,NNE,25,4.2,8.8,0,0.00,,---,0.00,VWS V14.00,2013-10-04 14:31:00,
2013-10-04 10:32:00,62.9,0.0,30.06,North,356,0.0,8.8,0,0.00,,---,0.00,VWS V14.00,2013-10-04 14:32:00,
2013-10-04 10:33:00,62.9,0.0,30.06,North,356,3.5,8.8,0,0.00,,---,0.00,VWS V14.00,2013-10-04 14:33:00,
2013-10-04 10:34:00,62.8,0.0,30.06,NNE,30,0.0,8.8,0,0.00,,---,0.00,VWS V14.00,2013-10-04 14:34:00,
2013-10-04 10:35:00,62.8,0.0,30.06,North,359,5.0,8.3,0,0.00,,---,0.00,VWS V14.00,2013-10-04 14:35:00,
2013-10-04 10:36:00,63.0,0.0,30.06,NNW,342,2.5,8.3,0,0.00,,---,0.00,VWS V14.00,2013-10-04 14:36:00,
2013-10-04 10:37:00,62.8,0.0,30.06,North,359,3.4,8.3,0,0.00,,---,0.00,VWS V14.00,2013-10-04 14:37:00,
2013-10-04 10:38:00,62.7,0.0,30.06,NNE,17,5.7,8.3,0,0.00,,---,0.00,VWS V14.00,2013-10-04 14:38:00,
2013-10-04 10:39:00,62.7,0.0,30.06,ENE,65,5.4,8.3,0,0.00,,---,0.00,VWS V14.00,2013-10-04 14:39:00,
2013-10-04 10:40:00,62.7,0.0,30.06,NNE,25,5.7,9.8,0,0.00,,---,0.00,VWS V14.00,2013-10-04 14:40:00,
2013-10-04 10:41:00,62.7,0.0,30.06,NE,41,4.7,9.8,0,0.00,,---,0.00,VWS V14.00,2013-10-04 14:41:00,
2013-10-04 10:42:00,62.8,0.0,30.06,NE,38,3.5,9.8,0,0.00,,---,0.00,VWS V14.00,2013-10-04 14:42:00,
2013-10-04 10:43:00,62.9,0.0,30.06,NE,38,7.3,9.8,0,0.00,,---,0.00,VWS V14.00,2013-10-04 14:43:00,
2013-10-04 10:44:00,62.9,0.0,30.06,NE,41,5.2,9.8,0,0.00,,---,0.00,VWS V14.00,2013-10-04 14:44:00,
2013-10-04 10:45:00,62.9,0.0,30.06,ENE,60,4.3,8.1,0,0.00,,---,0.00,VWS V14.00,2013-10-04 14:45:00,
2013-10-04 10:46:00,63.0,0.0,30.06,NE,56,4.7,8.1,0,0.00,,---,0.00,VWS V14.00,2013-10-04 14:46:00,
2013-10-04 10:47:00,63.1,0.0,30.06,NE,55,5.3,8.1,0,0.00,,---,0.00,VWS V14.00,2013-10-04 14:47:00,
2013-10-04 10:48:00,63.2,0.0,30.06,NE,39,6.0,8.1,0,0.00,,---,0.00,VWS V14.00,2013-10-04 14:48:00,
2013-10-04 10:49:00,63.1,0.0,30.06,NE,39,6.1,8.1,0,0.00,,---,0.00,VWS V14.00,2013-10-04 14:49:00,
2013-10-04 10:50:00,63.0,0.0,30.06,NE,46,3.5,8.9,0,0.00,,---,0.00,VWS V14.00,2013-10-04 14:50:00,
2013-10-04 10:51:00,63.0,0.0,30.06,NE,39,5.0,8.9,0,0.00,,---,0.00,VWS V14.00,2013-10-04 14:51:00,
2013-10-04 10:52:00,63.0,0.0,30.06,NE,44,5.5,8.9,0,0.00,,---,0.00,VWS V14.00,2013-10-04 14:52:00,
2013-10-04 10:53:00,63.1,0.0,30.06,NE,44,5.3,8.9,0,0.00,,---,0.00,VWS V14.00,2013-10-04 14:53:00,
2013-10-04 10:54:00,63.1,0.0,30.06,North,359,3.1,8.9,0,0.00,,---,0.00,VWS V14.00,2013-10-04 14:54:00,
2013-10-04 10:55:00,63.2,0.0,30.06,NNE,32,0.0,8.0,0,0.00,,---,0.00,VWS V14.00,2013-10-04 14:55:00,
2013-10-04 10:56:00,63.3,0.0,30.06,NNE,32,0.0,8.0,0,0.00,,---,0.00,VWS V14.00,2013-10-04 14:56:00,
2013-10-04 10:57:00,63.4,0.0,30.06,NE,34,3.1,8.0,0,0.00,,---,0.00,VWS V14.00,2013-10-04 14:57:00,
2013-10-04 10:58:00,63.5,0.0,30.06,NE,35,6.0,8.0,0,0.00,,---,0.00,VWS V14.00,2013-10-04 14:58:00,
2013-10-04 10:59:00,63.5,0.0,30.06,North,11,0.0,8.0,0,0.00,,---,0.00,VWS V14.00,2013-10-04 14:59:00,
2013-10-04 11:00:00,63.6,0.0,30.06,North,11,0.0,6.0,0,0.00,,---,0.00,VWS V14.00,2013-10-04 15:00:00,
2013-10-04 11:01:00,63.6,0.0,30.06,North,11,0.0,6.0,0,0.00,,---,0.00,VWS V14.00,2013-10-04 15:01:00,
2013-10-04 11:02:00,63.5,0.0,30.06,NE,44,5.5,6.0,0,0.00,,---,0.00,VWS V14.00,2013-10-04 15:02:00,
2013-10-04 11:03:00,63.5,0.0,30.06,North,359,2.2,6.0,0,0.00,,---,0.00,VWS V14.00,2013-10-04 15:03:00,
2013-10-04 11:04:00,63.4,0.0,30.06,North,1,4.2,6.0,0,0.00,,---,0.00,VWS V14.00,2013-10-04 15:04:00,
2013-10-04 11:05:00,63.5,0.0,30.06,NNE,25,3.3,6.2,0,0.00,,---,0.00,VWS V14.00,2013-10-04 15:05:00,
2013-10-04 11:06:00,63.4,0.0,30.06,NNE,15,0.0,6.2,0,0.00,,---,0.00,VWS V14.00,2013-10-04 15:06:00,
2013-10-04 11:07:00,63.4,0.0,30.06,ENE,58,4.1,6.2,0,0.00,,---,0.00,VWS V14.00,2013-10-04 15:07:00,
2013-10-04 11:08:00,63.3,0.0,30.06,NW,309,3.4,6.2,0,0.00,,---,0.00,VWS V14.00,2013-10-04 15:08:00,
2013-10-04 11:09:00,63.3,0.0,30.06,North,1,2.5,6.2,0,0.00,,---,0.00,VWS V14.00,2013-10-04 15:09:00,
2013-10-04 11:10:00,63.5,0.0,30.06,NNE,21,3.0,5.7,0,0.00,,---,0.00,VWS V14.00,2013-10-04 15:10:00,
2013-10-04 11:11:00,63.6,0.0,30.06,NE,37,3.2,5.7,0,0.00,,---,0.00,VWS V14.00,2013-10-04 15:11:00,
2013-10-04 11:12:00,63.7,0.0,30.06,NE,37,0.0,5.7,0,0.00,,---,0.00,VWS V14.00,2013-10-04 15:12:00,
2013-10-04 11:13:00,63.7,0.0,30.06,NE,37,0.0,5.7,0,0.00,,---,0.00,VWS V14.00,2013-10-04 15:13:00,
2013-10-04 11:14:00,63.8,0.0,30.06,NE,53,1.4,5.7,0,0.00,,---,0.00,VWS V14.00,2013-10-04 15:14:00,
2013-10-04 11:15:00,63.7,0.0,30.06,ENE,58,3.4,5.0,0,0.00,,---,0.00,VWS V14.00,2013-10-04 15:15:00,
2013-10-04 11:16:00,63.7,0.0,30.07,NE,56,3.3,5.0,0,0.00,,---,0.00,VWS V14.00,2013-10-04 15:16:00,
2013-10-04 11:17:00,63.8,0.0,30.07,NE,49,0.0,5.0,0,0.00,,---,0.00,VWS V14.00,2013-10-04 15:17:00,
2013-10-04 11:18:00,63.8,0.0,30.06,NE,49,0.0,5.0,0,0.00,,---,0.00,VWS V14.00,2013-10-04 15:18:00,
2013-10-04 11:19:00,63.9,0.0,30.06,NNE,32,3.5,5.0,0,0.00,,---,0.00,VWS V14.00,2013-10-04 15:19:00,
2013-10-04 11:20:00,63.9,0.0,30.06,NE,44,3.0,5.2,0,0.00,,---,0.00,VWS V14.00,2013-10-04 15:20:00,
2013-10-04 11:21:00,64.0,0.0,30.06,NNE,22,2.4,5.2,0,0.00,,---,0.00,VWS V14.00,2013-10-04 15:21:00,
2013-10-04 11:22:00,64.1,0.0,30.06,NNE,22,0.0,5.2,0,0.00,,---,0.00,VWS V14.00,2013-10-04 15:22:00,
2013-10-04 11:23:00,64.2,0.0,30.06,NNE,22,0.0,5.2,0,0.00,,---,0.00,VWS V14.00,2013-10-04 15:23:00,
2013-10-04 11:24:00,64.3,0.0,30.06,NNE,22,0.0,5.2,0,0.00,,---,0.00,VWS V14.00,2013-10-04 15:24:00,
2013-10-04 11:25:00,64.3,0.0,30.06,NNE,22,0.0,5.2,0,0.00,,---,0.00,VWS V14.00,2013-10-04 15:25:00,
2013-10-04 11:26:00,64.4,0.0,30.06,NNE,22,0.0,4.7,0,0.00,,---,0.00,VWS V14.00,2013-10-04 15:26:00,
2013-10-04 11:27:00,64.5,0.0,30.06,NNE,22,0.0,4.7,0,0.00,,---,0.00,VWS V14.00,2013-10-04 15:27:00,
2013-10-04 11:28:00,64.6,0.0,30.06,NNE,22,0.0,4.7,0,0.00,,---,0.00,VWS V14.00,2013-10-04 15:28:00,
2013-10-04 11:29:00,64.3,0.0,30.06,NNE,22,0.0,4.7,0,0.00,,---,0.00,VWS V14.00,2013-10-04 15:29:00,
2013-10-04 11:30:00,64.2,0.0,30.06,NNE,22,0.0,0.0,0,0.00,,---,0.00,VWS V14.00,2013-10-04 15:30:00,
2013-10-04 11:31:00,64.2,0.0,30.06,NNE,22,0.0,0.0,0,0.00,,---,0.00,VWS V14.00,2013-10-04 15:31:00,
2013-10-04 11:32:00,64.1,0.0,30.06,NNE,22,0.0,0.0,0,0.00,,---,0.00,VWS V14.00,2013-10-04 15:32:00,
2013-10-04 11:33:00,64.2,0.0,30.06,NNE,22,0.0,0.0,0,0.00,,---,0.00,VWS V14.00,2013-10-04 15:33:00,
2013-10-04 11:34:00,64.1,0.0,30.06,NNE,22,0.0,0.0,0,0.00,,---,0.00,VWS V14.00,2013-10-04 15:34:00,
2013-10-04 11:35:00,64.3,0.0,30.06,NNE,22,0.0,0.0,0,0.00,,---,0.00,VWS V14.00,2013-10-04 15:35:00,
2013-10-04 11:36:00,64.4,0.0,30.06,NNE,22,0.0,0.0,0,0.00,,---,0.00,VWS V14.00,2013-10-04 15:36:00,
2013-10-04 11:37:00,64.4,0.0,30.06,NNE,22,0.0,0.0,0,0.00,,---,0.00,VWS V14.00,2013-10-04 15:37:00,
2013-10-04 11:38:00,64.4,0.0,30.06,NNE,22,0.0,0.0,0,0.00,,---,0.00,VWS V14.00,2013-10-04 15:38:00,
2013-10-04 11:39:00,64.5,0.0,30.06,NNE,22,0.0,0.0,0,0.00,,---,0.00,VWS V14.00,2013-10-04 15:39:00,
2013-10-04 11:40:00,64.5,0.0,30.06,NNE,22,0.0,0.0,0,0.00,,---,0.00,VWS V14.00,2013-10-04 15:40:00,
2013-10-04 11:41:00,64.6,0.0,30.06,NNE,22,0.0,0.0,0,0.00,,---,0.00,VWS V14.00,2013-10-04 15:41:00,
2013-10-04 11:42:00,64.6,0.0,30.06,NNE,22,0.0,0.0,0,0.00,,---,0.00,VWS V14.00,2013-10-04 15:42:00,
2013-10-04 11:43:00,64.6,0.0,30.06,NNE,22,0.0,0.0,0,0.00,,---,0.00,VWS V14.00,2013-10-04 15:43:00,
2013-10-04 11:44:00,64.6,0.0,30.06,NNE,22,0.0,0.0,0,0.00,,---,0.00,VWS V14.00,2013-10-04 15:44:00,
2013-10-04 11:45:00,64.7,0.0,30.06,NNE,22,0.0,0.0,0,0.00,,---,0.00,VWS V14.00,2013-10-04 15:45:00,
2013-10-04 11:46:00,64.7,0.0,30.06,NNE,22,0.0,0.0,0,0.00,,---,0.00,VWS V14.00,2013-10-04 15:46:00,
2013-10-04 11:47:00,64.7,0.0,30.06,NNE,22,0.0,0.0,0,0.00,,---,0.00,VWS V14.00,2013-10-04 15:47:00,
2013-10-04 11:48:00,64.6,0.0,30.06,NNE,22,0.0,0.0,0,0.00,,---,0.00,VWS V14.00,2013-10-04 15:48:00,
2013-10-04 11:49:00,64.3,0.0,30.05,NNE,22,0.0,0.0,0,0.00,,---,0.00,VWS V14.00,2013-10-04 15:49:00,
2013-10-04 11:50:00,64.2,0.0,30.05,NNE,22,0.0,0.0,0,0.00,,---,0.00,VWS V14.00,2013-10-04 15:50:00,
2013-10-04 11:51:00,64.2,0.0,30.05,NNE,22,0.0,0.0,0,0.00,,---,0.00,VWS V14.00,2013-10-04 15:51:00,
2013-10-04 11:52:00,63.9,0.0,30.05,NNE,22,0.0,0.0,0,0.00,,---,0.00,VWS V14.00,2013-10-04 15:52:00,
2013-10-04 11:53:00,63.6,0.0,30.05,NNE,22,0.0,0.0,0,0.00,,---,0.00,VWS V14.00,2013-10-04 15:53:00,
2013-10-04 11:54:00,63.5,0.0,30.05,NNE,22,0.0,0.0,0,0.00,,---,0.00,VWS V14.00,2013-10-04 15:54:00,
2013-10-04 11:55:00,63.6,0.0,30.05,NNE,22,0.0,0.0,0,0.00,,---,0.00,VWS V14.00,2013-10-04 15:55:00,
2013-10-04 11:56:00,63.8,0.0,30.05,NNE,22,0.0,0.0,0,0.00,,---,0.00,VWS V14.00,2013-10-04 15:56:00,
2013-10-04 11:57:00,63.7,0.0,30.05,NNE,22,0.0,0.0,0,0.00,,---,0.00,VWS V14.00,2013-10-04 15:57:00,
2013-10-04 11:58:00,63.4,0.0,30.05,NNE,22,0.0,0.0,0,0.00,,---,0.00,VWS V14.00,2013-10-04 15:58:00,
2013-10-04 11:59:00,63.3,0.0,30.05,NNE,22,0.0,0.0,0,0.00,,---,0.00,VWS V14.00,2013-10-04 15:59:00,
2013-10-04 12:00:00,63.1,0.0,30.05,NNE,22,0.0,0.0,0,0.00,,---,0.00,VWS V14.00,2013-10-04 16:00:00,
2013-10-04 12:01:00,62.9,0.0,30.05,NNE,22,0.0,0.0,0,0.00,,---,0.00,VWS V14.00,2013-10-04 16:01:00,
2013-10-04 12:02:00,62.9,0.0,30.05,NNE,22,0.0,0.0,0,0.00,,---,0.00,VWS V14.00,2013-10-04 16:02:00,
2013-10-04 12:03:00,62.8,0.0,30.05,NNE,22,0.0,0.0,0,0.00,,---,0.00,VWS V14.00,2013-10-04 16:03:00,
2013-10-04 12:04:00,62.7,0.0,30.05,NNE,22,0.0,0.0,0,0.00,,---,0.00,VWS V14.00,2013-10-04 16:04:00,
2013-10-04 12:05:00,62.9,0.0,30.05,NNE,22,0.0,0.0,0,0.00,,---,0.00,VWS V14.00,2013-10-04 16:05:00,
2013-10-04 12:06:00,63.1,0.0,30.05,NNE,22,0.0,0.0,0,0.00,,---,0.00,VWS V14.00,2013-10-04 16:06:00,
2013-10-04 12:07:00,62.8,0.0,30.05,NNE,22,0.0,0.0,0,0.00,,---,0.00,VWS V14.00,2013-10-04 16:07:00,
2013-10-04 12:08:00,62.6,0.0,30.05,NNE,22,0.0,0.0,0,0.00,,---,0.00,VWS V14.00,2013-10-04 16:08:00,
2013-10-04 12:09:00,62.8,0.0,30.05,NNE,22,0.0,0.0,0,0.00,,---,0.00,VWS V14.00,2013-10-04 16:09:00,
2013-10-04 12:10:00,62.9,0.0,30.05,NNE,22,0.0,0.0,0,0.00,,---,0.00,VWS V14.00,2013-10-04 16:10:00,
2013-10-04 12:11:00,62.8,0.0,30.05,NNE,22,0.0,0.0,0,0.00,,---,0.00,VWS V14.00,2013-10-04 16:11:00,
2013-10-04 12:12:00,62.7,0.0,30.05,NNE,22,0.0,0.0,0,0.00,,---,0.00,VWS V14.00,2013-10-04 16:12:00,
2013-10-04 12:13:00,62.6,0.0,30.05,NNE,22,0.0,0.0,0,0.00,,---,0.00,VWS V14.00,2013-10-04 16:13:00,
2013-10-04 12:14:00,62.8,0.0,30.05,NNE,22,0.0,0.0,0,0.00,,---,0.00,VWS V14.00,2013-10-04 16:14:00,
2013-10-04 12:15:00,62.9,0.0,30.05,NNE,22,0.0,0.0,0,0.00,,---,0.00,VWS V14.00,2013-10-04 16:15:00,
2013-10-04 12:16:00,63.0,0.0,30.04,NNE,22,0.0,0.0,0,0.00,,---,0.00,VWS V14.00,2013-10-04 16:16:00,
2013-10-04 12:17:00,63.1,0.0,30.04,NNE,22,0.0,0.0,0,0.00,,---,0.00,VWS V14.00,2013-10-04 16:17:00,
2013-10-04 12:18:00,63.3,0.0,30.04,NNE,22,0.0,0.0,0,0.00,,---,0.00,VWS V14.00,2013-10-04 16:18:00,
2013-10-04 12:19:00,63.4,0.0,30.04,NNE,22,0.0,0.0,0,0.00,,---,0.00,VWS V14.00,2013-10-04 16:19:00,
2013-10-04 12:20:00,63.5,0.0,30.04,NNE,22,0.0,0.0,0,0.00,,---,0.00,VWS V14.00,2013-10-04 16:20:00,
2013-10-04 12:21:00,63.1,0.0,30.04,NNE,22,0.0,0.0,0,0.00,,---,0.00,VWS V14.00,2013-10-04 16:21:00,
2013-10-04 12:22:00,62.9,0.0,30.04,NNE,22,0.0,0.0,0,0.00,,---,0.00,VWS V14.00,2013-10-04 16:22:00,
2013-10-04 12:23:00,62.9,0.0,30.04,NNE,22,0.0,0.0,0,0.00,,---,0.00,VWS V14.00,2013-10-04 16:23:00,
2013-10-04 12:24:00,63.2,0.0,30.04,NNE,22,0.0,0.0,0,0.00,,---,0.00,VWS V14.00,2013-10-04 16:24:00,
2013-10-04 12:25:00,63.3,0.0,30.04,NNE,22,0.0,0.0,0,0.00,,---,0.00,VWS V14.00,2013-10-04 16:25:00,
2013-10-04 12:26:00,63.3,0.0,30.04,NNE,22,0.0,0.0,0,0.00,,---,0.00,VWS V14.00,2013-10-04 16:26:00,
2013-10-04 12:27:00,63.1,0.0,30.04,NNE,22,0.0,0.0,0,0.00,,---,0.00,VWS V14.00,2013-10-04 16:27:00,
2013-10-04 12:28:00,62.9,0.0,30.04,NNE,22,0.0,0.0,0,0.00,,---,0.00,VWS V14.00,2013-10-04 16:28:00,
2013-10-04 12:29:00,63.0,0.0,30.04,NNE,22,0.0,0.0,0,0.00,,---,0.00,VWS V14.00,2013-10-04 16:29:00,
2013-10-04 12:30:00,63.1,0.0,30.04,NNE,22,0.0,0.0,0,0.00,,---,0.00,VWS V14.00,2013-10-04 16:30:00,
2013-10-04 12:31:00,63.1,0.0,30.04,NNE,22,0.0,0.0,0,0.00,,---,0.00,VWS V14.00,2013-10-04 16:31:00,
2013-10-04 12:32:00,63.2,0.0,30.04,NNE,22,0.0,0.0,0,0.00,,---,0.00,VWS V14.00,2013-10-04 16:32:00,
2013-10-04 12:33:00,63.4,0.0,30.04,NNE,22,0.0,0.0,0,0.00,,---,0.00,VWS V14.00,2013-10-04 16:33:00,
2013-10-04 12:34:00,63.5,0.0,30.04,NNE,22,0.0,0.0,0,0.00,,---,0.00,VWS V14.00,2013-10-04 16:34:00,
2013-10-04 12:35:00,63.5,0.0,30.03,NNE,22,0.0,0.0,0,0.00,,---,0.00,VWS V14.00,2013-10-04 16:35:00,
2013-10-04 12:36:00,63.4,0.0,30.03,NNE,22,0.0,0.0,0,0.00,,---,0.00,VWS V14.00,2013-10-04 16:36:00,
2013-10-04 12:37:00,63.5,0.0,30.03,NNE,22,0.0,0.0,0,0.00,,---,0.00,VWS V14.00,2013-10-04 16:37:00,
2013-10-04 12:38:00,63.6,0.0,30.03,NNE,22,0.0,0.0,0,0.00,,---,0.00,VWS V14.00,2013-10-04 16:38:00,
2013-10-04 12:39:00,63.7,0.0,30.03,NNE,22,0.0,0.0,0,0.00,,---,0.00,VWS V14.00,2013-10-04 16:39:00,
2013-10-04 12:40:00,63.8,0.0,30.03,NNE,22,0.0,0.0,0,0.00,,---,0.00,VWS V14.00,2013-10-04 16:40:00,
2013-10-04 12:41:00,63.9,0.0,30.03,NNE,22,0.0,0.0,0,0.00,,---,0.00,VWS V14.00,2013-10-04 16:41:00,
2013-10-04 12:42:00,64.0,0.0,30.03,NNE,22,0.0,0.0,0,0.00,,---,0.00,VWS V14.00,2013-10-04 16:42:00,
2013-10-04 12:43:00,64.1,0.0,30.03,NNE,22,0.0,0.0,0,0.00,,---,0.00,VWS V14.00,2013-10-04 16:43:00,
2013-10-04 12:44:00,63.8,0.0,30.03,NNE,22,0.0,0.0,0,0.00,,---,0.00,VWS V14.00,2013-10-04 16:44:00,
2013-10-04 12:45:00,63.4,0.0,30.03,NNE,22,0.0,0.0,0,0.00,,---,0.00,VWS V14.00,2013-10-04 16:45:00,
2013-10-04 12:46:00,63.5,0.0,30.03,NNE,22,0.0,0.0,0,0.00,,---,0.00,VWS V14.00,2013-10-04 16:46:00,
2013-10-04 12:47:00,63.6,0.0,30.03,NNE,22,0.0,0.0,0,0.00,,---,0.00,VWS V14.00,2013-10-04 16:47:00,
2013-10-04 12:48:00,63.5,0.0,30.03,NNE,22,0.0,0.0,0,0.00,,---,0.00,VWS V14.00,2013-10-04 16:48:00,
2013-10-04 12:49:00,63.8,0.0,30.03,NNE,22,0.0,0.0,0,0.00,,---,0.00,VWS V14.00,2013-10-04 16:49:00,
2013-10-04 13:10:00,62.3,0.0,30.02,NNE,22,0.0,0.0,0,0.00,,---,0.00,VWS V14.00,2013-10-04 17:10:00,
2013-10-04 13:11:00,62.3,0.0,30.02,NNE,22,0.0,0.0,0,0.00,,---,0.00,VWS V14.00,2013-10-04 17:11:00,
2013-10-04 13:12:00,62.2,0.0,30.02,NNE,22,0.0,0.0,0,0.00,,---,0.00,VWS V14.00,2013-10-04 17:12:00,
2013-10-04 13:13:00,62.3,0.0,30.02,NNE,22,0.0,0.0,0,0.00,,---,0.00,VWS V14.00,2013-10-04 17:13:00,
2013-10-04 13:14:00,62.3,0.0,30.02,NNE,22,0.0,0.0,0,0.00,,---,0.00,VWS V14.00,2013-10-04 17:14:00,
2013-10-04 13:15:00,62.4,0.0,30.02,NNE,22,0.0,0.0,0,0.00,,---,0.00,VWS V14.00,2013-10-04 17:15:00,
2013-10-04 13:16:00,62.2,0.0,30.02,NNE,22,0.0,0.0,0,0.00,,---,0.00,VWS V14.00,2013-10-04 17:16:00,
2013-10-04 13:17:00,62.0,0.0,30.02,NNE,22,0.0,0.0,0,0.00,,---,0.00,VWS V14.00,2013-10-04 17:17:00,
2013-10-04 13:18:00,61.9,0.0,30.02,NNE,22,0.0,0.0,0,0.00,,---,0.00,VWS V14.00,2013-10-04 17:18:00,
2013-10-04 13:19:00,62.1,0.0,30.02,NNE,22,0.0,0.0,0,0.00,,---,0.00,VWS V14.00,2013-10-04 17:19:00,
2013-10-04 13:20:00,62.2,0.0,30.02,NNE,22,0.0,0.0,0,0.00,,---,0.00,VWS V14.00,2013-10-04 17:20:00,
2013-10-04 13:21:00,62.3,0.0,30.02,NNE,22,0.0,0.0,0,0.00,,---,0.00,VWS V14.00,2013-10-04 17:21:00,
2013-10-04 13:22:00,62.4,0.0,30.02,NNE,22,0.0,0.0,0,0.00,,---,0.00,VWS V14.00,2013-10-04 17:22:00,
2013-10-04 13:23:00,62.5,0.0,30.02,NNE,22,0.0,0.0,0,0.00,,---,0.00,VWS V14.00,2013-10-04 17:23:00,
2013-10-04 13:24:00,62.6,0.0,30.02,NNE,22,0.0,0.0,0,0.00,,---,0.00,VWS V14.00,2013-10-04 17:24:00,
2013-10-04 13:25:00,62.6,0.0,30.02,NNE,22,0.0,0.0,0,0.00,,---,0.00,VWS V14.00,2013-10-04 17:25:00,
2013-10-04 13:26:00,62.7,0.0,30.02,NNE,22,0.0,0.0,0,0.00,,---,0.00,VWS V14.00,2013-10-04 17:26:00,
2013-10-04 13:27:00,62.7,0.0,30.02,NNE,22,0.0,0.0,0,0.00,,---,0.00,VWS V14.00,2013-10-04 17:27:00,
2013-10-04 13:28:00,62.6,0.0,30.02,NNE,22,0.0,0.0,0,0.00,,---,0.00,VWS V14.00,2013-10-04 17:28:00,
2013-10-04 13:29:00,62.5,0.0,30.02,NNE,22,0.0,0.0,0,0.00,,---,0.00,VWS V14.00,2013-10-04 17:29:00,
2013-10-04 13:30:00,62.5,0.0,30.02,NNE,22,0.0,0.0,0,0.00,,---,0.00,VWS V14.00,2013-10-04 17:30:00,
2013-10-04 13:31:00,62.4,0.0,30.02,NNE,22,0.0,0.0,0,0.00,,---,0.00,VWS V14.00,2013-10-04 17:31:00,
2013-10-04 13:32:00,62.4,0.0,30.02,NNE,22,0.0,0.0,0,0.00,,---,0.00,VWS V14.00,2013-10-04 17:32:00,
2013-10-04 13:33:00,62.5,0.0,30.02,NNE,22,0.0,0.0,0,0.00,,---,0.00,VWS V14.00,2013-10-04 17:33:00,
2013-10-04 13:34:00,62.6,0.0,30.02,NNE,22,0.0,0.0,0,0.00,,---,0.00,VWS V14.00,2013-10-04 17:34:00,
2013-10-04 13:35:00,62.6,0.0,30.02,NNE,22,0.0,0.0,0,0.00,,---,0.00,VWS V14.00,2013-10-04 17:35:00,
2013-10-04 13:36:00,62.7,0.0,30.02,NNE,22,0.0,0.0,0,0.00,,---,0.00,VWS V14.00,2013-10-04 17:36:00,
2013-10-04 13:37:00,62.7,0.0,30.02,NNE,22,0.0,0.0,0,0.00,,---,0.00,VWS V14.00,2013-10-04 17:37:00,
2013-10-04 13:38:00,62.7,0.0,30.02,NNE,22,0.0,0.0,0,0.00,,---,0.00,VWS V14.00,2013-10-04 17:38:00,
2013-10-04 13:39:00,62.5,0.0,30.02,NNE,22,0.0,0.0,0,0.00,,---,0.00,VWS V14.00,2013-10-04 17:39:00,
2013-10-04 13:40:00,62.5,0.0,30.02,NNE,22,0.0,0.0,0,0.00,,---,0.00,VWS V14.00,2013-10-04 17:40:00,
2013-10-04 13:41:00,62.5,0.0,30.02,NNE,22,0.0,0.0,0,0.00,,---,0.00,VWS V14.00,2013-10-04 17:41:00,
2013-10-04 13:42:00,62.7,0.0,30.02,NNE,22,0.0,0.0,0,0.00,,---,0.00,VWS V14.00,2013-10-04 17:42:00,
2013-10-04 13:43:00,63.0,0.0,30.02,NNE,22,0.0,0.0,0,0.00,,---,0.00,VWS V14.00,2013-10-04 17:43:00,
2013-10-04 13:44:00,63.2,0.0,30.02,NNE,22,0.0,0.0,0,0.00,,---,0.00,VWS V14.00,2013-10-04 17:44:00,
2013-10-04 13:45:00,63.4,0.0,30.02,NNE,22,0.0,0.0,0,0.00,,---,0.00,VWS V14.00,2013-10-04 17:45:00,
2013-10-04 13:46:00,63.7,0.0,30.02,NNE,22,0.0,0.0,0,0.00,,---,0.00,VWS V14.00,2013-10-04 17:46:00,
2013-10-04 13:47:00,63.7,0.0,30.02,NNE,22,0.0,0.0,0,0.00,,---,0.00,VWS V14.00,2013-10-04 17:47:00,
2013-10-04 13:48:00,63.7,0.0,30.02,NNE,22,0.0,0.0,0,0.00,,---,0.00,VWS V14.00,2013-10-04 17:48:00,
2013-10-04 13:49:00,63.9,0.0,30.02,SSW,202,0.0,0.0,0,0.00,,---,0.00,VWS V14.00,2013-10-04 17:49:00,
2013-10-04 13:50:00,64.0,0.0,30.02,SSW,202,0.0,4.3,0,0.00,,---,0.00,VWS V14.00,2013-10-04 17:50:00,
2013-10-04 13:51:00,64.1,0.0,30.02,SSW,202,0.0,4.3,0,0.00,,---,0.00,VWS V14.00,2013-10-04 17:51:00,
2013-10-04 13:52:00,64.4,0.0,30.02,SSW,202,0.0,4.3,0,0.00,,---,0.00,VWS V14.00,2013-10-04 17:52:00,
2013-10-04 13:53:00,64.7,0.0,30.02,SSW,202,0.0,4.3,0,0.00,,---,0.00,VWS V14.00,2013-10-04 17:53:00,
2013-10-04 13:54:00,64.7,0.0,30.02,SSW,202,0.0,4.3,0,0.00,,---,0.00,VWS V14.00,2013-10-04 17:54:00,
2013-10-04 13:55:00,64.9,0.0,30.02,SSW,202,0.0,0.0,0,0.00,,---,0.00,VWS V14.00,2013-10-04 17:55:00,
2013-10-04 13:56:00,65.0,0.0,30.02,SSW,202,0.0,0.0,0,0.00,,---,0.00,VWS V14.00,2013-10-04 17:56:00,
2013-10-04 13:57:00,65.2,0.0,30.02,SSW,202,0.0,0.0,0,0.00,,---,0.00,VWS V14.00,2013-10-04 17:57:00,
2013-10-04 13:58:00,65.7,0.0,30.02,SSW,202,0.0,0.0,0,0.00,,---,0.00,VWS V14.00,2013-10-04 17:58:00,
2013-10-04 13:59:00,65.3,0.0,30.01,SSW,202,0.0,0.0,0,0.00,,---,0.00,VWS V14.00,2013-10-04 17:59:00,
2013-10-04 14:00:00,65.8,0.0,30.01,SW,226,3.4,3.4,0,0.00,,---,0.00,VWS V14.00,2013-10-04 18:00:00,
2013-10-04 14:01:00,66.2,0.0,30.02,South,180,0.0,3.4,0,0.00,,---,0.00,VWS V14.00,2013-10-04 18:01:00,
2013-10-04 14:02:00,66.2,0.0,30.01,SW,219,3.2,3.4,0,0.00,,---,0.00,VWS V14.00,2013-10-04 18:02:00,
2013-10-04 14:03:00,65.8,0.0,30.02,SW,224,6.3,6.3,0,0.00,,---,0.00,VWS V14.00,2013-10-04 18:03:00,
2013-10-04 14:04:00,65.4,0.0,30.02,WSW,238,3.0,3.4,0,0.00,,---,0.00,VWS V14.00,2013-10-04 18:04:00,
2013-10-04 14:05:00,65.6,0.0,30.01,SW,226,4.6,6.5,0,0.00,,---,0.00,VWS V14.00,2013-10-04 18:05:00,
2013-10-04 14:06:00,65.9,0.0,30.01,WSW,243,5.7,6.5,0,0.00,,---,0.00,VWS V14.00,2013-10-04 18:06:00,
2013-10-04 14:07:00,66.1,0.0,30.01,SW,226,3.5,6.5,0,0.00,,---,0.00,VWS V14.00,2013-10-04 18:07:00,
2013-10-04 14:08:00,66.1,0.0,30.01,WSW,248,0.0,6.5,0,0.00,,---,0.00,VWS V14.00,2013-10-04 18:08:00,
2013-10-04 14:09:00,66.2,0.0,30.01,SSW,210,3.2,6.5,0,0.00,,---,0.00,VWS V14.00,2013-10-04 18:09:00,
2013-10-04 14:10:00,66.2,0.0,30.01,South,188,0.0,6.3,0,0.00,,---,0.00,VWS V14.00,2013-10-04 18:10:00,
2013-10-04 14:11:00,66.3,0.0,30.01,South,188,0.0,6.3,0,0.00,,---,0.00,VWS V14.00,2013-10-04 18:11:00,
2013-10-04 14:12:00,66.2,0.0,30.01,South,188,0.0,6.3,0,0.00,,---,0.00,VWS V14.00,2013-10-04 18:12:00,
2013-10-04 14:13:00,65.8,0.0,30.01,SW,224,3.0,6.3,0,0.00,,---,0.00,VWS V14.00,2013-10-04 18:13:00,
2013-10-04 14:14:00,65.3,0.0,30.01,SW,224,0.0,6.3,0,0.00,,---,0.00,VWS V14.00,2013-10-04 18:14:00,
2013-10-04 14:15:00,65.1,0.0,30.01,SW,224,0.0,3.0,0,0.00,,---,0.00,VWS V14.00,2013-10-04 18:15:00,
2013-10-04 14:16:00,64.7,0.0,30.01,SW,224,0.0,3.0,0,0.00,,---,0.00,VWS V14.00,2013-10-04 18:16:00,
2013-10-04 14:17:00,64.8,0.0,30.01,SW,224,0.0,3.0,0,0.00,,---,0.00,VWS V14.00,2013-10-04 18:17:00,
2013-10-04 14:18:00,64.7,0.0,30.01,SW,224,0.0,3.0,0,0.00,,---,0.00,VWS V14.00,2013-10-04 18:18:00,
2013-10-04 14:19:00,64.9,0.0,30.01,SSW,202,0.0,3.0,0,0.00,,---,0.00,VWS V14.00,2013-10-04 18:19:00,
2013-10-04 14:20:00,64.9,0.0,30.01,SSW,202,0.0,3.3,0,0.00,,---,0.00,VWS V14.00,2013-10-04 18:20:00,
2013-10-04 14:21:00,65.2,0.0,30.01,SSW,202,0.0,3.3,0,0.00,,---,0.00,VWS V14.00,2013-10-04 18:21:00,
2013-10-04 14:22:00,65.5,0.0,30.01,SSW,202,0.0,3.3,0,0.00,,---,0.00,VWS V14.00,2013-10-04 18:22:00,
2013-10-04 14:23:00,65.9,0.0,30.02,SSW,202,0.0,3.3,0,0.00,,---,0.00,VWS V14.00,2013-10-04 18:23:00,
2013-10-04 14:24:00,65.9,0.0,30.02,SSW,202,0.0,3.3,0,0.00,,---,0.00,VWS V14.00,2013-10-04 18:24:00,
2013-10-04 14:25:00,65.7,0.0,30.02,SSW,202,0.0,0.0,0,0.00,,---,0.00,VWS V14.00,2013-10-04 18:25:00,
2013-10-04 14:26:00,65.5,0.0,30.02,SSW,202,0.0,0.0,0,0.00,,---,0.00,VWS V14.00,2013-10-04 18:26:00,
2013-10-04 14:27:00,65.6,0.0,30.02,SSW,202,0.0,0.0,0,0.00,,---,0.00,VWS V14.00,2013-10-04 18:27:00,
2013-10-04 14:28:00,65.4,0.0,30.02,SSW,202,0.0,0.0,0,0.00,,---,0.00,VWS V14.00,2013-10-04 18:28:00,
2013-10-04 14:29:00,65.1,0.0,30.02,SSW,202,0.0,0.0,0,0.00,,---,0.00,VWS V14.00,2013-10-04 18:29:00,
2013-10-04 14:30:00,65.3,0.0,30.02,SSW,202,0.0,0.0,0,0.00,,---,0.00,VWS V14.00,2013-10-04 18:30:00,
2013-10-04 14:31:00,65.1,0.0,30.02,SSW,202,0.0,0.0,0,0.00,,---,0.00,VWS V14.00,2013-10-04 18:31:00,
2013-10-04 14:32:00,64.7,0.0,30.02,SSW,202,0.0,0.0,0,0.00,,---,0.00,VWS V14.00,2013-10-04 18:32:00,
2013-10-04 14:33:00,64.8,0.0,30.01,SSW,202,0.0,0.0,0,0.00,,---,0.00,VWS V14.00,2013-10-04 18:33:00,
2013-10-04 14:34:00,64.6,0.0,30.01,SSW,202,0.0,0.0,0,0.00,,---,0.00,VWS V14.00,2013-10-04 18:34:00,
2013-10-04 14:35:00,64.8,0.0,30.01,SSW,202,0.0,0.0,0,0.00,,---,0.00,VWS V14.00,2013-10-04 18:35:00,
2013-10-04 14:36:00,64.6,0.0,30.01,SSW,202,0.0,0.0,0,0.00,,---,0.00,VWS V14.00,2013-10-04 18:36:00,
2013-10-04 14:37:00,64.3,0.0,30.02,South,179,0.0,0.0,0,0.00,,---,0.00,VWS V14.00,2013-10-04 18:37:00,
2013-10-04 14:38:00,64.1,0.0,30.01,South,179,0.0,0.0,0,0.00,,---,0.00,VWS V14.00,2013-10-04 18:38:00,
2013-10-04 14:39:00,63.9,0.0,30.01,SSE,148,3.0,0.0,0,0.00,,---,0.00,VWS V14.00,2013-10-04 18:39:00,
2013-10-04 14:40:00,63.6,0.0,30.01,SSE,148,0.0,0.0,0,0.00,,---,0.00,VWS V14.00,2013-10-04 18:40:00,
2013-10-04 14:41:00,63.6,0.0,30.01,SSE,148,0.0,4.7,0,0.00,,---,0.00,VWS V14.00,2013-10-04 18:41:00,
2013-10-04 14:42:00,63.6,0.0,30.02,SSE,148,0.0,4.7,0,0.00,,---,0.00,VWS V14.00,2013-10-04 18:42:00,
2013-10-04 14:43:00,63.9,0.0,30.02,SSE,148,0.0,4.7,0,0.00,,---,0.00,VWS V14.00,2013-10-04 18:43:00,
2013-10-04 14:44:00,63.9,0.0,30.02,SSE,148,0.0,4.7,0,0.00,,---,0.00,VWS V14.00,2013-10-04 18:44:00,
2013-10-04 14:45:00,63.9,0.0,30.02,SSE,148,0.0,0.0,0,0.00,,---,0.00,VWS V14.00,2013-10-04 18:45:00,
2013-10-04 14:46:00,64.0,0.0,30.02,SSE,148,0.0,0.0,0,0.00,,---,0.00,VWS V14.00,2013-10-04 18:46:00,
2013-10-04 14:47:00,63.9,0.0,30.02,SSE,148,0.0,0.0,0,0.00,,---,0.00,VWS V14.00,2013-10-04 18:47:00,
2013-10-04 14:48:00,63.7,0.0,30.02,SSE,148,0.0,0.0,0,0.00,,---,0.00,VWS V14.00,2013-10-04 18:48:00,
2013-10-04 14:49:00,63.4,0.0,30.02,SSE,148,0.0,0.0,0,0.00,,---,0.00,VWS V14.00,2013-10-04 18:49:00,
2013-10-04 14:50:00,63.4,0.0,30.02,SSE,148,0.0,0.0,0,0.00,,---,0.00,VWS V14.00,2013-10-04 18:50:00,
2013-10-04 14:51:00,63.4,0.0,30.02,SSE,148,0.0,0.0,0,0.00,,---,0.00,VWS V14.00,2013-10-04 18:51:00,
2013-10-04 14:52:00,63.6,0.0,30.02,SSE,148,0.0,0.0,0,0.00,,---,0.00,VWS V14.00,2013-10-04 18:52:00,
2013-10-04 14:53:00,63.7,0.0,30.01,SSE,148,0.0,0.0,0,0.00,,---,0.00,VWS V14.00,2013-10-04 18:53:00,
2013-10-04 14:54:00,63.7,0.0,30.02,SSE,148,0.0,0.0,0,0.00,,---,0.00,VWS V14.00,2013-10-04 18:54:00,
2013-10-04 14:55:00,63.6,0.0,30.02,SSE,148,0.0,0.0,0,0.00,,---,0.00,VWS V14.00,2013-10-04 18:55:00,
2013-10-04 14:56:00,63.5,0.0,30.01,SSE,148,0.0,0.0,0,0.00,,---,0.00,VWS V14.00,2013-10-04 18:56:00,
2013-10-04 14:57:00,63.5,0.0,30.02,SSE,148,0.0,0.0,0,0.00,,---,0.00,VWS V14.00,2013-10-04 18:57:00,
2013-10-04 14:58:00,63.9,0.0,30.01,SSE,148,0.0,0.0,0,0.00,,---,0.00,VWS V14.00,2013-10-04 18:58:00,
2013-10-04 14:59:00,64.1,0.0,30.02,SSE,148,0.0,0.0,0,0.00,,---,0.00,VWS V14.00,2013-10-04 18:59:00,
2013-10-04 15:00:00,63.7,0.0,30.02,SSE,148,0.0,0.0,0,0.00,,---,0.00,VWS V14.00,2013-10-04 19:00:00,
2013-10-04 15:01:00,63.7,0.0,30.02,SSE,148,0.0,0.0,0,0.00,,---,0.00,VWS V14.00,2013-10-04 19:01:00,
2013-10-04 15:02:00,64.0,0.0,30.02,SSE,148,0.0,0.0,0,0.00,,---,0.00,VWS V14.00,2013-10-04 19:02:00,
2013-10-04 15:03:00,64.3,0.0,30.02,SSE,148,0.0,0.0,0,0.00,,---,0.00,VWS V14.00,2013-10-04 19:03:00,
2013-10-04 15:04:00,64.3,0.0,30.02,SSE,148,0.0,0.0,0,0.00,,---,0.00,VWS V14.00,2013-10-04 19:04:00,
2013-10-04 15:05:00,64.2,0.0,30.02,SSE,148,0.0,0.0,0,0.00,,---,0.00,VWS V14.00,2013-10-04 19:05:00,
2013-10-04 15:06:00,64.1,0.0,30.02,SSE,148,0.0,0.0,0,0.00,,---,0.00,VWS V14.00,2013-10-04 19:06:00,
2013-10-04 15:07:00,64.1,0.0,30.02,SSE,148,0.0,0.0,0,0.00,,---,0.00,VWS V14.00,2013-10-04 19:07:00,
2013-10-04 15:08:00,64.2,0.0,30.02,SSE,148,0.0,0.0,0,0.00,,---,0.00,VWS V14.00,2013-10-04 19:08:00,
2013-10-04 15:09:00,64.1,0.0,30.01,SSE,148,0.0,0.0,0,0.00,,---,0.00,VWS V14.00,2013-10-04 19:09:00,
2013-10-04 15:10:00,64.2,0.0,30.01,SSE,148,0.0,0.0,0,0.00,,---,0.00,VWS V14.00,2013-10-04 19:10:00,
2013-10-04 15:11:00,64.1,0.0,30.01,SSE,148,0.0,0.0,0,0.00,,---,0.00,VWS V14.00,2013-10-04 19:11:00,
2013-10-04 15:12:00,63.6,0.0,30.01,SSE,148,0.0,0.0,0,0.00,,---,0.00,VWS V14.00,2013-10-04 19:12:00,
2013-10-04 15:13:00,63.6,0.0,30.01,SSE,148,0.0,0.0,0,0.00,,---,0.00,VWS V14.00,2013-10-04 19:13:00,
2013-10-04 15:14:00,63.4,0.0,30.01,SSE,148,0.0,0.0,0,0.00,,---,0.00,VWS V14.00,2013-10-04 19:14:00,
2013-10-04 15:15:00,63.5,0.0,30.01,SSE,148,0.0,0.0,0,0.00,,---,0.00,VWS V14.00,2013-10-04 19:15:00,
2013-10-04 15:16:00,64.1,0.0,30.01,SSE,148,0.0,0.0,0,0.00,,---,0.00,VWS V14.00,2013-10-04 19:16:00,
2013-10-04 15:17:00,64.6,0.0,30.01,SSE,148,0.0,0.0,0,0.00,,---,0.00,VWS V14.00,2013-10-04 19:17:00,
2013-10-04 15:18:00,64.8,0.0,30.01,SSE,148,0.0,0.0,0,0.00,,---,0.00,VWS V14.00,2013-10-04 19:18:00,
2013-10-04 15:19:00,65.1,0.0,30.01,SSE,148,0.0,0.0,0,0.00,,---,0.00,VWS V14.00,2013-10-04 19:19:00,
2013-10-04 15:20:00,65.2,0.0,30.01,SSE,148,0.0,2.4,0,0.00,,---,0.00,VWS V14.00,2013-10-04 19:20:00,
2013-10-04 15:21:00,65.1,0.0,30.01,SSE,148,0.0,2.4,0,0.00,,---,0.00,VWS V14.00,2013-10-04 19:21:00,
2013-10-04 15:22:00,65.4,0.0,30.01,SSE,148,0.0,2.4,0,0.00,,---,0.00,VWS V14.00,2013-10-04 19:22:00,
2013-10-04 15:23:00,65.4,0.0,30.01,SW,222,3.1,3.1,0,0.00,,---,0.00,VWS V14.00,2013-10-04 19:23:00,
2013-10-04 15:24:00,65.4,0.0,30.01,SSW,210,0.0,2.4,0,0.00,,---,0.00,VWS V14.00,2013-10-04 19:24:00,
2013-10-04 15:25:00,65.6,0.0,30.02,SW,219,0.0,4.2,0,0.00,,---,0.00,VWS V14.00,2013-10-04 19:25:00,
2013-10-04 15:26:00,65.2,0.0,30.01,WSW,239,2.6,4.2,0,0.00,,---,0.00,VWS V14.00,2013-10-04 19:26:00,
2013-10-04 15:27:00,65.2,0.0,30.01,WSW,239,0.0,4.2,0,0.00,,---,0.00,VWS V14.00,2013-10-04 19:27:00,
2013-10-04 15:28:00,65.4,0.0,30.02,SSW,194,3.3,4.2,0,0.00,,---,0.00,VWS V14.00,2013-10-04 19:28:00,
2013-10-04 15:29:00,65.6,0.0,30.02,SSW,194,0.0,4.2,0,0.00,,---,0.00,VWS V14.00,2013-10-04 19:29:00,
2013-10-04 15:30:00,65.8,0.0,30.02,West,269,2.1,5.8,0,0.00,,---,0.00,VWS V14.00,2013-10-04 19:30:00,
2013-10-04 15:31:00,65.7,0.0,30.02,SW,228,3.3,5.8,0,0.00,,---,0.00,VWS V14.00,2013-10-04 19:31:00,
2013-10-04 15:32:00,65.6,0.0,30.02,WSW,243,3.4,5.8,0,0.00,,---,0.00,VWS V14.00,2013-10-04 19:32:00,
2013-10-04 15:33:00,65.5,0.0,30.02,WSW,245,3.3,5.8,0,0.00,,---,0.00,VWS V14.00,2013-10-04 19:33:00,
2013-10-04 15:34:00,65.5,0.0,30.02,West,270,3.5,5.8,0,0.00,,---,0.00,VWS V14.00,2013-10-04 19:34:00,
2013-10-04 15:35:00,65.4,0.0,30.02,SW,219,4.8,5.4,0,0.00,,---,0.00,VWS V14.00,2013-10-04 19:35:00,
2013-10-04 15:36:00,65.3,0.0,30.02,SW,219,4.9,5.4,0,0.00,,---,0.00,VWS V14.00,2013-10-04 19:36:00,
2013-10-04 15:37:00,65.2,0.0,30.02,WSW,240,4.5,5.4,0,0.00,,---,0.00,VWS V14.00,2013-10-04 19:37:00,
2013-10-04 15:38:00,65.0,0.0,30.02,SW,221,3.4,5.4,0,0.00,,---,0.00,VWS V14.00,2013-10-04 19:38:00,
2013-10-04 15:39:00,65.1,0.0,30.02,SW,226,5.2,5.4,0,0.00,,---,0.00,VWS V14.00,2013-10-04 19:39:00,
2013-10-04 15:40:00,65.0,0.0,30.02,SSW,211,3.5,5.4,0,0.00,,---,0.00,VWS V14.00,2013-10-04 19:40:00,
2013-10-04 15:41:00,65.0,0.0,30.02,WSW,246,2.5,6.5,0,0.00,,---,0.00,VWS V14.00,2013-10-04 19:41:00,
2013-10-04 15:42:00,64.8,0.0,30.02,SW,222,5.0,6.5,0,0.00,,---,0.00,VWS V14.00,2013-10-04 19:42:00,
2013-10-04 15:43:00,64.9,0.0,30.02,SW,226,0.0,6.5,0,0.00,,---,0.00,VWS V14.00,2013-10-04 19:43:00,
2013-10-04 15:44:00,64.9,0.0,30.02,SW,219,3.4,6.5,0,0.00,,---,0.00,VWS V14.00,2013-10-04 19:44:00,
2013-10-04 15:45:00,64.8,0.0,30.02,SW,232,5.3,6.0,0,0.00,,---,0.00,VWS V14.00,2013-10-04 19:45:00,
2013-10-04 15:46:00,64.9,0.0,30.02,West,263,3.1,6.0,0,0.00,,---,0.00,VWS V14.00,2013-10-04 19:46:00,
2013-10-04 15:47:00,64.8,0.0,30.02,West,263,0.0,6.0,0,0.00,,---,0.00,VWS V14.00,2013-10-04 19:47:00,
2013-10-04 15:48:00,64.8,0.0,30.02,West,263,0.0,6.0,0,0.00,,---,0.00,VWS V14.00,2013-10-04 19:48:00,
2013-10-04 15:49:00,64.7,0.0,30.02,WNW,290,0.0,6.0,0,0.00,,---,0.00,VWS V14.00,2013-10-04 19:49:00,
2013-10-04 15:50:00,64.5,0.0,30.02,SW,236,0.0,5.6,0,0.00,,---,0.00,VWS V14.00,2013-10-04 19:50:00,
2013-10-04 15:51:00,64.5,0.0,30.02,SW,221,0.0,5.6,0,0.00,,---,0.00,VWS V14.00,2013-10-04 19:51:00,
2013-10-04 15:52:00,64.6,0.0,30.02,West,270,0.0,5.6,0,0.00,,---,0.00,VWS V14.00,2013-10-04 19:52:00,
2013-10-04 15:53:00,64.7,0.0,30.02,WSW,252,0.0,5.6,0,0.00,,---,0.00,VWS V14.00,2013-10-04 19:53:00,
2013-10-04 15:54:00,65.0,0.0,30.02,WSW,252,0.0,5.6,0,0.00,,---,0.00,VWS V14.00,2013-10-04 19:54:00,
2013-10-04 15:55:00,65.1,0.0,30.02,WSW,252,0.0,4.7,0,0.00,,---,0.00,VWS V14.00,2013-10-04 19:55:00,
2013-10-04 15:56:00,65.3,0.0,30.02,WSW,252,0.0,4.7,0,0.00,,---,0.00,VWS V14.00,2013-10-04 19:56:00,
2013-10-04 15:57:00,65.3,0.0,30.02,SSW,211,0.0,4.7,0,0.00,,---,0.00,VWS V14.00,2013-10-04 19:57:00,
2013-10-04 15:58:00,65.3,0.0,30.02,SSW,211,0.0,4.7,0,0.00,,---,0.00,VWS V14.00,2013-10-04 19:58:00,
2013-10-04 15:59:00,65.4,0.0,30.02,SSW,211,0.0,4.7,0,0.00,,---,0.00,VWS V14.00,2013-10-04 19:59:00,
2013-10-04 16:00:00,65.3,0.0,30.01,SSW,207,2.8,3.5,0,0.00,,---,0.00,VWS V14.00,2013-10-04 20:00:00,
2013-10-04 16:01:00,65.2,0.0,30.01,WSW,248,3.5,3.5,0,0.00,,---,0.00,VWS V14.00,2013-10-04 20:01:00,
2013-10-04 16:02:00,65.2,0.0,30.01,WSW,248,0.0,3.5,0,0.00,,---,0.00,VWS V14.00,2013-10-04 20:02:00,
2013-10-04 16:03:00,65.2,0.0,30.01,WSW,248,0.0,3.5,0,0.00,,---,0.00,VWS V14.00,2013-10-04 20:03:00,
2013-10-04 16:04:00,65.3,0.0,30.01,WSW,248,0.0,3.5,0,0.00,,---,0.00,VWS V14.00,2013-10-04 20:04:00,
2013-10-04 16:05:00,65.2,0.0,30.01,WSW,248,0.0,4.2,0,0.00,,---,0.00,VWS V14.00,2013-10-04 20:05:00,
2013-10-04 16:06:00,65.3,0.0,30.01,SW,225,0.0,4.2,0,0.00,,---,0.00,VWS V14.00,2013-10-04 20:06:00,
2013-10-04 16:07:00,65.5,0.0,30.01,SW,225,0.0,4.2,0,0.00,,---,0.00,VWS V14.00,2013-10-04 20:07:00,
2013-10-04 16:08:00,65.4,0.0,30.02,SW,225,0.0,4.2,0,0.00,,---,0.00,VWS V14.00,2013-10-04 20:08:00,
2013-10-04 16:09:00,65.6,0.0,30.01,SW,225,0.0,4.2,0,0.00,,---,0.00,VWS V14.00,2013-10-04 20:09:00,
2013-10-04 16:10:00,65.7,0.0,30.01,SW,225,0.0,3.1,0,0.00,,---,0.00,VWS V14.00,2013-10-04 20:10:00,
2013-10-04 16:11:00,65.9,0.0,30.01,SW,225,0.0,3.1,0,0.00,,---,0.00,VWS V14.00,2013-10-04 20:11:00,
2013-10-04 16:12:00,65.9,0.0,30.02,SW,225,0.0,3.1,0,0.00,,---,0.00,VWS V14.00,2013-10-04 20:12:00,
2013-10-04 16:13:00,65.7,0.0,30.02,SW,225,0.0,3.1,0,0.00,,---,0.00,VWS V14.00,2013-10-04 20:13:00,
2013-10-04 16:14:00,65.7,0.0,30.02,SW,225,0.0,3.1,0,0.00,,---,0.00,VWS V14.00,2013-10-04 20:14:00,
2013-10-04 16:15:00,65.9,0.0,30.02,SSW,204,0.0,2.7,0,0.00,,---,0.00,VWS V14.00,2013-10-04 20:15:00,
2013-10-04 16:16:00,66.0,0.0,30.02,SSW,204,0.0,2.7,0,0.00,,---,0.00,VWS V14.00,2013-10-04 20:16:00,
2013-10-04 16:17:00,66.0,0.0,30.02,West,274,0.0,2.7,0,0.00,,---,0.00,VWS V14.00,2013-10-04 20:17:00,
2013-10-04 16:18:00,65.9,0.0,30.02,West,274,0.0,2.7,0,0.00,,---,0.00,VWS V14.00,2013-10-04 20:18:00,
2013-10-04 16:19:00,65.9,0.0,30.02,West,274,0.0,2.7,0,0.00,,---,0.00,VWS V14.00,2013-10-04 20:19:00,
2013-10-04 16:20:00,66.0,0.0,30.02,West,274,0.0,3.2,0,0.00,,---,0.00,VWS V14.00,2013-10-04 20:20:00,
2013-10-04 16:21:00,65.9,0.0,30.02,West,274,0.0,3.2,0,0.00,,---,0.00,VWS V14.00,2013-10-04 20:21:00,
2013-10-04 16:22:00,65.8,0.0,30.02,West,274,0.0,3.2,0,0.00,,---,0.00,VWS V14.00,2013-10-04 20:22:00,
2013-10-04 16:23:00,65.7,0.0,30.02,West,274,0.0,3.2,0,0.00,,---,0.00,VWS V14.00,2013-10-04 20:23:00,
2013-10-04 16:24:00,65.7,0.0,30.02,West,274,0.0,3.2,0,0.00,,---,0.00,VWS V14.00,2013-10-04 20:24:00,
2013-10-04 16:25:00,65.7,0.0,30.02,West,274,0.0,0.0,0,0.00,,---,0.00,VWS V14.00,2013-10-04 20:25:00,
2013-10-04 16:26:00,65.6,0.0,30.02,West,274,0.0,0.0,0,0.00,,---,0.00,VWS V14.00,2013-10-04 20:26:00,
2013-10-04 16:27:00,65.4,0.0,30.02,West,274,0.0,0.0,0,0.00,,---,0.00,VWS V14.00,2013-10-04 20:27:00,
2013-10-04 16:28:00,65.3,0.0,30.02,West,274,0.0,0.0,0,0.00,,---,0.00,VWS V14.00,2013-10-04 20:28:00,
2013-10-04 16:29:00,65.0,0.0,30.02,West,274,0.0,0.0,0,0.00,,---,0.00,VWS V14.00,2013-10-04 20:29:00,
2013-10-04 16:30:00,64.8,0.0,30.02,West,274,0.0,0.0,0,0.00,,---,0.00,VWS V14.00,2013-10-04 20:30:00,
2013-10-04 16:31:00,64.9,0.0,30.02,West,274,0.0,0.0,0,0.00,,---,0.00,VWS V14.00,2013-10-04 20:31:00,
2013-10-04 16:32:00,64.7,0.0,30.02,West,274,0.0,0.0,0,0.00,,---,0.00,VWS V14.00,2013-10-04 20:32:00,
2013-10-04 16:33:00,64.7,0.0,30.02,West,274,0.0,0.0,0,0.00,,---,0.00,VWS V14.00,2013-10-04 20:33:00,
2013-10-04 16:34:00,64.7,0.0,30.02,SSW,211,2.2,0.0,0,0.00,,---,0.00,VWS V14.00,2013-10-04 20:34:00,
2013-10-04 16:35:00,64.7,0.0,30.02,WSW,242,2.1,4.2,0,0.00,,---,0.00,VWS V14.00,2013-10-04 20:35:00,
2013-10-04 16:36:00,64.6,0.0,30.02,SW,225,0.0,4.2,0,0.00,,---,0.00,VWS V14.00,2013-10-04 20:36:00,
2013-10-04 16:37:00,64.4,0.0,30.02,SW,217,3.5,4.2,0,0.00,,---,0.00,VWS V14.00,2013-10-04 20:37:00,
2013-10-04 16:38:00,64.2,0.0,30.02,SW,217,0.0,4.2,0,0.00,,---,0.00,VWS V14.00,2013-10-04 20:38:00,
2013-10-04 16:39:00,64.1,0.0,30.02,SW,217,0.0,4.2,0,0.00,,---,0.00,VWS V14.00,2013-10-04 20:39:00,
2013-10-04 16:40:00,64.1,0.0,30.02,SW,217,0.0,4.2,0,0.00,,---,0.00,VWS V14.00,2013-10-04 20:40:00,
2013-10-04 16:41:00,64.1,0.0,30.02,SW,217,0.0,4.7,0,0.00,,---,0.00,VWS V14.00,2013-10-04 20:41:00,
2013-10-04 16:42:00,64.1,0.0,30.02,SW,217,0.0,4.7,0,0.00,,---,0.00,VWS V14.00,2013-10-04 20:42:00,
2013-10-04 16:43:00,64.1,0.0,30.02,SW,217,0.0,4.7,0,0.00,,---,0.00,VWS V14.00,2013-10-04 20:43:00,
2013-10-04 16:44:00,64.1,0.0,30.02,SW,217,0.0,4.7,0,0.00,,---,0.00,VWS V14.00,2013-10-04 20:44:00,
2013-10-04 16:45:00,64.2,0.0,30.02,SW,217,0.0,4.7,0,0.00,,---,0.00,VWS V14.00,2013-10-04 20:45:00,
2013-10-04 16:46:00,64.3,0.0,30.02,SW,217,0.0,0.0,0,0.00,,---,0.00,VWS V14.00,2013-10-04 20:46:00,
2013-10-04 16:47:00,64.3,0.0,30.02,SW,236,2.0,0.0,0,0.00,,---,0.00,VWS V14.00,2013-10-04 20:47:00,
2013-10-04 16:48:00,64.3,0.0,30.02,SSW,204,0.0,0.0,0,0.00,,---,0.00,VWS V14.00,2013-10-04 20:48:00,
2013-10-04 16:49:00,64.1,0.0,30.02,SSW,204,0.0,0.0,0,0.00,,---,0.00,VWS V14.00,2013-10-04 20:49:00,
2013-10-04 16:50:00,64.0,0.0,30.02,SSW,204,0.0,4.3,0,0.00,,---,0.00,VWS V14.00,2013-10-04 20:50:00,
2013-10-04 16:51:00,64.0,0.0,30.02,SSW,204,0.0,4.3,0,0.00,,---,0.00,VWS V14.00,2013-10-04 20:51:00,
2013-10-04 16:52:00,64.0,0.0,30.02,SSW,204,0.0,4.3,0,0.00,,---,0.00,VWS V14.00,2013-10-04 20:52:00,
2013-10-04 16:53:00,63.8,0.0,30.02,SSW,204,0.0,4.3,0,0.00,,---,0.00,VWS V14.00,2013-10-04 20:53:00,
2013-10-04 16:54:00,63.8,0.0,30.02,SSW,204,0.0,4.3,0,0.00,,---,0.00,VWS V14.00,2013-10-04 20:54:00,
2013-10-04 16:55:00,63.9,0.0,30.02,SSW,204,0.0,1.6,0,0.00,,---,0.00,VWS V14.00,2013-10-04 20:55:00,
2013-10-04 16:56:00,63.8,0.0,30.02,SSW,204,0.0,1.6,0,0.00,,---,0.00,VWS V14.00,2013-10-04 20:56:00,
2013-10-04 16:57:00,63.8,0.0,30.02,SSW,204,0.0,1.6,0,0.00,,---,0.00,VWS V14.00,2013-10-04 20:57:00,
2013-10-04 16:58:00,63.7,0.0,30.02,SSW,204,0.0,1.6,0,0.00,,---,0.00,VWS V14.00,2013-10-04 20:58:00,
2013-10-04 16:59:00,63.7,0.0,30.02,SSW,204,0.0,1.6,0,0.00,,---,0.00,VWS V14.00,2013-10-04 20:59:00,
2013-10-04 17:00:00,63.6,0.0,30.02,SSW,204,0.0,0.0,0,0.00,,---,0.00,VWS V14.00,2013-10-04 21:00:00,
2013-10-04 17:01:00,63.7,0.0,30.02,SSW,204,0.0,0.0,0,0.00,,---,0.00,VWS V14.00,2013-10-04 21:01:00,
2013-10-04 17:02:00,63.7,0.0,30.02,SSW,204,0.0,0.0,0,0.00,,---,0.00,VWS V14.00,2013-10-04 21:02:00,
2013-10-04 17:03:00,63.5,0.0,30.02,SSW,204,0.0,0.0,0,0.00,,---,0.00,VWS V14.00,2013-10-04 21:03:00,
2013-10-04 17:04:00,63.5,0.0,30.02,SSW,204,0.0,0.0,0,0.00,,---,0.00,VWS V14.00,2013-10-04 21:04:00,
2013-10-04 17:05:00,63.4,0.0,30.02,SSW,204,0.0,0.0,0,0.00,,---,0.00,VWS V14.00,2013-10-04 21:05:00,
2013-10-04 17:06:00,63.5,0.0,30.02,SSW,204,0.0,0.0,0,0.00,,---,0.00,VWS V14.00,2013-10-04 21:06:00,
2013-10-04 17:07:00,63.5,0.0,30.02,SSW,204,0.0,0.0,0,0.00,,---,0.00,VWS V14.00,2013-10-04 21:07:00,
2013-10-04 17:08:00,63.4,0.0,30.02,SSW,204,0.0,0.0,0,0.00,,---,0.00,VWS V14.00,2013-10-04 21:08:00,
2013-10-04 17:09:00,63.3,0.0,30.02,SSW,204,0.0,0.0,0,0.00,,---,0.00,VWS V14.00,2013-10-04 21:09:00,
2013-10-04 17:10:00,63.2,0.0,30.02,SSW,204,0.0,0.0,0,0.00,,---,0.00,VWS V14.00,2013-10-04 21:10:00,
2013-10-04 17:11:00,63.2,0.0,30.02,SSW,204,0.0,0.0,0,0.00,,---,0.00,VWS V14.00,2013-10-04 21:11:00,
2013-10-04 17:12:00,63.2,0.0,30.02,SSW,204,0.0,0.0,0,0.00,,---,0.00,VWS V14.00,2013-10-04 21:12:00,
2013-10-04 17:13:00,63.1,0.0,30.02,SSW,204,0.0,0.0,0,0.00,,---,0.00,VWS V14.00,2013-10-04 21:13:00,
2013-10-04 17:14:00,63.2,0.0,30.02,SSW,204,0.0,0.0,0,0.00,,---,0.00,VWS V14.00,2013-10-04 21:14:00,
2013-10-04 17:15:00,63.3,0.0,30.02,SSW,204,0.0,2.3,0,0.00,,---,0.00,VWS V14.00,2013-10-04 21:15:00,
2013-10-04 17:16:00,63.1,0.0,30.02,SSW,204,0.0,2.3,0,0.00,,---,0.00,VWS V14.00,2013-10-04 21:16:00,
2013-10-04 17:17:00,63.1,0.0,30.02,SSW,204,3.3,3.3,0,0.00,,---,0.00,VWS V14.00,2013-10-04 21:17:00,
2013-10-04 17:18:00,63.1,0.0,30.02,SSW,197,0.0,2.3,0,0.00,,---,0.00,VWS V14.00,2013-10-04 21:18:00,
2013-10-04 17:19:00,63.0,0.0,30.02,SSW,197,0.0,2.3,0,0.00,,---,0.00,VWS V14.00,2013-10-04 21:19:00,
2013-10-04 17:20:00,63.0,0.0,30.02,SSW,197,2.9,4.5,0,0.00,,---,0.00,VWS V14.00,2013-10-04 21:20:00,
2013-10-04 17:21:00,62.8,0.0,30.03,SSW,197,0.0,4.5,0,0.00,,---,0.00,VWS V14.00,2013-10-04 21:21:00,
2013-10-04 17:22:00,62.7,0.0,30.02,SSW,197,0.0,4.5,0,0.00,,---,0.00,VWS V14.00,2013-10-04 21:22:00,
2013-10-04 17:23:00,62.7,0.0,30.02,SW,222,0.0,4.5,0,0.00,,---,0.00,VWS V14.00,2013-10-04 21:23:00,
2013-10-04 17:24:00,62.6,0.0,30.03,SW,222,0.0,4.5,0,0.00,,---,0.00,VWS V14.00,2013-10-04 21:24:00,
2013-10-04 17:25:00,62.6,0.0,30.02,SW,222,0.0,1.7,0,0.00,,---,0.00,VWS V14.00,2013-10-04 21:25:00,
2013-10-04 17:26:00,62.5,0.0,30.03,SW,222,0.0,1.7,0,0.00,,---,0.00,VWS V14.00,2013-10-04 21:26:00,
2013-10-04 17:27:00,62.5,0.0,30.03,West,264,0.0,1.7,0,0.00,,---,0.00,VWS V14.00,2013-10-04 21:27:00,
2013-10-04 17:28:00,62.7,0.0,30.02,West,264,0.0,1.7,0,0.00,,---,0.00,VWS V14.00,2013-10-04 21:28:00,
2013-10-04 17:29:00,62.5,0.0,30.03,SW,228,3.2,3.2,0,0.00,,---,0.00,VWS V14.00,2013-10-04 21:29:00,
2013-10-04 17:30:00,62.4,0.0,30.03,SW,228,0.0,4.5,0,0.00,,---,0.00,VWS V14.00,2013-10-04 21:30:00,
2013-10-04 17:31:00,62.4,0.0,30.02,SW,228,0.0,4.5,0,0.00,,---,0.00,VWS V14.00,2013-10-04 21:31:00,
2013-10-04 17:32:00,62.5,0.0,30.03,SW,228,0.0,4.5,0,0.00,,---,0.00,VWS V14.00,2013-10-04 21:32:00,
2013-10-04 17:33:00,62.5,0.0,30.02,SW,228,0.0,4.5,0,0.00,,---,0.00,VWS V14.00,2013-10-04 21:33:00,
2013-10-04 17:34:00,62.4,0.0,30.02,SSW,202,2.2,4.5,0,0.00,,---,0.00,VWS V14.00,2013-10-04 21:34:00,
2013-10-04 17:35:00,62.4,0.0,30.02,SSW,202,0.0,2.2,0,0.00,,---,0.00,VWS V14.00,2013-10-04 21:35:00,
2013-10-04 17:36:00,62.4,0.0,30.03,SSW,202,0.0,2.2,0,0.00,,---,0.00,VWS V14.00,2013-10-04 21:36:00,
2013-10-04 17:37:00,62.4,0.0,30.03,SSW,201,0.0,2.2,0,0.00,,---,0.00,VWS V14.00,2013-10-04 21:37:00,
2013-10-04 17:38:00,62.4,0.0,30.03,SSW,201,0.0,2.2,0,0.00,,---,0.00,VWS V14.00,2013-10-04 21:38:00,
2013-10-04 17:39:00,62.4,0.0,30.03,SSW,201,1.9,2.2,0,0.00,,---,0.00,VWS V14.00,2013-10-04 21:39:00,
2013-10-04 17:40:00,62.4,0.0,30.03,SSW,201,0.0,3.3,0,0.00,,---,0.00,VWS V14.00,2013-10-04 21:40:00,
2013-10-04 17:41:00,62.3,0.0,30.03,SSW,201,0.0,3.3,0,0.00,,---,0.00,VWS V14.00,2013-10-04 21:41:00,
2013-10-04 17:42:00,62.3,0.0,30.03,SW,221,0.0,3.3,0,0.00,,---,0.00,VWS V14.00,2013-10-04 21:42:00,
2013-10-04 17:43:00,62.1,0.0,30.03,SW,221,0.0,3.3,0,0.00,,---,0.00,VWS V14.00,2013-10-04 21:43:00,
2013-10-04 17:44:00,62.1,0.0,30.03,SW,221,0.0,3.3,0,0.00,,---,0.00,VWS V14.00,2013-10-04 21:44:00,
2013-10-04 17:45:00,62.0,0.0,30.03,SW,221,0.0,3.3,0,0.00,,---,0.00,VWS V14.00,2013-10-04 21:45:00,
2013-10-04 17:46:00,62.1,0.0,30.02,SW,221,0.0,3.1,0,0.00,,---,0.00,VWS V14.00,2013-10-04 21:46:00,
2013-10-04 17:47:00,62.0,0.0,30.02,SW,221,0.0,3.1,0,0.00,,---,0.00,VWS V14.00,2013-10-04 21:47:00,
2013-10-04 17:48:00,62.0,0.0,30.02,SW,221,0.0,3.1,0,0.00,,---,0.00,VWS V14.00,2013-10-04 21:48:00,
2013-10-04 17:49:00,61.8,0.0,30.02,SW,221,0.0,3.1,0,0.00,,---,0.00,VWS V14.00,2013-10-04 21:49:00,
2013-10-04 17:50:00,61.8,0.0,30.02,SW,221,0.0,3.1,0,0.00,,---,0.00,VWS V14.00,2013-10-04 21:50:00,
2013-10-04 17:51:00,61.8,0.0,30.02,SW,221,0.0,0.0,0,0.00,,---,0.00,VWS V14.00,2013-10-04 21:51:00,
2013-10-04 17:52:00,61.8,0.0,30.02,SW,221,0.0,0.0,0,0.00,,---,0.00,VWS V14.00,2013-10-04 21:52:00,
2013-10-04 17:53:00,61.7,0.0,30.02,SW,221,0.0,0.0,0,0.00,,---,0.00,VWS V14.00,2013-10-04 21:53:00,
2013-10-04 17:54:00,61.7,0.0,30.02,SW,221,0.0,0.0,0,0.00,,---,0.00,VWS V14.00,2013-10-04 21:54:00,
2013-10-04 17:55:00,61.8,0.0,30.02,SW,221,0.0,0.0,0,0.00,,---,0.00,VWS V14.00,2013-10-04 21:55:00,
2013-10-04 17:56:00,61.7,0.0,30.02,SW,221,0.0,0.0,0,0.00,,---,0.00,VWS V14.00,2013-10-04 21:56:00,
2013-10-04 17:57:00,61.6,0.0,30.02,SW,221,0.0,0.0,0,0.00,,---,0.00,VWS V14.00,2013-10-04 21:57:00,
2013-10-04 17:58:00,61.6,0.0,30.02,SW,221,0.0,0.0,0,0.00,,---,0.00,VWS V14.00,2013-10-04 21:58:00,
2013-10-04 17:59:00,61.7,0.0,30.02,SW,221,0.0,0.0,0,0.00,,---,0.00,VWS V14.00,2013-10-04 21:59:00,
2013-10-04 18:00:00,61.7,0.0,30.02,SW,221,0.0,0.0,0,0.00,,---,0.00,VWS V14.00,2013-10-04 22:00:00,
2013-10-04 18:01:00,61.6,0.0,30.02,SW,221,0.0,0.0,0,0.00,,---,0.00,VWS V14.00,2013-10-04 22:01:00,
2013-10-04 18:02:00,61.7,0.0,30.02,SW,221,0.0,0.0,0,0.00,,---,0.00,VWS V14.00,2013-10-04 22:02:00,
2013-10-04 18:03:00,61.6,0.0,30.02,SW,221,0.0,0.0,0,0.00,,---,0.00,VWS V14.00,2013-10-04 22:03:00,
2013-10-04 18:04:00,61.6,0.0,30.02,SW,221,0.0,0.0,0,0.00,,---,0.00,VWS V14.00,2013-10-04 22:04:00,
2013-10-04 18:05:00,61.5,0.0,30.02,SW,221,0.0,0.0,0,0.00,,---,0.00,VWS V14.00,2013-10-04 22:05:00,
2013-10-04 18:06:00,61.4,0.0,30.02,SW,221,0.0,0.0,0,0.00,,---,0.00,VWS V14.00,2013-10-04 22:06:00,
2013-10-04 18:07:00,61.4,0.0,30.02,SW,221,0.0,0.0,0,0.00,,---,0.00,VWS V14.00,2013-10-04 22:07:00,
2013-10-04 18:08:00,61.3,0.0,30.02,SW,221,0.0,0.0,0,0.00,,---,0.00,VWS V14.00,2013-10-04 22:08:00,
2013-10-04 18:09:00,61.2,0.0,30.02,SW,221,0.0,0.0,0,0.00,,---,0.00,VWS V14.00,2013-10-04 22:09:00,
2013-10-04 18:10:00,61.2,0.0,30.02,SW,221,0.0,0.0,0,0.00,,---,0.00,VWS V14.00,2013-10-04 22:10:00,
2013-10-04 18:11:00,61.1,0.0,30.02,SW,221,0.0,0.0,0,0.00,,---,0.00,VWS V14.00,2013-10-04 22:11:00,
2013-10-04 18:12:00,61.0,0.0,30.02,SW,221,0.0,0.0,0,0.00,,---,0.00,VWS V14.00,2013-10-04 22:12:00,
2013-10-04 18:13:00,60.9,0.0,30.02,South,174,3.1,0.0,0,0.00,,---,0.00,VWS V14.00,2013-10-04 22:13:00,
2013-10-04 18:14:00,60.9,0.0,30.02,SW,231,5.3,0.0,0,0.00,,---,0.00,VWS V14.00,2013-10-04 22:14:00,
2013-10-04 18:15:00,60.8,0.0,30.02,SW,235,3.2,5.7,0,0.00,,---,0.00,VWS V14.00,2013-10-04 22:15:00,
2013-10-04 18:16:00,60.8,0.0,30.02,SW,214,3.5,5.7,0,0.00,,---,0.00,VWS V14.00,2013-10-04 22:16:00,
2013-10-04 18:17:00,60.8,0.0,30.02,SSW,208,0.0,5.7,0,0.00,,---,0.00,VWS V14.00,2013-10-04 22:17:00,
2013-10-04 18:18:00,60.8,0.0,30.02,SSW,208,0.0,5.7,0,0.00,,---,0.00,VWS V14.00,2013-10-04 22:18:00,
2013-10-04 18:19:00,60.8,0.0,30.02,SSW,208,0.0,5.7,0,0.00,,---,0.00,VWS V14.00,2013-10-04 22:19:00,
2013-10-04 18:20:00,60.8,0.0,30.02,SSW,208,0.0,5.7,0,0.00,,---,0.00,VWS V14.00,2013-10-04 22:20:00,
2013-10-04 18:21:00,60.7,0.0,30.02,SSW,208,0.0,5.7,0,0.00,,---,0.00,VWS V14.00,2013-10-04 22:21:00,
2013-10-04 18:22:00,60.5,0.0,30.02,SSW,208,0.0,5.7,0,0.00,,---,0.00,VWS V14.00,2013-10-04 22:22:00,
2013-10-04 18:23:00,60.6,0.0,30.02,SSW,208,0.0,5.7,0,0.00,,---,0.00,VWS V14.00,2013-10-04 22:23:00,
2013-10-04 18:24:00,60.6,0.0,30.02,SSW,208,0.0,5.7,0,0.00,,---,0.00,VWS V14.00,2013-10-04 22:24:00,
2013-10-04 18:25:00,60.5,0.0,30.02,SSW,208,0.0,0.0,0,0.00,,---,0.00,VWS V14.00,2013-10-04 22:25:00,
2013-10-04 18:26:00,60.5,0.0,30.02,SSW,208,0.0,0.0,0,0.00,,---,0.00,VWS V14.00,2013-10-04 22:26:00,
2013-10-04 18:27:00,60.5,0.0,30.02,SSW,208,0.0,0.0,0,0.00,,---,0.00,VWS V14.00,2013-10-04 22:27:00,
2013-10-04 18:28:00,60.5,0.0,30.02,SSW,208,0.0,0.0,0,0.00,,---,0.00,VWS V14.00,2013-10-04 22:28:00,
2013-10-04 18:29:00,60.5,0.0,30.02,SSW,208,0.0,0.0,0,0.00,,---,0.00,VWS V14.00,2013-10-04 22:29:00,
2013-10-04 18:30:00,60.5,0.0,30.02,SSW,208,0.0,0.0,0,0.00,,---,0.00,VWS V14.00,2013-10-04 22:30:00,
2013-10-04 18:31:00,60.5,0.0,30.02,SSW,208,0.0,0.0,0,0.00,,---,0.00,VWS V14.00,2013-10-04 22:31:00,
2013-10-04 18:32:00,60.4,0.0,30.02,SSW,208,0.0,0.0,0,0.00,,---,0.00,VWS V14.00,2013-10-04 22:32:00,
2013-10-04 18:33:00,60.4,0.0,30.02,SSW,208,0.0,0.0,0,0.00,,---,0.00,VWS V14.00,2013-10-04 22:33:00,
2013-10-04 18:34:00,60.5,0.0,30.02,SSW,208,0.0,0.0,0,0.00,,---,0.00,VWS V14.00,2013-10-04 22:34:00,
2013-10-04 18:35:00,60.4,0.0,30.02,SSW,208,0.0,0.0,0,0.00,,---,0.00,VWS V14.00,2013-10-04 22:35:00,
2013-10-04 18:36:00,60.4,0.0,30.02,SSW,208,0.0,0.0,0,0.00,,---,0.00,VWS V14.00,2013-10-04 22:36:00,
2013-10-04 18:37:00,60.4,0.0,30.02,SSW,208,0.0,0.0,0,0.00,,---,0.00,VWS V14.00,2013-10-04 22:37:00,
2013-10-04 18:38:00,60.5,0.0,30.02,SSW,208,0.0,0.0,0,0.00,,---,0.00,VWS V14.00,2013-10-04 22:38:00,
2013-10-04 18:39:00,60.5,0.0,30.02,SSW,208,0.0,0.0,0,0.00,,---,0.00,VWS V14.00,2013-10-04 22:39:00,
2013-10-04 18:40:00,60.5,0.0,30.02,SSW,208,0.0,0.0,0,0.00,,---,0.00,VWS V14.00,2013-10-04 22:40:00,
2013-10-04 18:41:00,60.5,0.0,30.02,SSW,208,0.0,0.0,0,0.00,,---,0.00,VWS V14.00,2013-10-04 22:41:00,
2013-10-04 18:42:00,60.4,0.0,30.02,SSW,208,0.0,0.0,0,0.00,,---,0.00,VWS V14.00,2013-10-04 22:42:00,
2013-10-04 18:43:00,60.4,0.0,30.02,SSW,208,0.0,0.0,0,0.00,,---,0.00,VWS V14.00,2013-10-04 22:43:00,
2013-10-04 18:44:00,60.3,0.0,30.02,SSW,208,0.0,0.0,0,0.00,,---,0.00,VWS V14.00,2013-10-04 22:44:00,
2013-10-04 18:45:00,60.3,0.0,30.02,SSW,208,0.0,0.0,0,0.00,,---,0.00,VWS V14.00,2013-10-04 22:45:00,
2013-10-04 18:46:00,60.3,0.0,30.02,SSW,208,0.0,0.0,0,0.00,,---,0.00,VWS V14.00,2013-10-04 22:46:00,
2013-10-04 18:47:00,60.3,0.0,30.02,SSW,208,0.0,0.0,0,0.00,,---,0.00,VWS V14.00,2013-10-04 22:47:00,
2013-10-04 18:48:00,60.4,0.0,30.02,SSW,208,0.0,0.0,0,0.00,,---,0.00,VWS V14.00,2013-10-04 22:48:00,
2013-10-04 18:49:00,60.4,0.0,30.02,SSW,208,0.0,0.0,0,0.00,,---,0.00,VWS V14.00,2013-10-04 22:49:00,
2013-10-04 18:50:00,60.4,0.0,30.02,SSW,208,0.0,0.0,0,0.00,,---,0.00,VWS V14.00,2013-10-04 22:50:00,
2013-10-04 18:51:00,60.3,0.0,30.02,SSW,208,0.0,0.0,0,0.00,,---,0.00,VWS V14.00,2013-10-04 22:51:00,
2013-10-04 18:52:00,60.4,0.0,30.02,SSW,208,0.0,0.0,0,0.00,,---,0.00,VWS V14.00,2013-10-04 22:52:00,
2013-10-04 18:53:00,60.4,0.0,30.02,SSW,208,0.0,0.0,0,0.00,,---,0.00,VWS V14.00,2013-10-04 22:53:00,
2013-10-04 18:54:00,60.3,0.0,30.02,SSW,208,0.0,0.0,0,0.00,,---,0.00,VWS V14.00,2013-10-04 22:54:00,
2013-10-04 18:55:00,60.2,0.0,30.02,SSW,208,0.0,0.0,0,0.00,,---,0.00,VWS V14.00,2013-10-04 22:55:00,
2013-10-04 18:56:00,60.3,0.0,30.02,SSW,208,0.0,0.0,0,0.00,,---,0.00,VWS V14.00,2013-10-04 22:56:00,
2013-10-04 18:57:00,60.3,0.0,30.02,SSW,208,0.0,0.0,0,0.00,,---,0.00,VWS V14.00,2013-10-04 22:57:00,
2013-10-04 18:58:00,60.2,0.0,30.02,SSW,208,0.0,0.0,0,0.00,,---,0.00,VWS V14.00,2013-10-04 22:58:00,
2013-10-04 18:59:00,60.2,0.0,30.02,SSW,208,0.0,0.0,0,0.00,,---,0.00,VWS V14.00,2013-10-04 22:59:00,
2013-10-04 19:00:00,60.2,0.0,30.02,SSW,208,0.0,0.0,0,0.00,,---,0.00,VWS V14.00,2013-10-04 23:00:00,
2013-10-04 19:01:00,60.2,0.0,30.02,SSW,208,0.0,0.0,0,0.00,,---,0.00,VWS V14.00,2013-10-04 23:01:00,
2013-10-04 19:02:00,60.2,0.0,30.02,SSW,208,0.0,0.0,0,0.00,,---,0.00,VWS V14.00,2013-10-04 23:02:00,
2013-10-04 19:03:00,60.1,0.0,30.02,SSW,208,0.0,0.0,0,0.00,,---,0.00,VWS V14.00,2013-10-04 23:03:00,
2013-10-04 19:04:00,60.1,0.0,30.02,SSW,208,0.0,0.0,0,0.00,,---,0.00,VWS V14.00,2013-10-04 23:04:00,
2013-10-04 19:05:00,60.1,0.0,30.02,SSW,208,0.0,0.0,0,0.00,,---,0.00,VWS V14.00,2013-10-04 23:05:00,
2013-10-04 19:06:00,60.1,0.0,30.02,SSW,208,0.0,0.0,0,0.00,,---,0.00,VWS V14.00,2013-10-04 23:06:00,
2013-10-04 19:07:00,60.1,0.0,30.02,SSW,208,0.0,0.0,0,0.00,,---,0.00,VWS V14.00,2013-10-04 23:07:00,
2013-10-04 19:08:00,60.1,0.0,30.02,SSW,208,0.0,0.0,0,0.00,,---,0.00,VWS V14.00,2013-10-04 23:08:00,
2013-10-04 19:09:00,60.1,0.0,30.02,SSW,208,0.0,0.0,0,0.00,,---,0.00,VWS V14.00,2013-10-04 23:09:00,
2013-10-04 19:10:00,60.1,0.0,30.02,SSW,208,0.0,0.0,0,0.00,,---,0.00,VWS V14.00,2013-10-04 23:10:00,
2013-10-04 19:11:00,60.1,0.0,30.02,SSW,208,0.0,0.0,0,0.00,,---,0.00,VWS V14.00,2013-10-04 23:11:00,
2013-10-04 19:12:00,60.1,0.0,30.02,SSW,208,0.0,0.0,0,0.00,,---,0.00,VWS V14.00,2013-10-04 23:12:00,
2013-10-04 19:13:00,60.0,0.0,30.02,SSW,208,0.0,0.0,0,0.00,,---,0.00,VWS V14.00,2013-10-04 23:13:00,
2013-10-04 19:14:00,60.0,0.0,30.02,SSW,208,0.0,0.0,0,0.00,,---,0.00,VWS V14.00,2013-10-04 23:14:00,
2013-10-04 19:15:00,59.9,0.0,30.02,SSW,208,0.0,0.0,0,0.00,,---,0.00,VWS V14.00,2013-10-04 23:15:00,
2013-10-04 19:16:00,60.0,0.0,30.02,SSW,208,0.0,0.0,0,0.00,,---,0.00,VWS V14.00,2013-10-04 23:16:00,
2013-10-04 19:17:00,60.0,0.0,30.02,SSW,208,0.0,0.0,0,0.00,,---,0.00,VWS V14.00,2013-10-04 23:17:00,
2013-10-04 19:18:00,60.0,0.0,30.02,SSW,208,0.0,0.0,0,0.00,,---,0.00,VWS V14.00,2013-10-04 23:18:00,
2013-10-04 19:19:00,59.9,0.0,30.02,SSW,208,0.0,0.0,0,0.00,,---,0.00,VWS V14.00,2013-10-04 23:19:00,
2013-10-04 19:20:00,59.9,0.0,30.02,SSW,208,0.0,0.0,0,0.00,,---,0.00,VWS V14.00,2013-10-04 23:20:00,
2013-10-04 19:21:00,59.9,0.0,30.02,SSW,208,0.0,0.0,0,0.00,,---,0.00,VWS V14.00,2013-10-04 23:21:00,
2013-10-04 19:22:00,59.9,0.0,30.02,SSW,208,0.0,0.0,0,0.00,,---,0.00,VWS V14.00,2013-10-04 23:22:00,
2013-10-04 19:23:00,59.9,0.0,30.02,SSW,208,0.0,0.0,0,0.00,,---,0.00,VWS V14.00,2013-10-04 23:23:00,
2013-10-04 19:24:00,59.9,0.0,30.02,SSW,208,0.0,0.0,0,0.00,,---,0.00,VWS V14.00,2013-10-04 23:24:00,
2013-10-04 19:25:00,59.9,0.0,30.02,SSW,208,0.0,0.0,0,0.00,,---,0.00,VWS V14.00,2013-10-04 23:25:00,
2013-10-04 19:26:00,59.8,0.0,30.02,SSW,208,0.0,0.0,0,0.00,,---,0.00,VWS V14.00,2013-10-04 23:26:00,
2013-10-04 19:27:00,59.6,0.0,30.02,SSW,208,0.0,0.0,0,0.00,,---,0.00,VWS V14.00,2013-10-04 23:27:00,
2013-10-04 19:28:00,59.7,0.0,30.02,SSW,208,0.0,0.0,0,0.00,,---,0.00,VWS V14.00,2013-10-04 23:28:00,
2013-10-04 19:29:00,59.6,0.0,30.02,SSW,208,0.0,0.0,0,0.00,,---,0.00,VWS V14.00,2013-10-04 23:29:00,
2013-10-04 19:30:00,59.6,0.0,30.02,SSW,208,0.0,0.0,0,0.00,,---,0.00,VWS V14.00,2013-10-04 23:30:00,
2013-10-04 19:31:00,59.4,0.0,30.02,SSW,208,0.0,0.0,0,0.00,,---,0.00,VWS V14.00,2013-10-04 23:31:00,
2013-10-04 19:32:00,59.5,0.0,30.02,SSW,208,0.0,0.0,0,0.00,,---,0.00,VWS V14.00,2013-10-04 23:32:00,
2013-10-04 19:33:00,59.5,0.0,30.02,SSW,208,0.0,0.0,0,0.00,,---,0.00,VWS V14.00,2013-10-04 23:33:00,
2013-10-04 19:34:00,59.4,0.0,30.03,SSW,208,0.0,0.0,0,0.00,,---,0.00,VWS V14.00,2013-10-04 23:34:00,
2013-10-04 19:35:00,59.4,0.0,30.02,SSW,208,0.0,0.0,0,0.00,,---,0.00,VWS V14.00,2013-10-04 23:35:00,
2013-10-04 19:36:00,59.5,0.0,30.02,SSW,208,0.0,0.0,0,0.00,,---,0.00,VWS V14.00,2013-10-04 23:36:00,
2013-10-04 19:37:00,59.4,0.0,30.02,SSW,208,0.0,0.0,0,0.00,,---,0.00,VWS V14.00,2013-10-04 23:37:00,
2013-10-04 19:38:00,59.4,0.0,30.02,SSW,208,0.0,0.0,0,0.00,,---,0.00,VWS V14.00,2013-10-04 23:38:00,
2013-10-04 19:39:00,59.4,0.0,30.02,SSW,208,0.0,0.0,0,0.00,,---,0.00,VWS V14.00,2013-10-04 23:39:00,
2013-10-04 19:40:00,59.5,0.0,30.02,SSW,208,0.0,0.0,0,0.00,,---,0.00,VWS V14.00,2013-10-04 23:40:00,
2013-10-04 19:41:00,59.4,0.0,30.02,SSW,208,0.0,0.0,0,0.00,,---,0.00,VWS V14.00,2013-10-04 23:41:00,
2013-10-04 19:42:00,59.5,0.0,30.02,SSW,208,0.0,0.0,0,0.00,,---,0.00,VWS V14.00,2013-10-04 23:42:00,
2013-10-04 19:43:00,59.5,0.0,30.02,SSW,208,0.0,0.0,0,0.00,,---,0.00,VWS V14.00,2013-10-04 23:43:00,
2013-10-04 19:44:00,59.5,0.0,30.02,SSW,208,0.0,0.0,0,0.00,,---,0.00,VWS V14.00,2013-10-04 23:44:00,
2013-10-04 19:45:00,59.5,0.0,30.02,SSW,208,0.0,0.0,0,0.00,,---,0.00,VWS V14.00,2013-10-04 23:45:00,
2013-10-04 19:46:00,59.5,0.0,30.02,SSW,208,0.0,0.0,0,0.00,,---,0.00,VWS V14.00,2013-10-04 23:46:00,
2013-10-04 19:47:00,59.5,0.0,30.02,SSW,208,0.0,0.0,0,0.00,,---,0.00,VWS V14.00,2013-10-04 23:47:00,
2013-10-04 19:48:00,59.5,0.0,30.02,SSW,208,0.0,0.0,0,0.00,,---,0.00,VWS V14.00,2013-10-04 23:48:00,
2013-10-04 19:49:00,59.5,0.0,30.02,SSW,208,0.0,0.0,0,0.00,,---,0.00,VWS V14.00,2013-10-04 23:49:00,
2013-10-04 19:50:00,59.5,0.0,30.02,SSW,208,0.0,0.0,0,0.00,,---,0.00,VWS V14.00,2013-10-04 23:50:00,
2013-10-04 19:51:00,59.4,0.0,30.02,SSW,208,0.0,0.0,0,0.00,,---,0.00,VWS V14.00,2013-10-04 23:51:00,
2013-10-04 19:52:00,59.4,0.0,30.02,SSW,208,0.0,0.0,0,0.00,,---,0.00,VWS V14.00,2013-10-04 23:52:00,
2013-10-04 19:53:00,59.4,0.0,30.02,SSW,208,0.0,0.0,0,0.00,,---,0.00,VWS V14.00,2013-10-04 23:53:00,
2013-10-04 19:54:00,59.3,0.0,30.03,SSW,208,0.0,0.0,0,0.00,,---,0.00,VWS V14.00,2013-10-04 23:54:00,
2013-10-04 19:55:00,59.3,0.0,30.03,SSW,208,0.0,0.0,0,0.00,,---,0.00,VWS V14.00,2013-10-04 23:55:00,
2013-10-04 19:56:00,59.3,0.0,30.03,SSW,208,0.0,0.0,0,0.00,,---,0.00,VWS V14.00,2013-10-04 23:56:00,
2013-10-04 19:57:00,59.2,0.0,30.03,SSW,208,0.0,0.0,0,0.00,,---,0.00,VWS V14.00,2013-10-04 23:57:00,
2013-10-04 19:58:00,59.3,0.0,30.03,SSW,208,0.0,0.0,0,0.00,,---,0.00,VWS V14.00,2013-10-04 23:58:00,
2013-10-04 19:59:00,59.2,0.0,30.03,SSW,208,0.0,0.0,0,0.00,,---,0.00,VWS V14.00,2013-10-04 23:59:00,
2013-10-04 20:00:00,59.3,0.0,30.03,SSW,208,0.0,0.0,0,0.00,,---,0.00,VWS V14.00,2013-10-05 00:00:00,
2013-10-04 20:01:00,59.3,0.0,30.03,SSW,208,0.0,0.0,0,0.00,,---,0.00,VWS V14.00,2013-10-05 00:01:00,
2013-10-04 20:02:00,59.3,0.0,30.02,SSW,208,0.0,0.0,0,0.00,,---,0.00,VWS V14.00,2013-10-05 00:02:00,
2013-10-04 20:03:00,59.2,0.0,30.02,SSW,208,0.0,0.0,0,0.00,,---,0.00,VWS V14.00,2013-10-05 00:03:00,
2013-10-04 20:04:00,59.1,0.0,30.02,SSW,208,0.0,0.0,0,0.00,,---,0.00,VWS V14.00,2013-10-05 00:04:00,
2013-10-04 20:05:00,59.0,0.0,30.02,SSW,208,0.0,0.0,0,0.00,,---,0.00,VWS V14.00,2013-10-05 00:05:00,
2013-10-04 20:06:00,59.1,0.0,30.02,SSW,208,0.0,0.0,0,0.00,,---,0.00,VWS V14.00,2013-10-05 00:06:00,
2013-10-04 20:07:00,59.3,0.0,30.02,SSW,208,0.0,0.0,0,0.00,,---,0.00,VWS V14.00,2013-10-05 00:07:00,
2013-10-04 20:08:00,59.3,0.0,30.03,SSW,208,0.0,0.0,0,0.00,,---,0.00,VWS V14.00,2013-10-05 00:08:00,
2013-10-04 20:09:00,59.3,0.0,30.03,SSW,208,0.0,0.0,0,0.00,,---,0.00,VWS V14.00,2013-10-05 00:09:00,
2013-10-04 20:10:00,59.4,0.0,30.03,SSW,208,0.0,0.0,0,0.00,,---,0.00,VWS V14.00,2013-10-05 00:10:00,
2013-10-04 20:11:00,59.4,0.0,30.03,SSW,208,0.0,0.0,0,0.00,,---,0.00,VWS V14.00,2013-10-05 00:11:00,
2013-10-04 20:12:00,59.4,0.0,30.03,SSW,208,0.0,0.0,0,0.00,,---,0.00,VWS V14.00,2013-10-05 00:12:00,
2013-10-04 20:13:00,59.4,0.0,30.03,SSW,208,0.0,0.0,0,0.00,,---,0.00,VWS V14.00,2013-10-05 00:13:00,
2013-10-04 20:14:00,59.4,0.0,30.03,SSW,208,0.0,0.0,0,0.00,,---,0.00,VWS V14.00,2013-10-05 00:14:00,
2013-10-04 20:15:00,59.4,0.0,30.03,SSW,208,0.0,0.0,0,0.00,,---,0.00,VWS V14.00,2013-10-05 00:15:00,
2013-10-04 20:16:00,59.4,0.0,30.03,SSW,208,0.0,0.0,0,0.00,,---,0.00,VWS V14.00,2013-10-05 00:16:00,
2013-10-04 20:17:00,59.4,0.0,30.03,SSW,208,0.0,0.0,0,0.00,,---,0.00,VWS V14.00,2013-10-05 00:17:00,
2013-10-04 20:18:00,59.4,0.0,30.03,SSW,208,0.0,0.0,0,0.00,,---,0.00,VWS V14.00,2013-10-05 00:18:00,
2013-10-04 20:19:00,59.4,0.0,30.03,SSW,208,0.0,0.0,0,0.00,,---,0.00,VWS V14.00,2013-10-05 00:19:00,
2013-10-04 20:20:00,59.4,0.0,30.03,SSW,208,0.0,0.0,0,0.00,,---,0.00,VWS V14.00,2013-10-05 00:20:00,
2013-10-04 20:21:00,59.4,0.0,30.03,SSW,208,0.0,0.0,0,0.00,,---,0.00,VWS V14.00,2013-10-05 00:21:00,
2013-10-04 20:22:00,59.3,0.0,30.03,SSW,208,0.0,0.0,0,0.00,,---,0.00,VWS V14.00,2013-10-05 00:22:00,
2013-10-04 20:23:00,59.3,0.0,30.03,SSW,208,0.0,0.0,0,0.00,,---,0.00,VWS V14.00,2013-10-05 00:23:00,
2013-10-04 20:24:00,59.3,0.0,30.03,SSW,208,0.0,0.0,0,0.00,,---,0.00,VWS V14.00,2013-10-05 00:24:00,
2013-10-04 20:25:00,59.3,0.0,30.03,SSW,208,0.0,0.0,0,0.00,,---,0.00,VWS V14.00,2013-10-05 00:25:00,
2013-10-04 20:26:00,59.3,0.0,30.03,SSW,208,0.0,0.0,0,0.00,,---,0.00,VWS V14.00,2013-10-05 00:26:00,
2013-10-04 20:27:00,59.2,0.0,30.03,SSW,208,0.0,0.0,0,0.00,,---,0.00,VWS V14.00,2013-10-05 00:27:00,
2013-10-04 20:28:00,59.2,0.0,30.03,SSW,208,0.0,0.0,0,0.00,,---,0.00,VWS V14.00,2013-10-05 00:28:00,
2013-10-04 20:29:00,59.1,0.0,30.03,SSW,208,0.0,0.0,0,0.00,,---,0.00,VWS V14.00,2013-10-05 00:29:00,
2013-10-04 20:30:00,59.1,0.0,30.03,SSW,208,0.0,0.0,0,0.00,,---,0.00,VWS V14.00,2013-10-05 00:30:00,
2013-10-04 20:31:00,59.2,0.0,30.03,SSW,208,0.0,0.0,0,0.00,,---,0.00,VWS V14.00,2013-10-05 00:31:00,
2013-10-04 20:32:00,59.1,0.0,30.03,SSW,208,0.0,0.0,0,0.00,,---,0.00,VWS V14.00,2013-10-05 00:32:00,
2013-10-04 20:33:00,59.1,0.0,30.03,SSW,208,0.0,0.0,0,0.00,,---,0.00,VWS V14.00,2013-10-05 00:33:00,
2013-10-04 20:34:00,59.0,0.0,30.03,SSW,208,0.0,0.0,0,0.00,,---,0.00,VWS V14.00,2013-10-05 00:34:00,
2013-10-04 20:35:00,59.1,0.0,30.03,SSW,208,0.0,0.0,0,0.00,,---,0.00,VWS V14.00,2013-10-05 00:35:00,
2013-10-04 20:36:00,59.1,0.0,30.03,SSW,208,0.0,0.0,0,0.00,,---,0.00,VWS V14.00,2013-10-05 00:36:00,
2013-10-04 20:37:00,59.1,0.0,30.03,SSW,208,0.0,0.0,0,0.00,,---,0.00,VWS V14.00,2013-10-05 00:37:00,
2013-10-04 20:38:00,59.1,0.0,30.03,SSW,208,0.0,0.0,0,0.00,,---,0.00,VWS V14.00,2013-10-05 00:38:00,
2013-10-04 20:39:00,59.0,0.0,30.03,SSW,208,0.0,0.0,0,0.00,,---,0.00,VWS V14.00,2013-10-05 00:39:00,
2013-10-04 20:40:00,59.0,0.0,30.03,SSW,208,0.0,0.0,0,0.00,,---,0.00,VWS V14.00,2013-10-05 00:40:00,
2013-10-04 20:41:00,59.0,0.0,30.03,SSW,208,0.0,0.0,0,0.00,,---,0.00,VWS V14.00,2013-10-05 00:41:00,
2013-10-04 20:42:00,59.0,0.0,30.03,SSW,208,0.0,0.0,0,0.00,,---,0.00,VWS V14.00,2013-10-05 00:42:00,
2013-10-04 20:43:00,59.0,0.0,30.03,SSW,208,0.0,0.0,0,0.00,,---,0.00,VWS V14.00,2013-10-05 00:43:00,
2013-10-04 20:44:00,59.0,0.0,30.03,SSW,208,0.0,0.0,0,0.00,,---,0.00,VWS V14.00,2013-10-05 00:44:00,
2013-10-04 20:45:00,59.0,0.0,30.03,SSW,208,0.0,0.0,0,0.00,,---,0.00,VWS V14.00,2013-10-05 00:45:00,
2013-10-04 20:46:00,59.0,0.0,30.03,SSW,208,0.0,0.0,0,0.00,,---,0.00,VWS V14.00,2013-10-05 00:46:00,
2013-10-04 20:47:00,59.0,0.0,30.04,SSW,208,0.0,0.0,0,0.00,,---,0.00,VWS V14.00,2013-10-05 00:47:00,
2013-10-04 20:48:00,59.0,0.0,30.04,SSW,208,0.0,0.0,0,0.00,,---,0.00,VWS V14.00,2013-10-05 00:48:00,
2013-10-04 20:49:00,59.0,0.0,30.04,SSW,208,0.0,0.0,0,0.00,,---,0.00,VWS V14.00,2013-10-05 00:49:00,
2013-10-04 20:50:00,59.0,0.0,30.04,SSW,208,0.0,0.0,0,0.00,,---,0.00,VWS V14.00,2013-10-05 00:50:00,
2013-10-04 20:51:00,59.0,0.0,30.04,SSW,208,0.0,0.0,0,0.00,,---,0.00,VWS V14.00,2013-10-05 00:51:00,
2013-10-04 20:52:00,59.0,0.0,30.04,SSW,208,0.0,0.0,0,0.00,,---,0.00,VWS V14.00,2013-10-05 00:52:00,
2013-10-04 20:53:00,58.9,0.0,30.04,SSW,208,0.0,0.0,0,0.00,,---,0.00,VWS V14.00,2013-10-05 00:53:00,
2013-10-04 20:54:00,58.8,0.0,30.03,SSW,208,0.0,0.0,0,0.00,,---,0.00,VWS V14.00,2013-10-05 00:54:00,
2013-10-04 20:55:00,58.7,0.0,30.04,SSW,208,0.0,0.0,0,0.00,,---,0.00,VWS V14.00,2013-10-05 00:55:00,
2013-10-04 20:56:00,58.8,0.0,30.03,SSW,208,0.0,0.0,0,0.00,,---,0.00,VWS V14.00,2013-10-05 00:56:00,
2013-10-04 20:57:00,58.7,0.0,30.04,SSW,208,0.0,0.0,0,0.00,,---,0.00,VWS V14.00,2013-10-05 00:57:00,
2013-10-04 20:58:00,58.7,0.0,30.03,SSW,208,0.0,0.0,0,0.00,,---,0.00,VWS V14.00,2013-10-05 00:58:00,
2013-10-04 20:59:00,58.8,0.0,30.04,SSW,208,0.0,0.0,0,0.00,,---,0.00,VWS V14.00,2013-10-05 00:59:00,
2013-10-04 21:00:00,58.9,0.0,30.03,SSW,208,0.0,0.0,0,0.00,,---,0.00,VWS V14.00,2013-10-05 01:00:00,
2013-10-04 21:01:00,58.8,0.0,30.03,SSW,208,0.0,0.0,0,0.00,,---,0.00,VWS V14.00,2013-10-05 01:01:00,
2013-10-04 21:02:00,58.7,0.0,30.03,SSW,208,0.0,0.0,0,0.00,,---,0.00,VWS V14.00,2013-10-05 01:02:00,
2013-10-04 21:03:00,58.7,0.0,30.04,SSW,208,0.0,0.0,0,0.00,,---,0.00,VWS V14.00,2013-10-05 01:03:00,
2013-10-04 21:04:00,58.8,0.0,30.04,SSW,208,0.0,0.0,0,0.00,,---,0.00,VWS V14.00,2013-10-05 01:04:00,
2013-10-04 21:05:00,58.7,0.0,30.04,SSW,208,0.0,0.0,0,0.00,,---,0.00,VWS V14.00,2013-10-05 01:05:00,
2013-10-04 21:06:00,58.7,0.0,30.04,SSW,208,0.0,0.0,0,0.00,,---,0.00,VWS V14.00,2013-10-05 01:06:00,
2013-10-04 21:07:00,58.8,0.0,30.04,SSW,208,0.0,0.0,0,0.00,,---,0.00,VWS V14.00,2013-10-05 01:07:00,
2013-10-04 21:08:00,58.7,0.0,30.04,SSW,208,0.0,0.0,0,0.00,,---,0.00,VWS V14.00,2013-10-05 01:08:00,
2013-10-04 21:09:00,58.6,0.0,30.04,SSW,208,0.0,0.0,0,0.00,,---,0.00,VWS V14.00,2013-10-05 01:09:00,
2013-10-04 21:10:00,58.6,0.0,30.04,SSW,208,0.0,0.0,0,0.00,,---,0.00,VWS V14.00,2013-10-05 01:10:00,
2013-10-04 21:11:00,58.5,0.0,30.04,SSW,208,0.0,0.0,0,0.00,,---,0.00,VWS V14.00,2013-10-05 01:11:00,
2013-10-04 21:12:00,58.4,0.0,30.04,SSW,208,0.0,0.0,0,0.00,,---,0.00,VWS V14.00,2013-10-05 01:12:00,
2013-10-04 21:13:00,58.4,0.0,30.04,SSW,208,0.0,0.0,0,0.00,,---,0.00,VWS V14.00,2013-10-05 01:13:00,
2013-10-04 21:14:00,58.4,0.0,30.04,SSW,208,0.0,0.0,0,0.00,,---,0.00,VWS V14.00,2013-10-05 01:14:00,
2013-10-04 21:15:00,58.4,0.0,30.04,SSW,208,0.0,0.0,0,0.00,,---,0.00,VWS V14.00,2013-10-05 01:15:00,
2013-10-04 21:16:00,58.3,0.0,30.04,SSW,208,0.0,0.0,0,0.00,,---,0.00,VWS V14.00,2013-10-05 01:16:00,
2013-10-04 21:17:00,58.4,0.0,30.04,SSW,208,0.0,0.0,0,0.00,,---,0.00,VWS V14.00,2013-10-05 01:17:00,
2013-10-04 21:18:00,58.4,0.0,30.04,SSW,208,0.0,0.0,0,0.00,,---,0.00,VWS V14.00,2013-10-05 01:18:00,
2013-10-04 21:19:00,58.4,0.0,30.04,SSW,208,0.0,0.0,0,0.00,,---,0.00,VWS V14.00,2013-10-05 01:19:00,
2013-10-04 21:20:00,58.4,0.0,30.04,SSW,208,0.0,0.0,0,0.00,,---,0.00,VWS V14.00,2013-10-05 01:20:00,
2013-10-04 21:21:00,58.4,0.0,30.04,SSW,208,0.0,0.0,0,0.00,,---,0.00,VWS V14.00,2013-10-05 01:21:00,
2013-10-04 21:22:00,58.4,0.0,30.04,SSW,208,0.0,0.0,0,0.00,,---,0.00,VWS V14.00,2013-10-05 01:22:00,
2013-10-04 21:23:00,58.4,0.0,30.04,SSW,208,0.0,0.0,0,0.00,,---,0.00,VWS V14.00,2013-10-05 01:23:00,
2013-10-04 21:24:00,58.4,0.0,30.04,SSW,208,0.0,0.0,0,0.00,,---,0.00,VWS V14.00,2013-10-05 01:24:00,
2013-10-04 21:25:00,58.4,0.0,30.04,SSW,208,0.0,0.0,0,0.00,,---,0.00,VWS V14.00,2013-10-05 01:25:00,
2013-10-04 21:26:00,58.4,0.0,30.04,SSW,208,0.0,0.0,0,0.00,,---,0.00,VWS V14.00,2013-10-05 01:26:00,
2013-10-04 21:27:00,58.4,0.0,30.04,SSW,208,0.0,0.0,0,0.00,,---,0.00,VWS V14.00,2013-10-05 01:27:00,
2013-10-04 21:28:00,58.4,0.0,30.04,SSW,208,0.0,0.0,0,0.00,,---,0.00,VWS V14.00,2013-10-05 01:28:00,
2013-10-04 21:29:00,58.4,0.0,30.04,SSW,208,0.0,0.0,0,0.00,,---,0.00,VWS V14.00,2013-10-05 01:29:00,
2013-10-04 21:30:00,58.3,0.0,30.04,SSW,208,0.0,0.0,0,0.00,,---,0.00,VWS V14.00,2013-10-05 01:30:00,
2013-10-04 21:31:00,58.3,0.0,30.04,SSW,208,0.0,0.0,0,0.00,,---,0.00,VWS V14.00,2013-10-05 01:31:00,
2013-10-04 21:32:00,58.5,0.0,30.04,SSW,208,0.0,0.0,0,0.00,,---,0.00,VWS V14.00,2013-10-05 01:32:00,
2013-10-04 21:33:00,58.5,0.0,30.04,SSW,208,0.0,0.0,0,0.00,,---,0.00,VWS V14.00,2013-10-05 01:33:00,
2013-10-04 21:34:00,58.5,0.0,30.04,SSW,208,0.0,0.0,0,0.00,,---,0.00,VWS V14.00,2013-10-05 01:34:00,
2013-10-04 21:35:00,58.5,0.0,30.04,SSW,208,0.0,0.0,0,0.00,,---,0.00,VWS V14.00,2013-10-05 01:35:00,
2013-10-04 21:36:00,58.6,0.0,30.04,SSW,208,0.0,0.0,0,0.00,,---,0.00,VWS V14.00,2013-10-05 01:36:00,
2013-10-04 21:37:00,58.6,0.0,30.04,SSW,208,0.0,0.0,0,0.00,,---,0.00,VWS V14.00,2013-10-05 01:37:00,
2013-10-04 21:38:00,58.5,0.0,30.04,SSW,208,0.0,0.0,0,0.00,,---,0.00,VWS V14.00,2013-10-05 01:38:00,
2013-10-04 21:39:00,58.6,0.0,30.04,SSW,208,0.0,0.0,0,0.00,,---,0.00,VWS V14.00,2013-10-05 01:39:00,
2013-10-04 21:40:00,58.4,0.0,30.04,SSW,208,0.0,0.0,0,0.00,,---,0.00,VWS V14.00,2013-10-05 01:40:00,
2013-10-04 21:41:00,58.4,0.0,30.05,SSW,208,0.0,0.0,0,0.00,,---,0.00,VWS V14.00,2013-10-05 01:41:00,
2013-10-04 21:42:00,58.4,0.0,30.04,SSW,208,0.0,0.0,0,0.00,,---,0.00,VWS V14.00,2013-10-05 01:42:00,
2013-10-04 21:43:00,58.4,0.0,30.04,SSW,208,0.0,0.0,0,0.00,,---,0.00,VWS V14.00,2013-10-05 01:43:00,
2013-10-04 21:44:00,58.3,0.0,30.04,SSW,208,0.0,0.0,0,0.00,,---,0.00,VWS V14.00,2013-10-05 01:44:00,
2013-10-04 21:45:00,58.4,0.0,30.04,SSW,208,0.0,0.0,0,0.00,,---,0.00,VWS V14.00,2013-10-05 01:45:00,
2013-10-04 21:46:00,58.4,0.0,30.05,SSW,208,0.0,0.0,0,0.00,,---,0.00,VWS V14.00,2013-10-05 01:46:00,
2013-10-04 21:47:00,58.5,0.0,30.05,SSW,208,0.0,0.0,0,0.00,,---,0.00,VWS V14.00,2013-10-05 01:47:00,
2013-10-04 21:48:00,58.5,0.0,30.05,SSW,208,0.0,0.0,0,0.00,,---,0.00,VWS V14.00,2013-10-05 01:48:00,
2013-10-04 21:49:00,58.5,0.0,30.05,SSW,208,0.0,0.0,0,0.00,,---,0.00,VWS V14.00,2013-10-05 01:49:00,
2013-10-04 21:50:00,58.6,0.0,30.05,SSW,208,0.0,0.0,0,0.00,,---,0.00,VWS V14.00,2013-10-05 01:50:00,
2013-10-04 21:51:00,58.4,0.0,30.05,SSW,208,0.0,0.0,0,0.00,,---,0.00,VWS V14.00,2013-10-05 01:51:00,
2013-10-04 21:52:00,58.4,0.0,30.05,SSW,208,0.0,0.0,0,0.00,,---,0.00,VWS V14.00,2013-10-05 01:52:00,
2013-10-04 21:53:00,58.3,0.0,30.05,SSW,208,0.0,0.0,0,0.00,,---,0.00,VWS V14.00,2013-10-05 01:53:00,
2013-10-04 21:54:00,58.4,0.0,30.05,SSW,208,0.0,0.0,0,0.00,,---,0.00,VWS V14.00,2013-10-05 01:54:00,
2013-10-04 21:55:00,58.5,0.0,30.05,SSW,208,0.0,0.0,0,0.00,,---,0.00,VWS V14.00,2013-10-05 01:55:00,
2013-10-04 21:56:00,58.5,0.0,30.05,SSW,208,0.0,0.0,0,0.00,,---,0.00,VWS V14.00,2013-10-05 01:56:00,
2013-10-04 21:57:00,58.5,0.0,30.05,SSW,208,0.0,0.0,0,0.00,,---,0.00,VWS V14.00,2013-10-05 01:57:00,
2013-10-04 21:58:00,58.5,0.0,30.05,SSW,208,0.0,0.0,0,0.00,,---,0.00,VWS V14.00,2013-10-05 01:58:00,
2013-10-04 21:59:00,58.6,0.0,30.05,SSW,208,0.0,0.0,0,0.00,,---,0.00,VWS V14.00,2013-10-05 01:59:00,
2013-10-04 22:00:00,58.6,0.0,30.05,SSW,208,0.0,0.0,0,0.00,,---,0.00,VWS V14.00,2013-10-05 02:00:00,
2013-10-04 22:01:00,58.5,0.0,30.05,SSW,208,0.0,0.0,0,0.00,,---,0.00,VWS V14.00,2013-10-05 02:01:00,
2013-10-04 22:02:00,58.6,0.0,30.05,SSW,208,0.0,0.0,0,0.00,,---,0.00,VWS V14.00,2013-10-05 02:02:00,
2013-10-04 22:03:00,58.7,0.0,30.05,SSW,208,0.0,0.0,0,0.00,,---,0.00,VWS V14.00,2013-10-05 02:03:00,
2013-10-04 22:04:00,58.7,0.0,30.05,SSW,208,0.0,0.0,0,0.00,,---,0.00,VWS V14.00,2013-10-05 02:04:00,
2013-10-04 22:05:00,58.5,0.0,30.05,SSW,208,0.0,0.0,0,0.00,,---,0.00,VWS V14.00,2013-10-05 02:05:00,
2013-10-04 22:06:00,58.4,0.0,30.05,SSW,208,0.0,0.0,0,0.00,,---,0.00,VWS V14.00,2013-10-05 02:06:00,
2013-10-04 22:07:00,58.5,0.0,30.05,SSW,208,0.0,0.0,0,0.00,,---,0.00,VWS V14.00,2013-10-05 02:07:00,
2013-10-04 22:08:00,58.6,0.0,30.05,SSW,208,0.0,0.0,0,0.00,,---,0.00,VWS V14.00,2013-10-05 02:08:00,
2013-10-04 22:09:00,58.6,0.0,30.05,SSW,208,0.0,0.0,0,0.00,,---,0.00,VWS V14.00,2013-10-05 02:09:00,
2013-10-04 22:10:00,58.6,0.0,30.05,SSW,208,0.0,0.0,0,0.00,,---,0.00,VWS V14.00,2013-10-05 02:10:00,
2013-10-04 22:11:00,58.7,0.0,30.05,SSW,208,0.0,0.0,0,0.00,,---,0.00,VWS V14.00,2013-10-05 02:11:00,
2013-10-04 22:12:00,58.7,0.0,30.05,SSW,208,0.0,0.0,0,0.00,,---,0.00,VWS V14.00,2013-10-05 02:12:00,
2013-10-04 22:13:00,58.7,0.0,30.05,SSW,208,0.0,0.0,0,0.00,,---,0.00,VWS V14.00,2013-10-05 02:13:00,
2013-10-04 22:14:00,58.7,0.0,30.05,SSW,208,0.0,0.0,0,0.00,,---,0.00,VWS V14.00,2013-10-05 02:14:00,
2013-10-04 22:15:00,58.7,0.0,30.05,SSW,208,0.0,0.0,0,0.00,,---,0.00,VWS V14.00,2013-10-05 02:15:00,
2013-10-04 22:16:00,58.6,0.0,30.05,SSW,208,0.0,0.0,0,0.00,,---,0.00,VWS V14.00,2013-10-05 02:16:00,
2013-10-04 22:17:00,58.6,0.0,30.05,SSW,208,0.0,0.0,0,0.00,,---,0.00,VWS V14.00,2013-10-05 02:17:00,
2013-10-04 22:18:00,58.4,0.0,30.05,SSW,208,0.0,0.0,0,0.00,,---,0.00,VWS V14.00,2013-10-05 02:18:00,
2013-10-04 22:19:00,58.5,0.0,30.05,SSW,208,0.0,0.0,0,0.00,,---,0.00,VWS V14.00,2013-10-05 02:19:00,
2013-10-04 22:20:00,58.5,0.0,30.05,SSW,208,0.0,0.0,0,0.00,,---,0.00,VWS V14.00,2013-10-05 02:20:00,
2013-10-04 22:21:00,58.6,0.0,30.05,SSW,208,0.0,0.0,0,0.00,,---,0.00,VWS V14.00,2013-10-05 02:21:00,
2013-10-04 22:22:00,58.6,0.0,30.05,SSW,208,0.0,0.0,0,0.00,,---,0.00,VWS V14.00,2013-10-05 02:22:00,
2013-10-04 22:23:00,58.4,0.0,30.05,SSW,208,0.0,0.0,0,0.00,,---,0.00,VWS V14.00,2013-10-05 02:23:00,
2013-10-04 22:24:00,58.3,0.0,30.05,SSW,208,0.0,0.0,0,0.00,,---,0.00,VWS V14.00,2013-10-05 02:24:00,
2013-10-04 22:25:00,58.4,0.0,30.05,SSW,208,0.0,0.0,0,0.00,,---,0.00,VWS V14.00,2013-10-05 02:25:00,
2013-10-04 22:26:00,58.4,0.0,30.05,SSW,208,0.0,0.0,0,0.00,,---,0.00,VWS V14.00,2013-10-05 02:26:00,
2013-10-04 22:27:00,58.6,0.0,30.05,SSW,208,0.0,0.0,0,0.00,,---,0.00,VWS V14.00,2013-10-05 02:27:00,
2013-10-04 22:28:00,58.6,0.0,30.05,SSW,208,0.0,0.0,0,0.00,,---,0.00,VWS V14.00,2013-10-05 02:28:00,
2013-10-04 22:29:00,58.4,0.0,30.05,SSW,208,0.0,0.0,0,0.00,,---,0.00,VWS V14.00,2013-10-05 02:29:00,
2013-10-04 22:30:00,58.3,0.0,30.05,SSW,208,0.0,0.0,0,0.00,,---,0.00,VWS V14.00,2013-10-05 02:30:00,
2013-10-04 22:31:00,58.3,0.0,30.05,SSW,208,0.0,0.0,0,0.00,,---,0.00,VWS V14.00,2013-10-05 02:31:00,
2013-10-04 22:32:00,58.3,0.0,30.04,SSW,208,0.0,0.0,0,0.00,,---,0.00,VWS V14.00,2013-10-05 02:32:00,
2013-10-04 22:33:00,58.3,0.0,30.04,SSW,208,0.0,0.0,0,0.00,,---,0.00,VWS V14.00,2013-10-05 02:33:00,
2013-10-04 22:34:00,58.4,0.0,30.04,SSW,208,0.0,0.0,0,0.00,,---,0.00,VWS V14.00,2013-10-05 02:34:00,
2013-10-04 22:35:00,58.5,0.0,30.04,SSW,208,0.0,0.0,0,0.00,,---,0.00,VWS V14.00,2013-10-05 02:35:00,
2013-10-04 22:36:00,58.6,0.0,30.04,SSW,208,0.0,0.0,0,0.00,,---,0.00,VWS V14.00,2013-10-05 02:36:00,
2013-10-04 22:37:00,58.5,0.0,30.04,SSW,208,0.0,0.0,0,0.00,,---,0.00,VWS V14.00,2013-10-05 02:37:00,
2013-10-04 22:38:00,58.5,0.0,30.04,SSW,208,0.0,0.0,0,0.00,,---,0.00,VWS V14.00,2013-10-05 02:38:00,
2013-10-04 22:39:00,58.4,0.0,30.04,SSW,208,0.0,0.0,0,0.00,,---,0.00,VWS V14.00,2013-10-05 02:39:00,
2013-10-04 22:40:00,58.7,0.0,30.04,SSW,208,0.0,0.0,0,0.00,,---,0.00,VWS V14.00,2013-10-05 02:40:00,
2013-10-04 22:41:00,58.7,0.0,30.04,SSW,208,0.0,0.0,0,0.00,,---,0.00,VWS V14.00,2013-10-05 02:41:00,
2013-10-04 22:42:00,58.8,0.0,30.04,SSW,208,0.0,0.0,0,0.00,,---,0.00,VWS V14.00,2013-10-05 02:42:00,
2013-10-04 22:43:00,58.8,0.0,30.04,SSW,208,0.0,0.0,0,0.00,,---,0.00,VWS V14.00,2013-10-05 02:43:00,
2013-10-04 22:44:00,58.8,0.0,30.04,SSW,208,0.0,0.0,0,0.00,,---,0.00,VWS V14.00,2013-10-05 02:44:00,
2013-10-04 22:45:00,58.8,0.0,30.04,SSW,208,0.0,0.0,0,0.00,,---,0.00,VWS V14.00,2013-10-05 02:45:00,
2013-10-04 22:46:00,58.8,0.0,30.04,SSW,208,0.0,0.0,0,0.00,,---,0.00,VWS V14.00,2013-10-05 02:46:00,
2013-10-04 22:47:00,58.7,0.0,30.04,SSW,208,0.0,0.0,0,0.00,,---,0.00,VWS V14.00,2013-10-05 02:47:00,
2013-10-04 22:48:00,58.8,0.0,30.04,SSW,208,0.0,0.0,0,0.00,,---,0.00,VWS V14.00,2013-10-05 02:48:00,
2013-10-04 22:49:00,58.8,0.0,30.04,SSW,208,0.0,0.0,0,0.00,,---,0.00,VWS V14.00,2013-10-05 02:49:00,
2013-10-04 22:50:00,58.9,0.0,30.04,SSW,208,0.0,0.0,0,0.00,,---,0.00,VWS V14.00,2013-10-05 02:50:00,
2013-10-04 22:51:00,58.9,0.0,30.04,SSW,208,0.0,0.0,0,0.00,,---,0.00,VWS V14.00,2013-10-05 02:51:00,
2013-10-04 22:52:00,58.9,0.0,30.04,SSW,208,0.0,0.0,0,0.00,,---,0.00,VWS V14.00,2013-10-05 02:52:00,
2013-10-04 22:53:00,58.9,0.0,30.04,SSW,208,0.0,0.0,0,0.00,,---,0.00,VWS V14.00,2013-10-05 02:53:00,
2013-10-04 22:54:00,58.9,0.0,30.04,SSW,208,0.0,0.0,0,0.00,,---,0.00,VWS V14.00,2013-10-05 02:54:00,
2013-10-04 22:55:00,59.0,0.0,30.04,SSW,208,0.0,0.0,0,0.00,,---,0.00,VWS V14.00,2013-10-05 02:55:00,
2013-10-04 22:56:00,59.0,0.0,30.04,SSW,208,0.0,0.0,0,0.00,,---,0.00,VWS V14.00,2013-10-05 02:56:00,
2013-10-04 22:57:00,59.0,0.0,30.04,SSW,208,0.0,0.0,0,0.00,,---,0.00,VWS V14.00,2013-10-05 02:57:00,
2013-10-04 22:58:00,59.0,0.0,30.04,SSW,208,0.0,0.0,0,0.00,,---,0.00,VWS V14.00,2013-10-05 02:58:00,
2013-10-04 22:59:00,59.0,0.0,30.04,SSW,208,0.0,0.0,0,0.00,,---,0.00,VWS V14.00,2013-10-05 02:59:00,
2013-10-04 23:00:00,59.0,0.0,30.04,SSW,208,0.0,0.0,0,0.00,,---,0.00,VWS V14.00,2013-10-05 03:00:00,
2013-10-04 23:01:00,59.0,0.0,30.04,SSW,208,0.0,0.0,0,0.00,,---,0.00,VWS V14.00,2013-10-05 03:01:00,
2013-10-04 23:02:00,59.0,0.0,30.04,SSW,208,0.0,0.0,0,0.00,,---,0.00,VWS V14.00,2013-10-05 03:02:00,
2013-10-04 23:03:00,58.9,0.0,30.04,SSW,208,0.0,0.0,0,0.00,,---,0.00,VWS V14.00,2013-10-05 03:03:00,
2013-10-04 23:04:00,59.0,0.0,30.04,SSW,208,0.0,0.0,0,0.00,,---,0.00,VWS V14.00,2013-10-05 03:04:00,
2013-10-04 23:05:00,59.0,0.0,30.04,SSW,208,0.0,0.0,0,0.00,,---,0.00,VWS V14.00,2013-10-05 03:05:00,
2013-10-04 23:06:00,58.9,0.0,30.04,SSW,208,0.0,0.0,0,0.00,,---,0.00,VWS V14.00,2013-10-05 03:06:00,
2013-10-04 23:07:00,58.9,0.0,30.04,SSW,208,0.0,0.0,0,0.00,,---,0.00,VWS V14.00,2013-10-05 03:07:00,
2013-10-04 23:08:00,58.9,0.0,30.04,SSW,208,0.0,0.0,0,0.00,,---,0.00,VWS V14.00,2013-10-05 03:08:00,
2013-10-04 23:09:00,59.0,0.0,30.04,SSW,208,0.0,0.0,0,0.00,,---,0.00,VWS V14.00,2013-10-05 03:09:00,
2013-10-04 23:10:00,59.0,0.0,30.04,SSW,208,0.0,0.0,0,0.00,,---,0.00,VWS V14.00,2013-10-05 03:10:00,
2013-10-04 23:11:00,58.9,0.0,30.04,SSW,208,0.0,0.0,0,0.00,,---,0.00,VWS V14.00,2013-10-05 03:11:00,
2013-10-04 23:12:00,58.9,0.0,30.04,SSW,208,0.0,0.0,0,0.00,,---,0.00,VWS V14.00,2013-10-05 03:12:00,
2013-10-04 23:13:00,58.9,0.0,30.04,SSW,208,0.0,0.0,0,0.00,,---,0.00,VWS V14.00,2013-10-05 03:13:00,
2013-10-04 23:14:00,58.9,0.0,30.04,SSW,208,0.0,0.0,0,0.00,,---,0.00,VWS V14.00,2013-10-05 03:14:00,
2013-10-04 23:15:00,58.9,0.0,30.04,SSW,208,0.0,0.0,0,0.00,,---,0.00,VWS V14.00,2013-10-05 03:15:00,